<?xml version="1.0" encoding="UTF-8" standalone="no" ?>
<gpx xmlns="http://www.topografix.com/GPX/1/1" xmlns:xsi="http://www.w3.org/2001/XMLSchema-instance" xsi:schemaLocation="http://www.topografix.com/GPX/1/1 http://www.topografix.com/GPX/1/1/gpx.xsd" version="1.1" creator="VisuGPX - https://www.visugpx.com">
  <metadata>
    <name>VTT - Clans -ratapenau - chapelle sainte Anne</name>
    <desc><![CDATA[Deniv réel : 1000m
montée sur piste, descente sur sentier]]></desc>
  </metadata>
  <trk>
    <name><![CDATA[VTT- clans-ratapenau-chapelle sainte anne]]></name>
    <trkseg>
      <trkpt lat="43.99691" lon="7.14992">
        <ele>681</ele>
        <time>2012-10-20T06:09:46.000Z</time>
      </trkpt>
      <trkpt lat="43.99694" lon="7.14992">
        <ele>680.20001220703</ele>
        <time>2012-10-20T06:09:53.000Z</time>
      </trkpt>
      <trkpt lat="43.99693" lon="7.14992">
        <ele>680.59997558594</ele>
        <time>2012-10-20T06:10:03.000Z</time>
      </trkpt>
      <trkpt lat="43.99685" lon="7.14992">
        <ele>682.20001220703</ele>
        <time>2012-10-20T06:10:34.000Z</time>
      </trkpt>
      <trkpt lat="43.99692" lon="7.14999">
        <ele>681.40002441406</ele>
        <time>2012-10-20T06:10:37.000Z</time>
      </trkpt>
      <trkpt lat="43.99678" lon="7.15008">
        <ele>684.59997558594</ele>
        <time>2012-10-20T06:10:42.000Z</time>
      </trkpt>
      <trkpt lat="43.99675" lon="7.15009">
        <ele>685</ele>
        <time>2012-10-20T06:10:43.000Z</time>
      </trkpt>
      <trkpt lat="43.9966" lon="7.15013">
        <ele>686</ele>
        <time>2012-10-20T06:10:50.000Z</time>
      </trkpt>
      <trkpt lat="43.99656" lon="7.1501">
        <ele>685.40002441406</ele>
        <time>2012-10-20T06:10:53.000Z</time>
      </trkpt>
      <trkpt lat="43.99652" lon="7.14994">
        <ele>684.79998779297</ele>
        <time>2012-10-20T06:10:58.000Z</time>
      </trkpt>
      <trkpt lat="43.99652" lon="7.14991">
        <ele>684.59997558594</ele>
        <time>2012-10-20T06:10:59.000Z</time>
      </trkpt>
      <trkpt lat="43.99655" lon="7.14967">
        <ele>684</ele>
        <time>2012-10-20T06:11:07.000Z</time>
      </trkpt>
      <trkpt lat="43.99653" lon="7.14961">
        <ele>683.59997558594</ele>
        <time>2012-10-20T06:11:09.000Z</time>
      </trkpt>
      <trkpt lat="43.99653" lon="7.14952">
        <ele>683.40002441406</ele>
        <time>2012-10-20T06:11:12.000Z</time>
      </trkpt>
      <trkpt lat="43.99643" lon="7.14951">
        <ele>683.20001220703</ele>
        <time>2012-10-20T06:11:17.000Z</time>
      </trkpt>
      <trkpt lat="43.99643" lon="7.14961">
        <ele>683.40002441406</ele>
        <time>2012-10-20T06:11:20.000Z</time>
      </trkpt>
      <trkpt lat="43.99642" lon="7.14984">
        <ele>683.79998779297</ele>
        <time>2012-10-20T06:11:26.000Z</time>
      </trkpt>
      <trkpt lat="43.99644" lon="7.15003">
        <ele>684.40002441406</ele>
        <time>2012-10-20T06:11:31.000Z</time>
      </trkpt>
      <trkpt lat="43.99644" lon="7.15008">
        <ele>684.40002441406</ele>
        <time>2012-10-20T06:11:33.000Z</time>
      </trkpt>
      <trkpt lat="43.99656" lon="7.15034">
        <ele>686</ele>
        <time>2012-10-20T06:11:40.000Z</time>
      </trkpt>
      <trkpt lat="43.99663" lon="7.15052">
        <ele>687.79998779297</ele>
        <time>2012-10-20T06:11:46.000Z</time>
      </trkpt>
      <trkpt lat="43.99667" lon="7.1507">
        <ele>689.40002441406</ele>
        <time>2012-10-20T06:11:51.000Z</time>
      </trkpt>
      <trkpt lat="43.99672" lon="7.15083">
        <ele>690</ele>
        <time>2012-10-20T06:11:54.000Z</time>
      </trkpt>
      <trkpt lat="43.9967" lon="7.15103">
        <ele>692</ele>
        <time>2012-10-20T06:12:00.000Z</time>
      </trkpt>
      <trkpt lat="43.99662" lon="7.15121">
        <ele>692</ele>
        <time>2012-10-20T06:12:05.000Z</time>
      </trkpt>
      <trkpt lat="43.99652" lon="7.1514">
        <ele>689.79998779297</ele>
        <time>2012-10-20T06:12:11.000Z</time>
      </trkpt>
      <trkpt lat="43.99643" lon="7.15152">
        <ele>687.20001220703</ele>
        <time>2012-10-20T06:12:15.000Z</time>
      </trkpt>
      <trkpt lat="43.99638" lon="7.15174">
        <ele>686.79998779297</ele>
        <time>2012-10-20T06:12:21.000Z</time>
      </trkpt>
      <trkpt lat="43.99635" lon="7.15205">
        <ele>690.59997558594</ele>
        <time>2012-10-20T06:12:27.000Z</time>
      </trkpt>
      <trkpt lat="43.99629" lon="7.15234">
        <ele>692.59997558594</ele>
        <time>2012-10-20T06:12:33.000Z</time>
      </trkpt>
      <trkpt lat="43.99622" lon="7.15258">
        <ele>693.79998779297</ele>
        <time>2012-10-20T06:12:39.000Z</time>
      </trkpt>
      <trkpt lat="43.99614" lon="7.15276">
        <ele>693.79998779297</ele>
        <time>2012-10-20T06:12:45.000Z</time>
      </trkpt>
      <trkpt lat="43.99603" lon="7.15299">
        <ele>693.20001220703</ele>
        <time>2012-10-20T06:12:52.000Z</time>
      </trkpt>
      <trkpt lat="43.99593" lon="7.15325">
        <ele>693.20001220703</ele>
        <time>2012-10-20T06:12:59.000Z</time>
      </trkpt>
      <trkpt lat="43.99585" lon="7.15347">
        <ele>691</ele>
        <time>2012-10-20T06:13:06.000Z</time>
      </trkpt>
      <trkpt lat="43.99579" lon="7.1537">
        <ele>690.20001220703</ele>
        <time>2012-10-20T06:13:12.000Z</time>
      </trkpt>
      <trkpt lat="43.99575" lon="7.15398">
        <ele>689.59997558594</ele>
        <time>2012-10-20T06:13:20.000Z</time>
      </trkpt>
      <trkpt lat="43.99579" lon="7.15427">
        <ele>692.59997558594</ele>
        <time>2012-10-20T06:13:27.000Z</time>
      </trkpt>
      <trkpt lat="43.99589" lon="7.15458">
        <ele>695.20001220703</ele>
        <time>2012-10-20T06:13:34.000Z</time>
      </trkpt>
      <trkpt lat="43.99599" lon="7.15479">
        <ele>698.79998779297</ele>
        <time>2012-10-20T06:13:39.000Z</time>
      </trkpt>
      <trkpt lat="43.99611" lon="7.1551">
        <ele>703</ele>
        <time>2012-10-20T06:13:45.000Z</time>
      </trkpt>
      <trkpt lat="43.99613" lon="7.15526">
        <ele>701.40002441406</ele>
        <time>2012-10-20T06:13:50.000Z</time>
      </trkpt>
      <trkpt lat="43.99615" lon="7.15545">
        <ele>700.40002441406</ele>
        <time>2012-10-20T06:13:55.000Z</time>
      </trkpt>
      <trkpt lat="43.99621" lon="7.15574">
        <ele>699.40002441406</ele>
        <time>2012-10-20T06:14:02.000Z</time>
      </trkpt>
      <trkpt lat="43.9963" lon="7.15598">
        <ele>703.59997558594</ele>
        <time>2012-10-20T06:14:08.000Z</time>
      </trkpt>
      <trkpt lat="43.99643" lon="7.15612">
        <ele>711.40002441406</ele>
        <time>2012-10-20T06:14:14.000Z</time>
      </trkpt>
      <trkpt lat="43.99646" lon="7.15634">
        <ele>712.79998779297</ele>
        <time>2012-10-20T06:14:18.000Z</time>
      </trkpt>
      <trkpt lat="43.99639" lon="7.15651">
        <ele>708.40002441406</ele>
        <time>2012-10-20T06:14:22.000Z</time>
      </trkpt>
      <trkpt lat="43.99623" lon="7.15682">
        <ele>700.79998779297</ele>
        <time>2012-10-20T06:14:30.000Z</time>
      </trkpt>
      <trkpt lat="43.99613" lon="7.15722">
        <ele>700.20001220703</ele>
        <time>2012-10-20T06:14:38.000Z</time>
      </trkpt>
      <trkpt lat="43.99606" lon="7.15755">
        <ele>698.79998779297</ele>
        <time>2012-10-20T06:14:44.000Z</time>
      </trkpt>
      <trkpt lat="43.99603" lon="7.15772">
        <ele>696</ele>
        <time>2012-10-20T06:14:47.000Z</time>
      </trkpt>
      <trkpt lat="43.99603" lon="7.15789">
        <ele>694</ele>
        <time>2012-10-20T06:14:50.000Z</time>
      </trkpt>
      <trkpt lat="43.99605" lon="7.15807">
        <ele>693.79998779297</ele>
        <time>2012-10-20T06:14:53.000Z</time>
      </trkpt>
      <trkpt lat="43.99616" lon="7.15831">
        <ele>699.59997558594</ele>
        <time>2012-10-20T06:14:58.000Z</time>
      </trkpt>
      <trkpt lat="43.9962" lon="7.15836">
        <ele>701.79998779297</ele>
        <time>2012-10-20T06:14:59.000Z</time>
      </trkpt>
      <trkpt lat="43.99626" lon="7.15845">
        <ele>705.59997558594</ele>
        <time>2012-10-20T06:15:01.000Z</time>
      </trkpt>
      <trkpt lat="43.99632" lon="7.15868">
        <ele>707.59997558594</ele>
        <time>2012-10-20T06:15:05.000Z</time>
      </trkpt>
      <trkpt lat="43.9964" lon="7.15906">
        <ele>707.79998779297</ele>
        <time>2012-10-20T06:15:12.000Z</time>
      </trkpt>
      <trkpt lat="43.99641" lon="7.15923">
        <ele>708.40002441406</ele>
        <time>2012-10-20T06:15:15.000Z</time>
      </trkpt>
      <trkpt lat="43.99644" lon="7.15939">
        <ele>712.79998779297</ele>
        <time>2012-10-20T06:15:18.000Z</time>
      </trkpt>
      <trkpt lat="43.99644" lon="7.15939">
        <ele>712.79998779297</ele>
        <time>2012-10-20T06:15:18.000Z</time>
      </trkpt>
      <trkpt lat="43.9965" lon="7.15947">
        <ele>716</ele>
        <time>2012-10-20T06:15:20.000Z</time>
      </trkpt>
      <trkpt lat="43.9966" lon="7.15961">
        <ele>720.79998779297</ele>
        <time>2012-10-20T06:15:23.000Z</time>
      </trkpt>
      <trkpt lat="43.99659" lon="7.15982">
        <ele>723</ele>
        <time>2012-10-20T06:15:27.000Z</time>
      </trkpt>
      <trkpt lat="43.99645" lon="7.15993">
        <ele>722.40002441406</ele>
        <time>2012-10-20T06:15:30.000Z</time>
      </trkpt>
      <trkpt lat="43.99632" lon="7.15985">
        <ele>719</ele>
        <time>2012-10-20T06:15:32.000Z</time>
      </trkpt>
      <trkpt lat="43.99627" lon="7.15967">
        <ele>713.40002441406</ele>
        <time>2012-10-20T06:15:37.000Z</time>
      </trkpt>
      <trkpt lat="43.99635" lon="7.15947">
        <ele>711.20001220703</ele>
        <time>2012-10-20T06:15:42.000Z</time>
      </trkpt>
      <trkpt lat="43.99646" lon="7.15924">
        <ele>710.79998779297</ele>
        <time>2012-10-20T06:15:47.000Z</time>
      </trkpt>
      <trkpt lat="43.99599" lon="7.15929">
        <ele>692.79998779297</ele>
        <time>2012-10-20T06:15:51.000Z</time>
      </trkpt>
      <trkpt lat="43.99561" lon="7.15941">
        <ele>686</ele>
        <time>2012-10-20T06:15:54.000Z</time>
      </trkpt>
      <trkpt lat="43.99521" lon="7.15949">
        <ele>679.59997558594</ele>
        <time>2012-10-20T06:15:57.000Z</time>
      </trkpt>
      <trkpt lat="43.99509" lon="7.15971">
        <ele>683.79998779297</ele>
        <time>2012-10-20T06:16:02.000Z</time>
      </trkpt>
      <trkpt lat="43.99503" lon="7.15977">
        <ele>684.20001220703</ele>
        <time>2012-10-20T06:16:05.000Z</time>
      </trkpt>
      <trkpt lat="43.99502" lon="7.15983">
        <ele>686.20001220703</ele>
        <time>2012-10-20T06:16:08.000Z</time>
      </trkpt>
      <trkpt lat="43.99499" lon="7.15997">
        <ele>689.40002441406</ele>
        <time>2012-10-20T06:16:12.000Z</time>
      </trkpt>
      <trkpt lat="43.99508" lon="7.16026">
        <ele>690.20001220703</ele>
        <time>2012-10-20T06:16:19.000Z</time>
      </trkpt>
      <trkpt lat="43.99523" lon="7.16054">
        <ele>694</ele>
        <time>2012-10-20T06:16:26.000Z</time>
      </trkpt>
      <trkpt lat="43.99545" lon="7.16077">
        <ele>704.20001220703</ele>
        <time>2012-10-20T06:16:33.000Z</time>
      </trkpt>
      <trkpt lat="43.99557" lon="7.16107">
        <ele>706.59997558594</ele>
        <time>2012-10-20T06:16:38.000Z</time>
      </trkpt>
      <trkpt lat="43.99559" lon="7.16112">
        <ele>707.20001220703</ele>
        <time>2012-10-20T06:16:39.000Z</time>
      </trkpt>
      <trkpt lat="43.99566" lon="7.16128">
        <ele>709.40002441406</ele>
        <time>2012-10-20T06:16:42.000Z</time>
      </trkpt>
      <trkpt lat="43.99571" lon="7.16165">
        <ele>706.79998779297</ele>
        <time>2012-10-20T06:16:48.000Z</time>
      </trkpt>
      <trkpt lat="43.9958" lon="7.162">
        <ele>707.20001220703</ele>
        <time>2012-10-20T06:16:54.000Z</time>
      </trkpt>
      <trkpt lat="43.99581" lon="7.16205">
        <ele>707.59997558594</ele>
        <time>2012-10-20T06:16:55.000Z</time>
      </trkpt>
      <trkpt lat="43.9959" lon="7.16228">
        <ele>708.59997558594</ele>
        <time>2012-10-20T06:17:00.000Z</time>
      </trkpt>
      <trkpt lat="43.99599" lon="7.16241">
        <ele>711.40002441406</ele>
        <time>2012-10-20T06:17:03.000Z</time>
      </trkpt>
      <trkpt lat="43.9961" lon="7.16253">
        <ele>716.20001220703</ele>
        <time>2012-10-20T06:17:06.000Z</time>
      </trkpt>
      <trkpt lat="43.99618" lon="7.16275">
        <ele>720.59997558594</ele>
        <time>2012-10-20T06:17:11.000Z</time>
      </trkpt>
      <trkpt lat="43.9961" lon="7.16289">
        <ele>715</ele>
        <time>2012-10-20T06:17:14.000Z</time>
      </trkpt>
      <trkpt lat="43.99608" lon="7.16294">
        <ele>713.20001220703</ele>
        <time>2012-10-20T06:17:15.000Z</time>
      </trkpt>
      <trkpt lat="43.99601" lon="7.16309">
        <ele>707.79998779297</ele>
        <time>2012-10-20T06:17:18.000Z</time>
      </trkpt>
      <trkpt lat="43.99597" lon="7.16336">
        <ele>704</ele>
        <time>2012-10-20T06:17:23.000Z</time>
      </trkpt>
      <trkpt lat="43.99597" lon="7.16348">
        <ele>703.40002441406</ele>
        <time>2012-10-20T06:17:25.000Z</time>
      </trkpt>
      <trkpt lat="43.99603" lon="7.16374">
        <ele>706.79998779297</ele>
        <time>2012-10-20T06:17:29.000Z</time>
      </trkpt>
      <trkpt lat="43.99609" lon="7.16385">
        <ele>710.20001220703</ele>
        <time>2012-10-20T06:17:31.000Z</time>
      </trkpt>
      <trkpt lat="43.99612" lon="7.16413">
        <ele>711</ele>
        <time>2012-10-20T06:17:36.000Z</time>
      </trkpt>
      <trkpt lat="43.99602" lon="7.16429">
        <ele>700</ele>
        <time>2012-10-20T06:17:40.000Z</time>
      </trkpt>
      <trkpt lat="43.99602" lon="7.16452">
        <ele>693.59997558594</ele>
        <time>2012-10-20T06:17:44.000Z</time>
      </trkpt>
      <trkpt lat="43.99611" lon="7.16469">
        <ele>693.79998779297</ele>
        <time>2012-10-20T06:17:48.000Z</time>
      </trkpt>
      <trkpt lat="43.99624" lon="7.16478">
        <ele>698.59997558594</ele>
        <time>2012-10-20T06:17:51.000Z</time>
      </trkpt>
      <trkpt lat="43.99633" lon="7.16483">
        <ele>702.40002441406</ele>
        <time>2012-10-20T06:17:53.000Z</time>
      </trkpt>
      <trkpt lat="43.99649" lon="7.16495">
        <ele>708</ele>
        <time>2012-10-20T06:17:57.000Z</time>
      </trkpt>
      <trkpt lat="43.99655" lon="7.16504">
        <ele>707.59997558594</ele>
        <time>2012-10-20T06:17:59.000Z</time>
      </trkpt>
      <trkpt lat="43.99677" lon="7.16514">
        <ele>713.40002441406</ele>
        <time>2012-10-20T06:18:04.000Z</time>
      </trkpt>
      <trkpt lat="43.99705" lon="7.16527">
        <ele>717.40002441406</ele>
        <time>2012-10-20T06:18:09.000Z</time>
      </trkpt>
      <trkpt lat="43.99735" lon="7.16538">
        <ele>722</ele>
        <time>2012-10-20T06:18:15.000Z</time>
      </trkpt>
      <trkpt lat="43.9974" lon="7.16541">
        <ele>722.59997558594</ele>
        <time>2012-10-20T06:18:16.000Z</time>
      </trkpt>
      <trkpt lat="43.99753" lon="7.16558">
        <ele>717.40002441406</ele>
        <time>2012-10-20T06:18:21.000Z</time>
      </trkpt>
      <trkpt lat="43.99764" lon="7.16571">
        <ele>713.59997558594</ele>
        <time>2012-10-20T06:18:25.000Z</time>
      </trkpt>
      <trkpt lat="43.99777" lon="7.16572">
        <ele>716.40002441406</ele>
        <time>2012-10-20T06:18:28.000Z</time>
      </trkpt>
      <trkpt lat="43.99793" lon="7.16565">
        <ele>724.20001220703</ele>
        <time>2012-10-20T06:18:31.000Z</time>
      </trkpt>
      <trkpt lat="43.99812" lon="7.16561">
        <ele>731</ele>
        <time>2012-10-20T06:18:35.000Z</time>
      </trkpt>
      <trkpt lat="43.99812" lon="7.16561">
        <ele>731</ele>
        <time>2012-10-20T06:18:35.000Z</time>
      </trkpt>
      <trkpt lat="43.99821" lon="7.16566">
        <ele>731.40002441406</ele>
        <time>2012-10-20T06:18:37.000Z</time>
      </trkpt>
      <trkpt lat="43.99828" lon="7.16575">
        <ele>729</ele>
        <time>2012-10-20T06:18:39.000Z</time>
      </trkpt>
      <trkpt lat="43.99834" lon="7.16588">
        <ele>727.79998779297</ele>
        <time>2012-10-20T06:18:41.000Z</time>
      </trkpt>
      <trkpt lat="43.99815" lon="7.16616">
        <ele>726.79998779297</ele>
        <time>2012-10-20T06:18:45.000Z</time>
      </trkpt>
      <trkpt lat="43.99794" lon="7.16623">
        <ele>721.59997558594</ele>
        <time>2012-10-20T06:18:49.000Z</time>
      </trkpt>
      <trkpt lat="43.99785" lon="7.16629">
        <ele>719.59997558594</ele>
        <time>2012-10-20T06:18:51.000Z</time>
      </trkpt>
      <trkpt lat="43.99775" lon="7.16633">
        <ele>717</ele>
        <time>2012-10-20T06:18:53.000Z</time>
      </trkpt>
      <trkpt lat="43.99756" lon="7.16643">
        <ele>712.20001220703</ele>
        <time>2012-10-20T06:18:57.000Z</time>
      </trkpt>
      <trkpt lat="43.99734" lon="7.16658">
        <ele>705.79998779297</ele>
        <time>2012-10-20T06:19:02.000Z</time>
      </trkpt>
      <trkpt lat="43.99719" lon="7.16661">
        <ele>700.20001220703</ele>
        <time>2012-10-20T06:19:05.000Z</time>
      </trkpt>
      <trkpt lat="43.99706" lon="7.16674">
        <ele>697.20001220703</ele>
        <time>2012-10-20T06:19:09.000Z</time>
      </trkpt>
      <trkpt lat="43.997" lon="7.16683">
        <ele>697</ele>
        <time>2012-10-20T06:19:11.000Z</time>
      </trkpt>
      <trkpt lat="43.9969" lon="7.16695">
        <ele>695</ele>
        <time>2012-10-20T06:19:14.000Z</time>
      </trkpt>
      <trkpt lat="43.9969" lon="7.16722">
        <ele>700.20001220703</ele>
        <time>2012-10-20T06:19:18.000Z</time>
      </trkpt>
      <trkpt lat="43.99699" lon="7.16779">
        <ele>711.20001220703</ele>
        <time>2012-10-20T06:19:26.000Z</time>
      </trkpt>
      <trkpt lat="43.997" lon="7.1683">
        <ele>710</ele>
        <time>2012-10-20T06:19:33.000Z</time>
      </trkpt>
      <trkpt lat="43.99705" lon="7.16874">
        <ele>704.79998779297</ele>
        <time>2012-10-20T06:19:39.000Z</time>
      </trkpt>
      <trkpt lat="43.99719" lon="7.16912">
        <ele>704.40002441406</ele>
        <time>2012-10-20T06:19:45.000Z</time>
      </trkpt>
      <trkpt lat="43.99726" lon="7.16936">
        <ele>701.79998779297</ele>
        <time>2012-10-20T06:19:49.000Z</time>
      </trkpt>
      <trkpt lat="43.99743" lon="7.16953">
        <ele>704.40002441406</ele>
        <time>2012-10-20T06:19:54.000Z</time>
      </trkpt>
      <trkpt lat="43.99747" lon="7.16951">
        <ele>706.59997558594</ele>
        <time>2012-10-20T06:19:55.000Z</time>
      </trkpt>
      <trkpt lat="43.99791" lon="7.1693">
        <ele>722.59997558594</ele>
        <time>2012-10-20T06:20:03.000Z</time>
      </trkpt>
      <trkpt lat="43.99821" lon="7.16934">
        <ele>728</ele>
        <time>2012-10-20T06:20:09.000Z</time>
      </trkpt>
      <trkpt lat="43.99848" lon="7.16939">
        <ele>735.79998779297</ele>
        <time>2012-10-20T06:20:14.000Z</time>
      </trkpt>
      <trkpt lat="43.99862" lon="7.16956">
        <ele>739.79998779297</ele>
        <time>2012-10-20T06:20:19.000Z</time>
      </trkpt>
      <trkpt lat="43.99853" lon="7.16968">
        <ele>734.59997558594</ele>
        <time>2012-10-20T06:20:21.000Z</time>
      </trkpt>
      <trkpt lat="43.99831" lon="7.16982">
        <ele>723.79998779297</ele>
        <time>2012-10-20T06:20:24.000Z</time>
      </trkpt>
      <trkpt lat="43.9979" lon="7.17003">
        <ele>707.20001220703</ele>
        <time>2012-10-20T06:20:31.000Z</time>
      </trkpt>
      <trkpt lat="43.99781" lon="7.17033">
        <ele>706.79998779297</ele>
        <time>2012-10-20T06:20:36.000Z</time>
      </trkpt>
      <trkpt lat="43.99784" lon="7.17048">
        <ele>709.79998779297</ele>
        <time>2012-10-20T06:20:38.000Z</time>
      </trkpt>
      <trkpt lat="43.99781" lon="7.17103">
        <ele>711.40002441406</ele>
        <time>2012-10-20T06:20:46.000Z</time>
      </trkpt>
      <trkpt lat="43.99771" lon="7.17153">
        <ele>706.79998779297</ele>
        <time>2012-10-20T06:20:54.000Z</time>
      </trkpt>
      <trkpt lat="43.9977" lon="7.1716">
        <ele>706.59997558594</ele>
        <time>2012-10-20T06:20:55.000Z</time>
      </trkpt>
      <trkpt lat="43.99772" lon="7.17187">
        <ele>702.59997558594</ele>
        <time>2012-10-20T06:20:59.000Z</time>
      </trkpt>
      <trkpt lat="43.99785" lon="7.17215">
        <ele>701.59997558594</ele>
        <time>2012-10-20T06:21:04.000Z</time>
      </trkpt>
      <trkpt lat="43.99789" lon="7.17217">
        <ele>702.79998779297</ele>
        <time>2012-10-20T06:21:05.000Z</time>
      </trkpt>
      <trkpt lat="43.99826" lon="7.17232">
        <ele>713.79998779297</ele>
        <time>2012-10-20T06:21:12.000Z</time>
      </trkpt>
      <trkpt lat="43.99848" lon="7.17233">
        <ele>723.20001220703</ele>
        <time>2012-10-20T06:21:17.000Z</time>
      </trkpt>
      <trkpt lat="43.99873" lon="7.17237">
        <ele>733.59997558594</ele>
        <time>2012-10-20T06:21:22.000Z</time>
      </trkpt>
      <trkpt lat="43.9988" lon="7.1726">
        <ele>731.20001220703</ele>
        <time>2012-10-20T06:21:25.000Z</time>
      </trkpt>
      <trkpt lat="43.99876" lon="7.17281">
        <ele>726.59997558594</ele>
        <time>2012-10-20T06:21:28.000Z</time>
      </trkpt>
      <trkpt lat="43.99867" lon="7.17289">
        <ele>721.40002441406</ele>
        <time>2012-10-20T06:21:31.000Z</time>
      </trkpt>
      <trkpt lat="43.99867" lon="7.17289">
        <ele>721.40002441406</ele>
        <time>2012-10-20T06:21:31.000Z</time>
      </trkpt>
      <trkpt lat="43.99848" lon="7.17298">
        <ele>711</ele>
        <time>2012-10-20T06:21:34.000Z</time>
      </trkpt>
      <trkpt lat="43.99827" lon="7.17313">
        <ele>699.20001220703</ele>
        <time>2012-10-20T06:21:38.000Z</time>
      </trkpt>
      <trkpt lat="43.99843" lon="7.17326">
        <ele>704.20001220703</ele>
        <time>2012-10-20T06:21:41.000Z</time>
      </trkpt>
      <trkpt lat="43.99866" lon="7.17339">
        <ele>713.20001220703</ele>
        <time>2012-10-20T06:21:45.000Z</time>
      </trkpt>
      <trkpt lat="43.99887" lon="7.17358">
        <ele>719.20001220703</ele>
        <time>2012-10-20T06:21:49.000Z</time>
      </trkpt>
      <trkpt lat="43.99886" lon="7.17386">
        <ele>712.59997558594</ele>
        <time>2012-10-20T06:21:53.000Z</time>
      </trkpt>
      <trkpt lat="43.99881" lon="7.17398">
        <ele>707.40002441406</ele>
        <time>2012-10-20T06:21:55.000Z</time>
      </trkpt>
      <trkpt lat="43.99884" lon="7.17429">
        <ele>703.40002441406</ele>
        <time>2012-10-20T06:22:00.000Z</time>
      </trkpt>
      <trkpt lat="43.99888" lon="7.17434">
        <ele>704.40002441406</ele>
        <time>2012-10-20T06:22:01.000Z</time>
      </trkpt>
      <trkpt lat="43.99897" lon="7.17447">
        <ele>706.79998779297</ele>
        <time>2012-10-20T06:22:04.000Z</time>
      </trkpt>
      <trkpt lat="43.99917" lon="7.17458">
        <ele>712.79998779297</ele>
        <time>2012-10-20T06:22:08.000Z</time>
      </trkpt>
      <trkpt lat="43.9995" lon="7.1747">
        <ele>729.20001220703</ele>
        <time>2012-10-20T06:22:13.000Z</time>
      </trkpt>
      <trkpt lat="43.99955" lon="7.17472">
        <ele>731.59997558594</ele>
        <time>2012-10-20T06:22:14.000Z</time>
      </trkpt>
      <trkpt lat="43.9997" lon="7.17484">
        <ele>736.59997558594</ele>
        <time>2012-10-20T06:22:18.000Z</time>
      </trkpt>
      <trkpt lat="43.99976" lon="7.1751">
        <ele>735</ele>
        <time>2012-10-20T06:22:23.000Z</time>
      </trkpt>
      <trkpt lat="43.99955" lon="7.17513">
        <ele>724.79998779297</ele>
        <time>2012-10-20T06:22:26.000Z</time>
      </trkpt>
      <trkpt lat="43.99929" lon="7.1752">
        <ele>712</ele>
        <time>2012-10-20T06:22:31.000Z</time>
      </trkpt>
      <trkpt lat="43.99922" lon="7.17545">
        <ele>708.20001220703</ele>
        <time>2012-10-20T06:22:35.000Z</time>
      </trkpt>
      <trkpt lat="43.99922" lon="7.17573">
        <ele>708.40002441406</ele>
        <time>2012-10-20T06:22:39.000Z</time>
      </trkpt>
      <trkpt lat="43.99927" lon="7.17594">
        <ele>709.59997558594</ele>
        <time>2012-10-20T06:22:42.000Z</time>
      </trkpt>
      <trkpt lat="43.99933" lon="7.17613">
        <ele>711</ele>
        <time>2012-10-20T06:22:45.000Z</time>
      </trkpt>
      <trkpt lat="43.99943" lon="7.17632">
        <ele>714.40002441406</ele>
        <time>2012-10-20T06:22:48.000Z</time>
      </trkpt>
      <trkpt lat="43.99947" lon="7.1765">
        <ele>715.20001220703</ele>
        <time>2012-10-20T06:22:51.000Z</time>
      </trkpt>
      <trkpt lat="43.99958" lon="7.17673">
        <ele>719</ele>
        <time>2012-10-20T06:22:56.000Z</time>
      </trkpt>
      <trkpt lat="43.99978" lon="7.17689">
        <ele>726</ele>
        <time>2012-10-20T06:23:02.000Z</time>
      </trkpt>
      <trkpt lat="43.99994" lon="7.17717">
        <ele>723.20001220703</ele>
        <time>2012-10-20T06:23:09.000Z</time>
      </trkpt>
      <trkpt lat="44" lon="7.17734">
        <ele>718.40002441406</ele>
        <time>2012-10-20T06:23:12.000Z</time>
      </trkpt>
      <trkpt lat="44.00004" lon="7.17747">
        <ele>713</ele>
        <time>2012-10-20T06:23:14.000Z</time>
      </trkpt>
      <trkpt lat="44.00015" lon="7.17769">
        <ele>714.40002441406</ele>
        <time>2012-10-20T06:23:19.000Z</time>
      </trkpt>
      <trkpt lat="44.00029" lon="7.17787">
        <ele>716.40002441406</ele>
        <time>2012-10-20T06:23:23.000Z</time>
      </trkpt>
      <trkpt lat="44.00043" lon="7.17797">
        <ele>738</ele>
        <time>2012-10-20T06:23:28.000Z</time>
      </trkpt>
      <trkpt lat="44.00043" lon="7.17791">
        <ele>738.79998779297</ele>
        <time>2012-10-20T06:23:34.000Z</time>
      </trkpt>
      <trkpt lat="44.00031" lon="7.17785">
        <ele>734.40002441406</ele>
        <time>2012-10-20T06:23:40.000Z</time>
      </trkpt>
      <trkpt lat="44.00023" lon="7.17781">
        <ele>730.79998779297</ele>
        <time>2012-10-20T06:23:46.000Z</time>
      </trkpt>
      <trkpt lat="44.00021" lon="7.17775">
        <ele>730.79998779297</ele>
        <time>2012-10-20T06:23:53.000Z</time>
      </trkpt>
      <trkpt lat="44.00012" lon="7.17767">
        <ele>727</ele>
        <time>2012-10-20T06:24:31.000Z</time>
      </trkpt>
      <trkpt lat="44.00009" lon="7.17774">
        <ele>724.20001220703</ele>
        <time>2012-10-20T06:24:37.000Z</time>
      </trkpt>
      <trkpt lat="44.00013" lon="7.17777">
        <ele>726.20001220703</ele>
        <time>2012-10-20T06:24:42.000Z</time>
      </trkpt>
      <trkpt lat="44.00013" lon="7.17777">
        <ele>726.40002441406</ele>
        <time>2012-10-20T06:24:43.000Z</time>
      </trkpt>
      <trkpt lat="44.00015" lon="7.17782">
        <ele>727</ele>
        <time>2012-10-20T06:24:56.000Z</time>
      </trkpt>
      <trkpt lat="44.00017" lon="7.17783">
        <ele>727.79998779297</ele>
        <time>2012-10-20T06:25:01.000Z</time>
      </trkpt>
      <trkpt lat="44.00026" lon="7.17784">
        <ele>731.79998779297</ele>
        <time>2012-10-20T06:25:04.000Z</time>
      </trkpt>
      <trkpt lat="44.00031" lon="7.17784">
        <ele>734.59997558594</ele>
        <time>2012-10-20T06:25:09.000Z</time>
      </trkpt>
      <trkpt lat="44.00039" lon="7.17787">
        <ele>738</ele>
        <time>2012-10-20T06:25:23.000Z</time>
      </trkpt>
      <trkpt lat="44.00027" lon="7.17798">
        <ele>730.20001220703</ele>
        <time>2012-10-20T06:25:41.000Z</time>
      </trkpt>
      <trkpt lat="43.99982" lon="7.17816">
        <ele>717</ele>
        <time>2012-10-20T06:25:50.000Z</time>
      </trkpt>
      <trkpt lat="43.99963" lon="7.17823">
        <ele>716.59997558594</ele>
        <time>2012-10-20T06:25:58.000Z</time>
      </trkpt>
      <trkpt lat="43.99963" lon="7.17824">
        <ele>716.59997558594</ele>
        <time>2012-10-20T06:26:04.000Z</time>
      </trkpt>
      <trkpt lat="43.99996" lon="7.17814">
        <ele>717.20001220703</ele>
        <time>2012-10-20T06:26:22.000Z</time>
      </trkpt>
      <trkpt lat="44.00006" lon="7.17826">
        <ele>718.40002441406</ele>
        <time>2012-10-20T06:26:29.000Z</time>
      </trkpt>
      <trkpt lat="43.99999" lon="7.17843">
        <ele>721.20001220703</ele>
        <time>2012-10-20T06:26:34.000Z</time>
      </trkpt>
      <trkpt lat="43.99997" lon="7.17853">
        <ele>726.40002441406</ele>
        <time>2012-10-20T06:26:39.000Z</time>
      </trkpt>
      <trkpt lat="43.99995" lon="7.17852">
        <ele>726</ele>
        <time>2012-10-20T06:26:41.000Z</time>
      </trkpt>
      <trkpt lat="43.99981" lon="7.17836">
        <ele>717.20001220703</ele>
        <time>2012-10-20T06:26:45.000Z</time>
      </trkpt>
      <trkpt lat="43.99971" lon="7.17817">
        <ele>717</ele>
        <time>2012-10-20T06:26:50.000Z</time>
      </trkpt>
      <trkpt lat="43.9997" lon="7.17813">
        <ele>717.20001220703</ele>
        <time>2012-10-20T06:26:51.000Z</time>
      </trkpt>
      <trkpt lat="43.99952" lon="7.17795">
        <ele>724.79998779297</ele>
        <time>2012-10-20T06:26:58.000Z</time>
      </trkpt>
      <trkpt lat="43.99917" lon="7.17786">
        <ele>725</ele>
        <time>2012-10-20T06:27:05.000Z</time>
      </trkpt>
      <trkpt lat="43.99904" lon="7.1778">
        <ele>724.79998779297</ele>
        <time>2012-10-20T06:27:08.000Z</time>
      </trkpt>
      <trkpt lat="43.99895" lon="7.17776">
        <ele>725.40002441406</ele>
        <time>2012-10-20T06:27:13.000Z</time>
      </trkpt>
      <trkpt lat="43.99886" lon="7.17783">
        <ele>730.59997558594</ele>
        <time>2012-10-20T06:27:16.000Z</time>
      </trkpt>
      <trkpt lat="43.99879" lon="7.17787">
        <ele>733.79998779297</ele>
        <time>2012-10-20T06:27:18.000Z</time>
      </trkpt>
      <trkpt lat="43.99857" lon="7.17802">
        <ele>742.20001220703</ele>
        <time>2012-10-20T06:27:25.000Z</time>
      </trkpt>
      <trkpt lat="43.99832" lon="7.1782">
        <ele>747.59997558594</ele>
        <time>2012-10-20T06:27:32.000Z</time>
      </trkpt>
      <trkpt lat="43.99816" lon="7.1783">
        <ele>757.20001220703</ele>
        <time>2012-10-20T06:27:36.000Z</time>
      </trkpt>
      <trkpt lat="43.99801" lon="7.17839">
        <ele>766.20001220703</ele>
        <time>2012-10-20T06:27:40.000Z</time>
      </trkpt>
      <trkpt lat="43.99803" lon="7.17834">
        <ele>764.40002441406</ele>
        <time>2012-10-20T06:27:46.000Z</time>
      </trkpt>
      <trkpt lat="43.99802" lon="7.17827">
        <ele>764.79998779297</ele>
        <time>2012-10-20T06:27:50.000Z</time>
      </trkpt>
      <trkpt lat="43.99798" lon="7.1782">
        <ele>767.20001220703</ele>
        <time>2012-10-20T06:27:52.000Z</time>
      </trkpt>
      <trkpt lat="43.99795" lon="7.17816">
        <ele>768.79998779297</ele>
        <time>2012-10-20T06:27:54.000Z</time>
      </trkpt>
      <trkpt lat="43.998" lon="7.17807">
        <ele>766</ele>
        <time>2012-10-20T06:27:59.000Z</time>
      </trkpt>
      <trkpt lat="43.99803" lon="7.17806">
        <ele>764.20001220703</ele>
        <time>2012-10-20T06:28:00.000Z</time>
      </trkpt>
      <trkpt lat="43.99805" lon="7.17805">
        <ele>763.20001220703</ele>
        <time>2012-10-20T06:28:01.000Z</time>
      </trkpt>
      <trkpt lat="43.99805" lon="7.17805">
        <ele>763.20001220703</ele>
        <time>2012-10-20T06:28:01.000Z</time>
      </trkpt>
      <trkpt lat="43.99807" lon="7.17802">
        <ele>761.79998779297</ele>
        <time>2012-10-20T06:28:03.000Z</time>
      </trkpt>
      <trkpt lat="43.99811" lon="7.17787">
        <ele>759</ele>
        <time>2012-10-20T06:28:10.000Z</time>
      </trkpt>
      <trkpt lat="43.99811" lon="7.17776">
        <ele>758.40002441406</ele>
        <time>2012-10-20T06:28:14.000Z</time>
      </trkpt>
      <trkpt lat="43.99836" lon="7.1776">
        <ele>740</ele>
        <time>2012-10-20T06:28:21.000Z</time>
      </trkpt>
      <trkpt lat="43.99838" lon="7.17749">
        <ele>738</ele>
        <time>2012-10-20T06:28:26.000Z</time>
      </trkpt>
      <trkpt lat="43.99843" lon="7.17727">
        <ele>733.59997558594</ele>
        <time>2012-10-20T06:28:32.000Z</time>
      </trkpt>
      <trkpt lat="43.9985" lon="7.17704">
        <ele>728.40002441406</ele>
        <time>2012-10-20T06:28:39.000Z</time>
      </trkpt>
      <trkpt lat="43.99853" lon="7.17687">
        <ele>725.59997558594</ele>
        <time>2012-10-20T06:28:45.000Z</time>
      </trkpt>
      <trkpt lat="43.99852" lon="7.17685">
        <ele>725.79998779297</ele>
        <time>2012-10-20T06:28:46.000Z</time>
      </trkpt>
      <trkpt lat="43.99844" lon="7.17672">
        <ele>728.59997558594</ele>
        <time>2012-10-20T06:28:51.000Z</time>
      </trkpt>
      <trkpt lat="43.99842" lon="7.17666">
        <ele>728.59997558594</ele>
        <time>2012-10-20T06:28:53.000Z</time>
      </trkpt>
      <trkpt lat="43.99835" lon="7.17656">
        <ele>729.40002441406</ele>
        <time>2012-10-20T06:28:59.000Z</time>
      </trkpt>
      <trkpt lat="43.99823" lon="7.17649">
        <ele>735.40002441406</ele>
        <time>2012-10-20T06:29:04.000Z</time>
      </trkpt>
      <trkpt lat="43.9981" lon="7.17634">
        <ele>739.79998779297</ele>
        <time>2012-10-20T06:29:11.000Z</time>
      </trkpt>
      <trkpt lat="43.99805" lon="7.17619">
        <ele>737.79998779297</ele>
        <time>2012-10-20T06:29:17.000Z</time>
      </trkpt>
      <trkpt lat="43.99801" lon="7.17608">
        <ele>736.40002441406</ele>
        <time>2012-10-20T06:29:22.000Z</time>
      </trkpt>
      <trkpt lat="43.99801" lon="7.17605">
        <ele>735.20001220703</ele>
        <time>2012-10-20T06:29:23.000Z</time>
      </trkpt>
      <trkpt lat="43.99788" lon="7.17593">
        <ele>738.20001220703</ele>
        <time>2012-10-20T06:29:30.000Z</time>
      </trkpt>
      <trkpt lat="43.99782" lon="7.17585">
        <ele>738.59997558594</ele>
        <time>2012-10-20T06:29:35.000Z</time>
      </trkpt>
      <trkpt lat="43.99776" lon="7.17583">
        <ele>741.40002441406</ele>
        <time>2012-10-20T06:29:40.000Z</time>
      </trkpt>
      <trkpt lat="43.99776" lon="7.17581">
        <ele>740.59997558594</ele>
        <time>2012-10-20T06:29:44.000Z</time>
      </trkpt>
      <trkpt lat="43.99773" lon="7.17582">
        <ele>742.59997558594</ele>
        <time>2012-10-20T06:29:52.000Z</time>
      </trkpt>
      <trkpt lat="43.9977" lon="7.17583">
        <ele>744.59997558594</ele>
        <time>2012-10-20T06:29:54.000Z</time>
      </trkpt>
      <trkpt lat="43.99764" lon="7.17582">
        <ele>747.79998779297</ele>
        <time>2012-10-20T06:30:00.000Z</time>
      </trkpt>
      <trkpt lat="43.99753" lon="7.17579">
        <ele>752.20001220703</ele>
        <time>2012-10-20T06:30:06.000Z</time>
      </trkpt>
      <trkpt lat="43.99744" lon="7.17577">
        <ele>756</ele>
        <time>2012-10-20T06:30:11.000Z</time>
      </trkpt>
      <trkpt lat="43.99725" lon="7.17577">
        <ele>765.20001220703</ele>
        <time>2012-10-20T06:30:18.000Z</time>
      </trkpt>
      <trkpt lat="43.99712" lon="7.17572">
        <ele>769.40002441406</ele>
        <time>2012-10-20T06:30:24.000Z</time>
      </trkpt>
      <trkpt lat="43.99713" lon="7.17569">
        <ele>768</ele>
        <time>2012-10-20T06:30:26.000Z</time>
      </trkpt>
      <trkpt lat="43.99712" lon="7.17566">
        <ele>766.79998779297</ele>
        <time>2012-10-20T06:30:28.000Z</time>
      </trkpt>
      <trkpt lat="43.99711" lon="7.17558">
        <ele>763.79998779297</ele>
        <time>2012-10-20T06:30:31.000Z</time>
      </trkpt>
      <trkpt lat="43.99694" lon="7.17551">
        <ele>768.79998779297</ele>
        <time>2012-10-20T06:30:37.000Z</time>
      </trkpt>
      <trkpt lat="43.9967" lon="7.17551">
        <ele>780</ele>
        <time>2012-10-20T06:30:44.000Z</time>
      </trkpt>
      <trkpt lat="43.99663" lon="7.17544">
        <ele>780.79998779297</ele>
        <time>2012-10-20T06:30:50.000Z</time>
      </trkpt>
      <trkpt lat="43.99662" lon="7.17539">
        <ele>779</ele>
        <time>2012-10-20T06:30:54.000Z</time>
      </trkpt>
      <trkpt lat="43.99658" lon="7.17534">
        <ele>779.40002441406</ele>
        <time>2012-10-20T06:30:58.000Z</time>
      </trkpt>
      <trkpt lat="43.99653" lon="7.17528">
        <ele>780.59997558594</ele>
        <time>2012-10-20T06:31:03.000Z</time>
      </trkpt>
      <trkpt lat="43.99648" lon="7.17526">
        <ele>783.20001220703</ele>
        <time>2012-10-20T06:31:06.000Z</time>
      </trkpt>
      <trkpt lat="43.99643" lon="7.17523">
        <ele>785.20001220703</ele>
        <time>2012-10-20T06:31:09.000Z</time>
      </trkpt>
      <trkpt lat="43.99639" lon="7.17515">
        <ele>783.59997558594</ele>
        <time>2012-10-20T06:31:15.000Z</time>
      </trkpt>
      <trkpt lat="43.9964" lon="7.17513">
        <ele>782.20001220703</ele>
        <time>2012-10-20T06:31:16.000Z</time>
      </trkpt>
      <trkpt lat="43.99637" lon="7.17507">
        <ele>781.59997558594</ele>
        <time>2012-10-20T06:31:19.000Z</time>
      </trkpt>
      <trkpt lat="43.99636" lon="7.17502">
        <ele>779</ele>
        <time>2012-10-20T06:31:22.000Z</time>
      </trkpt>
      <trkpt lat="43.99631" lon="7.17491">
        <ele>777.20001220703</ele>
        <time>2012-10-20T06:31:28.000Z</time>
      </trkpt>
      <trkpt lat="43.99634" lon="7.17483">
        <ele>771.40002441406</ele>
        <time>2012-10-20T06:31:31.000Z</time>
      </trkpt>
      <trkpt lat="43.99632" lon="7.17476">
        <ele>768.79998779297</ele>
        <time>2012-10-20T06:31:35.000Z</time>
      </trkpt>
      <trkpt lat="43.99628" lon="7.17468">
        <ele>768</ele>
        <time>2012-10-20T06:31:41.000Z</time>
      </trkpt>
      <trkpt lat="43.9962" lon="7.17456">
        <ele>768</ele>
        <time>2012-10-20T06:31:48.000Z</time>
      </trkpt>
      <trkpt lat="43.9961" lon="7.17441">
        <ele>768.40002441406</ele>
        <time>2012-10-20T06:31:57.000Z</time>
      </trkpt>
      <trkpt lat="43.99609" lon="7.1744">
        <ele>769</ele>
        <time>2012-10-20T06:31:58.000Z</time>
      </trkpt>
      <trkpt lat="43.996" lon="7.17424">
        <ele>768.79998779297</ele>
        <time>2012-10-20T06:32:07.000Z</time>
      </trkpt>
      <trkpt lat="43.99604" lon="7.17411">
        <ele>758.79998779297</ele>
        <time>2012-10-20T06:32:12.000Z</time>
      </trkpt>
      <trkpt lat="43.996" lon="7.17407">
        <ele>758.59997558594</ele>
        <time>2012-10-20T06:32:15.000Z</time>
      </trkpt>
      <trkpt lat="43.9959" lon="7.17404">
        <ele>765.79998779297</ele>
        <time>2012-10-20T06:32:19.000Z</time>
      </trkpt>
      <trkpt lat="43.99585" lon="7.17405">
        <ele>770.20001220703</ele>
        <time>2012-10-20T06:32:21.000Z</time>
      </trkpt>
      <trkpt lat="43.99572" lon="7.17402">
        <ele>769</ele>
        <time>2012-10-20T06:32:28.000Z</time>
      </trkpt>
      <trkpt lat="43.99571" lon="7.17401">
        <ele>768.40002441406</ele>
        <time>2012-10-20T06:32:30.000Z</time>
      </trkpt>
      <trkpt lat="43.99561" lon="7.17406">
        <ele>771.79998779297</ele>
        <time>2012-10-20T06:32:37.000Z</time>
      </trkpt>
      <trkpt lat="43.9956" lon="7.17407">
        <ele>772.40002441406</ele>
        <time>2012-10-20T06:32:38.000Z</time>
      </trkpt>
      <trkpt lat="43.99552" lon="7.17417">
        <ele>777.59997558594</ele>
        <time>2012-10-20T06:32:46.000Z</time>
      </trkpt>
      <trkpt lat="43.99544" lon="7.17427">
        <ele>782</ele>
        <time>2012-10-20T06:32:54.000Z</time>
      </trkpt>
      <trkpt lat="43.99543" lon="7.17429">
        <ele>782.79998779297</ele>
        <time>2012-10-20T06:32:56.000Z</time>
      </trkpt>
      <trkpt lat="43.99534" lon="7.1744">
        <ele>787.40002441406</ele>
        <time>2012-10-20T06:33:04.000Z</time>
      </trkpt>
      <trkpt lat="43.99526" lon="7.17448">
        <ele>791.20001220703</ele>
        <time>2012-10-20T06:33:10.000Z</time>
      </trkpt>
      <trkpt lat="43.9952" lon="7.17456">
        <ele>795</ele>
        <time>2012-10-20T06:33:16.000Z</time>
      </trkpt>
      <trkpt lat="43.99513" lon="7.17463">
        <ele>797.79998779297</ele>
        <time>2012-10-20T06:33:21.000Z</time>
      </trkpt>
      <trkpt lat="43.99508" lon="7.17472">
        <ele>802.40002441406</ele>
        <time>2012-10-20T06:33:27.000Z</time>
      </trkpt>
      <trkpt lat="43.99498" lon="7.17483">
        <ele>807.59997558594</ele>
        <time>2012-10-20T06:33:34.000Z</time>
      </trkpt>
      <trkpt lat="43.9949" lon="7.17489">
        <ele>809</ele>
        <time>2012-10-20T06:33:39.000Z</time>
      </trkpt>
      <trkpt lat="43.99476" lon="7.17496">
        <ele>809.79998779297</ele>
        <time>2012-10-20T06:33:45.000Z</time>
      </trkpt>
      <trkpt lat="43.99466" lon="7.17501">
        <ele>809.79998779297</ele>
        <time>2012-10-20T06:33:50.000Z</time>
      </trkpt>
      <trkpt lat="43.99457" lon="7.17506">
        <ele>810.59997558594</ele>
        <time>2012-10-20T06:33:56.000Z</time>
      </trkpt>
      <trkpt lat="43.99452" lon="7.17519">
        <ele>815.59997558594</ele>
        <time>2012-10-20T06:34:03.000Z</time>
      </trkpt>
      <trkpt lat="43.99448" lon="7.17534">
        <ele>821.40002441406</ele>
        <time>2012-10-20T06:34:11.000Z</time>
      </trkpt>
      <trkpt lat="43.99444" lon="7.17542">
        <ele>823.59997558594</ele>
        <time>2012-10-20T06:34:17.000Z</time>
      </trkpt>
      <trkpt lat="43.99437" lon="7.17547">
        <ele>823.59997558594</ele>
        <time>2012-10-20T06:34:24.000Z</time>
      </trkpt>
      <trkpt lat="43.9943" lon="7.17557">
        <ele>825.59997558594</ele>
        <time>2012-10-20T06:34:31.000Z</time>
      </trkpt>
      <trkpt lat="43.99429" lon="7.17559">
        <ele>826</ele>
        <time>2012-10-20T06:34:32.000Z</time>
      </trkpt>
      <trkpt lat="43.99422" lon="7.17563">
        <ele>825.20001220703</ele>
        <time>2012-10-20T06:34:39.000Z</time>
      </trkpt>
      <trkpt lat="43.99415" lon="7.17575">
        <ele>828.59997558594</ele>
        <time>2012-10-20T06:34:45.000Z</time>
      </trkpt>
      <trkpt lat="43.99407" lon="7.17583">
        <ele>834</ele>
        <time>2012-10-20T06:34:52.000Z</time>
      </trkpt>
      <trkpt lat="43.99398" lon="7.17582">
        <ele>837.59997558594</ele>
        <time>2012-10-20T06:34:59.000Z</time>
      </trkpt>
      <trkpt lat="43.99393" lon="7.17597">
        <ele>845</ele>
        <time>2012-10-20T06:35:06.000Z</time>
      </trkpt>
      <trkpt lat="43.9938" lon="7.1761">
        <ele>853</ele>
        <time>2012-10-20T06:35:14.000Z</time>
      </trkpt>
      <trkpt lat="43.99375" lon="7.17613">
        <ele>855</ele>
        <time>2012-10-20T06:35:19.000Z</time>
      </trkpt>
      <trkpt lat="43.99373" lon="7.17612">
        <ele>855</ele>
        <time>2012-10-20T06:35:23.000Z</time>
      </trkpt>
      <trkpt lat="43.99369" lon="7.17606">
        <ele>854.40002441406</ele>
        <time>2012-10-20T06:35:27.000Z</time>
      </trkpt>
      <trkpt lat="43.99367" lon="7.17601">
        <ele>853.59997558594</ele>
        <time>2012-10-20T06:35:29.000Z</time>
      </trkpt>
      <trkpt lat="43.99369" lon="7.17579">
        <ele>847.59997558594</ele>
        <time>2012-10-20T06:35:35.000Z</time>
      </trkpt>
      <trkpt lat="43.99372" lon="7.17571">
        <ele>845.20001220703</ele>
        <time>2012-10-20T06:35:37.000Z</time>
      </trkpt>
      <trkpt lat="43.99369" lon="7.17555">
        <ele>844</ele>
        <time>2012-10-20T06:35:43.000Z</time>
      </trkpt>
      <trkpt lat="43.99366" lon="7.17543">
        <ele>843.59997558594</ele>
        <time>2012-10-20T06:35:48.000Z</time>
      </trkpt>
      <trkpt lat="43.99369" lon="7.17526">
        <ele>839.20001220703</ele>
        <time>2012-10-20T06:35:53.000Z</time>
      </trkpt>
      <trkpt lat="43.99369" lon="7.1751">
        <ele>836.59997558594</ele>
        <time>2012-10-20T06:35:59.000Z</time>
      </trkpt>
      <trkpt lat="43.99364" lon="7.1749">
        <ele>838.59997558594</ele>
        <time>2012-10-20T06:36:08.000Z</time>
      </trkpt>
      <trkpt lat="43.99361" lon="7.17479">
        <ele>840.79998779297</ele>
        <time>2012-10-20T06:36:13.000Z</time>
      </trkpt>
      <trkpt lat="43.99356" lon="7.17469">
        <ele>844.40002441406</ele>
        <time>2012-10-20T06:36:19.000Z</time>
      </trkpt>
      <trkpt lat="43.99353" lon="7.17466">
        <ele>846.79998779297</ele>
        <time>2012-10-20T06:36:21.000Z</time>
      </trkpt>
      <trkpt lat="43.99351" lon="7.17462">
        <ele>848</ele>
        <time>2012-10-20T06:36:23.000Z</time>
      </trkpt>
      <trkpt lat="43.99351" lon="7.17455">
        <ele>847.59997558594</ele>
        <time>2012-10-20T06:36:28.000Z</time>
      </trkpt>
      <trkpt lat="43.99352" lon="7.1744">
        <ele>847.20001220703</ele>
        <time>2012-10-20T06:36:36.000Z</time>
      </trkpt>
      <trkpt lat="43.9935" lon="7.17425">
        <ele>848.59997558594</ele>
        <time>2012-10-20T06:36:42.000Z</time>
      </trkpt>
      <trkpt lat="43.9935" lon="7.17407">
        <ele>849.40002441406</ele>
        <time>2012-10-20T06:36:49.000Z</time>
      </trkpt>
      <trkpt lat="43.99352" lon="7.17392">
        <ele>849.20001220703</ele>
        <time>2012-10-20T06:36:54.000Z</time>
      </trkpt>
      <trkpt lat="43.99355" lon="7.17379">
        <ele>847.40002441406</ele>
        <time>2012-10-20T06:36:59.000Z</time>
      </trkpt>
      <trkpt lat="43.99355" lon="7.17379">
        <ele>847.40002441406</ele>
        <time>2012-10-20T06:36:59.000Z</time>
      </trkpt>
      <trkpt lat="43.99356" lon="7.17376">
        <ele>847.40002441406</ele>
        <time>2012-10-20T06:37:01.000Z</time>
      </trkpt>
      <trkpt lat="43.99362" lon="7.17359">
        <ele>843.20001220703</ele>
        <time>2012-10-20T06:37:09.000Z</time>
      </trkpt>
      <trkpt lat="43.99369" lon="7.17345">
        <ele>838.59997558594</ele>
        <time>2012-10-20T06:37:15.000Z</time>
      </trkpt>
      <trkpt lat="43.99368" lon="7.17334">
        <ele>840.79998779297</ele>
        <time>2012-10-20T06:37:20.000Z</time>
      </trkpt>
      <trkpt lat="43.99364" lon="7.17322">
        <ele>844</ele>
        <time>2012-10-20T06:37:26.000Z</time>
      </trkpt>
      <trkpt lat="43.99366" lon="7.17311">
        <ele>842</ele>
        <time>2012-10-20T06:37:30.000Z</time>
      </trkpt>
      <trkpt lat="43.99364" lon="7.17299">
        <ele>843.59997558594</ele>
        <time>2012-10-20T06:37:35.000Z</time>
      </trkpt>
      <trkpt lat="43.9936" lon="7.17289">
        <ele>847.79998779297</ele>
        <time>2012-10-20T06:37:39.000Z</time>
      </trkpt>
      <trkpt lat="43.99355" lon="7.1727">
        <ele>851.79998779297</ele>
        <time>2012-10-20T06:37:46.000Z</time>
      </trkpt>
      <trkpt lat="43.99353" lon="7.17264">
        <ele>854</ele>
        <time>2012-10-20T06:37:49.000Z</time>
      </trkpt>
      <trkpt lat="43.99355" lon="7.17248">
        <ele>852.40002441406</ele>
        <time>2012-10-20T06:37:56.000Z</time>
      </trkpt>
      <trkpt lat="43.99356" lon="7.17247">
        <ele>851</ele>
        <time>2012-10-20T06:37:57.000Z</time>
      </trkpt>
      <trkpt lat="43.99357" lon="7.17227">
        <ele>846.40002441406</ele>
        <time>2012-10-20T06:38:04.000Z</time>
      </trkpt>
      <trkpt lat="43.99357" lon="7.17223">
        <ele>846</ele>
        <time>2012-10-20T06:38:05.000Z</time>
      </trkpt>
      <trkpt lat="43.99356" lon="7.17207">
        <ele>844.40002441406</ele>
        <time>2012-10-20T06:38:11.000Z</time>
      </trkpt>
      <trkpt lat="43.99354" lon="7.17202">
        <ele>845.79998779297</ele>
        <time>2012-10-20T06:38:13.000Z</time>
      </trkpt>
      <trkpt lat="43.99345" lon="7.17185">
        <ele>850.20001220703</ele>
        <time>2012-10-20T06:38:21.000Z</time>
      </trkpt>
      <trkpt lat="43.99336" lon="7.17172">
        <ele>854.20001220703</ele>
        <time>2012-10-20T06:38:27.000Z</time>
      </trkpt>
      <trkpt lat="43.99334" lon="7.17162">
        <ele>852.40002441406</ele>
        <time>2012-10-20T06:38:31.000Z</time>
      </trkpt>
      <trkpt lat="43.99326" lon="7.1716">
        <ele>852.40002441406</ele>
        <time>2012-10-20T06:38:36.000Z</time>
      </trkpt>
      <trkpt lat="43.99311" lon="7.17164">
        <ele>855.79998779297</ele>
        <time>2012-10-20T06:38:43.000Z</time>
      </trkpt>
      <trkpt lat="43.99297" lon="7.17166">
        <ele>858.79998779297</ele>
        <time>2012-10-20T06:38:50.000Z</time>
      </trkpt>
      <trkpt lat="43.99287" lon="7.17167">
        <ele>860.20001220703</ele>
        <time>2012-10-20T06:38:56.000Z</time>
      </trkpt>
      <trkpt lat="43.9928" lon="7.17166">
        <ele>860</ele>
        <time>2012-10-20T06:39:01.000Z</time>
      </trkpt>
      <trkpt lat="43.99271" lon="7.17164">
        <ele>860.40002441406</ele>
        <time>2012-10-20T06:39:07.000Z</time>
      </trkpt>
      <trkpt lat="43.99259" lon="7.17166">
        <ele>862.59997558594</ele>
        <time>2012-10-20T06:39:14.000Z</time>
      </trkpt>
      <trkpt lat="43.99251" lon="7.17167">
        <ele>864.20001220703</ele>
        <time>2012-10-20T06:39:18.000Z</time>
      </trkpt>
      <trkpt lat="43.99242" lon="7.1717">
        <ele>864.20001220703</ele>
        <time>2012-10-20T06:39:23.000Z</time>
      </trkpt>
      <trkpt lat="43.99231" lon="7.17173">
        <ele>864.20001220703</ele>
        <time>2012-10-20T06:39:29.000Z</time>
      </trkpt>
      <trkpt lat="43.99219" lon="7.17181">
        <ele>866.20001220703</ele>
        <time>2012-10-20T06:39:36.000Z</time>
      </trkpt>
      <trkpt lat="43.99208" lon="7.17188">
        <ele>869</ele>
        <time>2012-10-20T06:39:43.000Z</time>
      </trkpt>
      <trkpt lat="43.99197" lon="7.17191">
        <ele>869.20001220703</ele>
        <time>2012-10-20T06:39:49.000Z</time>
      </trkpt>
      <trkpt lat="43.99187" lon="7.17194">
        <ele>869.40002441406</ele>
        <time>2012-10-20T06:39:55.000Z</time>
      </trkpt>
      <trkpt lat="43.99176" lon="7.17202">
        <ele>873</ele>
        <time>2012-10-20T06:40:02.000Z</time>
      </trkpt>
      <trkpt lat="43.99168" lon="7.17212">
        <ele>878.59997558594</ele>
        <time>2012-10-20T06:40:08.000Z</time>
      </trkpt>
      <trkpt lat="43.99158" lon="7.17224">
        <ele>884.40002441406</ele>
        <time>2012-10-20T06:40:15.000Z</time>
      </trkpt>
      <trkpt lat="43.9915" lon="7.17231">
        <ele>887</ele>
        <time>2012-10-20T06:40:20.000Z</time>
      </trkpt>
      <trkpt lat="43.9914" lon="7.1723">
        <ele>883.20001220703</ele>
        <time>2012-10-20T06:40:25.000Z</time>
      </trkpt>
      <trkpt lat="43.99135" lon="7.17225">
        <ele>878.40002441406</ele>
        <time>2012-10-20T06:40:28.000Z</time>
      </trkpt>
      <trkpt lat="43.99131" lon="7.17221">
        <ele>874.40002441406</ele>
        <time>2012-10-20T06:40:32.000Z</time>
      </trkpt>
      <trkpt lat="43.99121" lon="7.17223">
        <ele>873.40002441406</ele>
        <time>2012-10-20T06:40:37.000Z</time>
      </trkpt>
      <trkpt lat="43.99109" lon="7.17234">
        <ele>877</ele>
        <time>2012-10-20T06:40:44.000Z</time>
      </trkpt>
      <trkpt lat="43.99098" lon="7.17245">
        <ele>882</ele>
        <time>2012-10-20T06:40:50.000Z</time>
      </trkpt>
      <trkpt lat="43.99086" lon="7.1726">
        <ele>887</ele>
        <time>2012-10-20T06:40:55.000Z</time>
      </trkpt>
      <trkpt lat="43.99073" lon="7.1726">
        <ele>885.79998779297</ele>
        <time>2012-10-20T06:40:58.000Z</time>
      </trkpt>
      <trkpt lat="43.99054" lon="7.17263">
        <ele>885.79998779297</ele>
        <time>2012-10-20T06:41:03.000Z</time>
      </trkpt>
      <trkpt lat="43.99039" lon="7.17283">
        <ele>894</ele>
        <time>2012-10-20T06:41:08.000Z</time>
      </trkpt>
      <trkpt lat="43.99032" lon="7.17289">
        <ele>895.79998779297</ele>
        <time>2012-10-20T06:41:10.000Z</time>
      </trkpt>
      <trkpt lat="43.99017" lon="7.17306">
        <ele>901</ele>
        <time>2012-10-20T06:41:15.000Z</time>
      </trkpt>
      <trkpt lat="43.98997" lon="7.17306">
        <ele>899.20001220703</ele>
        <time>2012-10-20T06:41:20.000Z</time>
      </trkpt>
      <trkpt lat="43.98988" lon="7.17285">
        <ele>894.79998779297</ele>
        <time>2012-10-20T06:41:24.000Z</time>
      </trkpt>
      <trkpt lat="43.98997" lon="7.17273">
        <ele>886.59997558594</ele>
        <time>2012-10-20T06:41:27.000Z</time>
      </trkpt>
      <trkpt lat="43.99004" lon="7.17264">
        <ele>882.40002441406</ele>
        <time>2012-10-20T06:41:29.000Z</time>
      </trkpt>
      <trkpt lat="43.99001" lon="7.17245">
        <ele>874.79998779297</ele>
        <time>2012-10-20T06:41:33.000Z</time>
      </trkpt>
      <trkpt lat="43.9899" lon="7.17234">
        <ele>873.59997558594</ele>
        <time>2012-10-20T06:41:38.000Z</time>
      </trkpt>
      <trkpt lat="43.98988" lon="7.17233">
        <ele>874</ele>
        <time>2012-10-20T06:41:39.000Z</time>
      </trkpt>
      <trkpt lat="43.98974" lon="7.17225">
        <ele>875.40002441406</ele>
        <time>2012-10-20T06:41:46.000Z</time>
      </trkpt>
      <trkpt lat="43.98966" lon="7.17224">
        <ele>878</ele>
        <time>2012-10-20T06:41:51.000Z</time>
      </trkpt>
      <trkpt lat="43.98956" lon="7.17225">
        <ele>881.59997558594</ele>
        <time>2012-10-20T06:41:56.000Z</time>
      </trkpt>
      <trkpt lat="43.9895" lon="7.17227">
        <ele>885</ele>
        <time>2012-10-20T06:42:00.000Z</time>
      </trkpt>
      <trkpt lat="43.98947" lon="7.17229">
        <ele>886.40002441406</ele>
        <time>2012-10-20T06:42:03.000Z</time>
      </trkpt>
      <trkpt lat="43.98935" lon="7.17237">
        <ele>894</ele>
        <time>2012-10-20T06:42:08.000Z</time>
      </trkpt>
      <trkpt lat="43.98921" lon="7.17231">
        <ele>896.40002441406</ele>
        <time>2012-10-20T06:42:12.000Z</time>
      </trkpt>
      <trkpt lat="43.98911" lon="7.17224">
        <ele>896.59997558594</ele>
        <time>2012-10-20T06:42:17.000Z</time>
      </trkpt>
      <trkpt lat="43.98901" lon="7.1722">
        <ele>898</ele>
        <time>2012-10-20T06:42:21.000Z</time>
      </trkpt>
      <trkpt lat="43.98886" lon="7.1722">
        <ele>902.20001220703</ele>
        <time>2012-10-20T06:42:26.000Z</time>
      </trkpt>
      <trkpt lat="43.98867" lon="7.17228">
        <ele>909.20001220703</ele>
        <time>2012-10-20T06:42:31.000Z</time>
      </trkpt>
      <trkpt lat="43.98864" lon="7.17226">
        <ele>909.59997558594</ele>
        <time>2012-10-20T06:42:32.000Z</time>
      </trkpt>
      <trkpt lat="43.98864" lon="7.17212">
        <ele>906.40002441406</ele>
        <time>2012-10-20T06:42:35.000Z</time>
      </trkpt>
      <trkpt lat="43.98862" lon="7.17183">
        <ele>900.79998779297</ele>
        <time>2012-10-20T06:42:40.000Z</time>
      </trkpt>
      <trkpt lat="43.98862" lon="7.17142">
        <ele>901</ele>
        <time>2012-10-20T06:42:45.000Z</time>
      </trkpt>
      <trkpt lat="43.98873" lon="7.17132">
        <ele>896.40002441406</ele>
        <time>2012-10-20T06:42:48.000Z</time>
      </trkpt>
      <trkpt lat="43.98882" lon="7.17118">
        <ele>893.20001220703</ele>
        <time>2012-10-20T06:42:52.000Z</time>
      </trkpt>
      <trkpt lat="43.98884" lon="7.17114">
        <ele>892.20001220703</ele>
        <time>2012-10-20T06:42:54.000Z</time>
      </trkpt>
      <trkpt lat="43.98892" lon="7.17094">
        <ele>889.40002441406</ele>
        <time>2012-10-20T06:43:00.000Z</time>
      </trkpt>
      <trkpt lat="43.98894" lon="7.17091">
        <ele>888.79998779297</ele>
        <time>2012-10-20T06:43:01.000Z</time>
      </trkpt>
      <trkpt lat="43.98908" lon="7.17069">
        <ele>885.20001220703</ele>
        <time>2012-10-20T06:43:08.000Z</time>
      </trkpt>
      <trkpt lat="43.98909" lon="7.17066">
        <ele>885.40002441406</ele>
        <time>2012-10-20T06:43:09.000Z</time>
      </trkpt>
      <trkpt lat="43.98915" lon="7.17045">
        <ele>887.59997558594</ele>
        <time>2012-10-20T06:43:15.000Z</time>
      </trkpt>
      <trkpt lat="43.98918" lon="7.17038">
        <ele>887.79998779297</ele>
        <time>2012-10-20T06:43:17.000Z</time>
      </trkpt>
      <trkpt lat="43.98922" lon="7.1703">
        <ele>888.20001220703</ele>
        <time>2012-10-20T06:43:19.000Z</time>
      </trkpt>
      <trkpt lat="43.98922" lon="7.1703">
        <ele>888.20001220703</ele>
        <time>2012-10-20T06:43:19.000Z</time>
      </trkpt>
      <trkpt lat="43.98931" lon="7.17014">
        <ele>888.40002441406</ele>
        <time>2012-10-20T06:43:25.000Z</time>
      </trkpt>
      <trkpt lat="43.98941" lon="7.16999">
        <ele>887.59997558594</ele>
        <time>2012-10-20T06:43:31.000Z</time>
      </trkpt>
      <trkpt lat="43.98951" lon="7.16982">
        <ele>887.59997558594</ele>
        <time>2012-10-20T06:43:37.000Z</time>
      </trkpt>
      <trkpt lat="43.9896" lon="7.16971">
        <ele>886.20001220703</ele>
        <time>2012-10-20T06:43:42.000Z</time>
      </trkpt>
      <trkpt lat="43.98969" lon="7.16954">
        <ele>886.59997558594</ele>
        <time>2012-10-20T06:43:49.000Z</time>
      </trkpt>
      <trkpt lat="43.98973" lon="7.16935">
        <ele>890.79998779297</ele>
        <time>2012-10-20T06:43:56.000Z</time>
      </trkpt>
      <trkpt lat="43.98975" lon="7.16918">
        <ele>895</ele>
        <time>2012-10-20T06:44:02.000Z</time>
      </trkpt>
      <trkpt lat="43.98978" lon="7.16902">
        <ele>897.20001220703</ele>
        <time>2012-10-20T06:44:08.000Z</time>
      </trkpt>
      <trkpt lat="43.98979" lon="7.16885">
        <ele>900.59997558594</ele>
        <time>2012-10-20T06:44:14.000Z</time>
      </trkpt>
      <trkpt lat="43.98981" lon="7.16878">
        <ele>901.20001220703</ele>
        <time>2012-10-20T06:44:16.000Z</time>
      </trkpt>
      <trkpt lat="43.98989" lon="7.16861">
        <ele>900</ele>
        <time>2012-10-20T06:44:22.000Z</time>
      </trkpt>
      <trkpt lat="43.98996" lon="7.16842">
        <ele>899.79998779297</ele>
        <time>2012-10-20T06:44:28.000Z</time>
      </trkpt>
      <trkpt lat="43.99003" lon="7.16821">
        <ele>901.59997558594</ele>
        <time>2012-10-20T06:44:35.000Z</time>
      </trkpt>
      <trkpt lat="43.99007" lon="7.16807">
        <ele>903.79998779297</ele>
        <time>2012-10-20T06:44:40.000Z</time>
      </trkpt>
      <trkpt lat="43.99016" lon="7.16795">
        <ele>903.59997558594</ele>
        <time>2012-10-20T06:44:45.000Z</time>
      </trkpt>
      <trkpt lat="43.99028" lon="7.16782">
        <ele>901.59997558594</ele>
        <time>2012-10-20T06:44:51.000Z</time>
      </trkpt>
      <trkpt lat="43.99041" lon="7.16763">
        <ele>901</ele>
        <time>2012-10-20T06:44:58.000Z</time>
      </trkpt>
      <trkpt lat="43.99053" lon="7.16748">
        <ele>900.20001220703</ele>
        <time>2012-10-20T06:45:05.000Z</time>
      </trkpt>
      <trkpt lat="43.99061" lon="7.16731">
        <ele>900</ele>
        <time>2012-10-20T06:45:12.000Z</time>
      </trkpt>
      <trkpt lat="43.99065" lon="7.16715">
        <ele>901.59997558594</ele>
        <time>2012-10-20T06:45:17.000Z</time>
      </trkpt>
      <trkpt lat="43.99071" lon="7.16698">
        <ele>902.59997558594</ele>
        <time>2012-10-20T06:45:23.000Z</time>
      </trkpt>
      <trkpt lat="43.99075" lon="7.16682">
        <ele>904</ele>
        <time>2012-10-20T06:45:29.000Z</time>
      </trkpt>
      <trkpt lat="43.99079" lon="7.16668">
        <ele>905.20001220703</ele>
        <time>2012-10-20T06:45:36.000Z</time>
      </trkpt>
      <trkpt lat="43.99079" lon="7.16655">
        <ele>904</ele>
        <time>2012-10-20T06:45:42.000Z</time>
      </trkpt>
      <trkpt lat="43.9908" lon="7.1664">
        <ele>902.40002441406</ele>
        <time>2012-10-20T06:45:49.000Z</time>
      </trkpt>
      <trkpt lat="43.99075" lon="7.16625">
        <ele>903.79998779297</ele>
        <time>2012-10-20T06:45:57.000Z</time>
      </trkpt>
      <trkpt lat="43.9907" lon="7.16613">
        <ele>905.20001220703</ele>
        <time>2012-10-20T06:46:03.000Z</time>
      </trkpt>
      <trkpt lat="43.99066" lon="7.16598">
        <ele>906.40002441406</ele>
        <time>2012-10-20T06:46:10.000Z</time>
      </trkpt>
      <trkpt lat="43.99059" lon="7.16581">
        <ele>908.59997558594</ele>
        <time>2012-10-20T06:46:18.000Z</time>
      </trkpt>
      <trkpt lat="43.99052" lon="7.16569">
        <ele>909.20001220703</ele>
        <time>2012-10-20T06:46:25.000Z</time>
      </trkpt>
      <trkpt lat="43.99044" lon="7.16562">
        <ele>911.59997558594</ele>
        <time>2012-10-20T06:46:32.000Z</time>
      </trkpt>
      <trkpt lat="43.99036" lon="7.16556">
        <ele>914.59997558594</ele>
        <time>2012-10-20T06:46:38.000Z</time>
      </trkpt>
      <trkpt lat="43.99024" lon="7.1655">
        <ele>918.79998779297</ele>
        <time>2012-10-20T06:46:45.000Z</time>
      </trkpt>
      <trkpt lat="43.99015" lon="7.16545">
        <ele>922.40002441406</ele>
        <time>2012-10-20T06:46:51.000Z</time>
      </trkpt>
      <trkpt lat="43.99011" lon="7.16541">
        <ele>923.59997558594</ele>
        <time>2012-10-20T06:46:55.000Z</time>
      </trkpt>
      <trkpt lat="43.99003" lon="7.16529">
        <ele>924.20001220703</ele>
        <time>2012-10-20T06:47:01.000Z</time>
      </trkpt>
      <trkpt lat="43.98998" lon="7.16517">
        <ele>923.59997558594</ele>
        <time>2012-10-20T06:47:07.000Z</time>
      </trkpt>
      <trkpt lat="43.9899" lon="7.16506">
        <ele>924.79998779297</ele>
        <time>2012-10-20T06:47:14.000Z</time>
      </trkpt>
      <trkpt lat="43.98982" lon="7.16497">
        <ele>927.20001220703</ele>
        <time>2012-10-20T06:47:21.000Z</time>
      </trkpt>
      <trkpt lat="43.98974" lon="7.16491">
        <ele>929.79998779297</ele>
        <time>2012-10-20T06:47:27.000Z</time>
      </trkpt>
      <trkpt lat="43.98966" lon="7.16485">
        <ele>933.59997558594</ele>
        <time>2012-10-20T06:47:33.000Z</time>
      </trkpt>
      <trkpt lat="43.98956" lon="7.1648">
        <ele>938.79998779297</ele>
        <time>2012-10-20T06:47:39.000Z</time>
      </trkpt>
      <trkpt lat="43.98944" lon="7.16473">
        <ele>944.59997558594</ele>
        <time>2012-10-20T06:47:46.000Z</time>
      </trkpt>
      <trkpt lat="43.98935" lon="7.16464">
        <ele>948.59997558594</ele>
        <time>2012-10-20T06:47:52.000Z</time>
      </trkpt>
      <trkpt lat="43.98927" lon="7.16451">
        <ele>951.79998779297</ele>
        <time>2012-10-20T06:47:59.000Z</time>
      </trkpt>
      <trkpt lat="43.98923" lon="7.16442">
        <ele>952.59997558594</ele>
        <time>2012-10-20T06:48:04.000Z</time>
      </trkpt>
      <trkpt lat="43.98922" lon="7.1643">
        <ele>951.40002441406</ele>
        <time>2012-10-20T06:48:10.000Z</time>
      </trkpt>
      <trkpt lat="43.98922" lon="7.16415">
        <ele>948.79998779297</ele>
        <time>2012-10-20T06:48:16.000Z</time>
      </trkpt>
      <trkpt lat="43.98924" lon="7.16409">
        <ele>947.40002441406</ele>
        <time>2012-10-20T06:48:18.000Z</time>
      </trkpt>
      <trkpt lat="43.98924" lon="7.16399">
        <ele>947</ele>
        <time>2012-10-20T06:48:22.000Z</time>
      </trkpt>
      <trkpt lat="43.98927" lon="7.16382">
        <ele>944</ele>
        <time>2012-10-20T06:48:28.000Z</time>
      </trkpt>
      <trkpt lat="43.98928" lon="7.16367">
        <ele>942.40002441406</ele>
        <time>2012-10-20T06:48:33.000Z</time>
      </trkpt>
      <trkpt lat="43.98929" lon="7.16352">
        <ele>941.20001220703</ele>
        <time>2012-10-20T06:48:39.000Z</time>
      </trkpt>
      <trkpt lat="43.98928" lon="7.16336">
        <ele>940.79998779297</ele>
        <time>2012-10-20T06:48:45.000Z</time>
      </trkpt>
      <trkpt lat="43.98922" lon="7.1632">
        <ele>943.79998779297</ele>
        <time>2012-10-20T06:48:52.000Z</time>
      </trkpt>
      <trkpt lat="43.98917" lon="7.16307">
        <ele>946</ele>
        <time>2012-10-20T06:48:58.000Z</time>
      </trkpt>
      <trkpt lat="43.98916" lon="7.16302">
        <ele>946.20001220703</ele>
        <time>2012-10-20T06:49:00.000Z</time>
      </trkpt>
      <trkpt lat="43.98912" lon="7.16286">
        <ele>947.59997558594</ele>
        <time>2012-10-20T06:49:07.000Z</time>
      </trkpt>
      <trkpt lat="43.98907" lon="7.16272">
        <ele>949.20001220703</ele>
        <time>2012-10-20T06:49:13.000Z</time>
      </trkpt>
      <trkpt lat="43.98905" lon="7.16259">
        <ele>949</ele>
        <time>2012-10-20T06:49:18.000Z</time>
      </trkpt>
      <trkpt lat="43.989" lon="7.16243">
        <ele>949.79998779297</ele>
        <time>2012-10-20T06:49:25.000Z</time>
      </trkpt>
      <trkpt lat="43.98897" lon="7.16221">
        <ele>948.40002441406</ele>
        <time>2012-10-20T06:49:33.000Z</time>
      </trkpt>
      <trkpt lat="43.98893" lon="7.16208">
        <ele>948.40002441406</ele>
        <time>2012-10-20T06:49:38.000Z</time>
      </trkpt>
      <trkpt lat="43.98888" lon="7.16194">
        <ele>949</ele>
        <time>2012-10-20T06:49:43.000Z</time>
      </trkpt>
      <trkpt lat="43.98882" lon="7.16178">
        <ele>949.40002441406</ele>
        <time>2012-10-20T06:49:49.000Z</time>
      </trkpt>
      <trkpt lat="43.98877" lon="7.16164">
        <ele>949.59997558594</ele>
        <time>2012-10-20T06:49:55.000Z</time>
      </trkpt>
      <trkpt lat="43.98872" lon="7.16152">
        <ele>949</ele>
        <time>2012-10-20T06:50:00.000Z</time>
      </trkpt>
      <trkpt lat="43.98869" lon="7.16141">
        <ele>948.40002441406</ele>
        <time>2012-10-20T06:50:05.000Z</time>
      </trkpt>
      <trkpt lat="43.98863" lon="7.16126">
        <ele>947</ele>
        <time>2012-10-20T06:50:12.000Z</time>
      </trkpt>
      <trkpt lat="43.98853" lon="7.16113">
        <ele>947.79998779297</ele>
        <time>2012-10-20T06:50:20.000Z</time>
      </trkpt>
      <trkpt lat="43.98844" lon="7.16107">
        <ele>949.59997558594</ele>
        <time>2012-10-20T06:50:27.000Z</time>
      </trkpt>
      <trkpt lat="43.98836" lon="7.16105">
        <ele>952</ele>
        <time>2012-10-20T06:50:33.000Z</time>
      </trkpt>
      <trkpt lat="43.98827" lon="7.16103">
        <ele>952.59997558594</ele>
        <time>2012-10-20T06:50:39.000Z</time>
      </trkpt>
      <trkpt lat="43.98823" lon="7.16103">
        <ele>953.20001220703</ele>
        <time>2012-10-20T06:50:43.000Z</time>
      </trkpt>
      <trkpt lat="43.98813" lon="7.16108">
        <ele>955.79998779297</ele>
        <time>2012-10-20T06:50:49.000Z</time>
      </trkpt>
      <trkpt lat="43.988" lon="7.16116">
        <ele>959.79998779297</ele>
        <time>2012-10-20T06:50:56.000Z</time>
      </trkpt>
      <trkpt lat="43.98789" lon="7.16122">
        <ele>963.20001220703</ele>
        <time>2012-10-20T06:51:03.000Z</time>
      </trkpt>
      <trkpt lat="43.9878" lon="7.16124">
        <ele>965</ele>
        <time>2012-10-20T06:51:09.000Z</time>
      </trkpt>
      <trkpt lat="43.98773" lon="7.16125">
        <ele>966.40002441406</ele>
        <time>2012-10-20T06:51:13.000Z</time>
      </trkpt>
      <trkpt lat="43.98771" lon="7.16125">
        <ele>966.59997558594</ele>
        <time>2012-10-20T06:51:14.000Z</time>
      </trkpt>
      <trkpt lat="43.98771" lon="7.16125">
        <ele>966.59997558594</ele>
        <time>2012-10-20T06:51:14.000Z</time>
      </trkpt>
      <trkpt lat="43.98759" lon="7.16123">
        <ele>967</ele>
        <time>2012-10-20T06:51:22.000Z</time>
      </trkpt>
      <trkpt lat="43.98749" lon="7.16121">
        <ele>967.20001220703</ele>
        <time>2012-10-20T06:51:28.000Z</time>
      </trkpt>
      <trkpt lat="43.98741" lon="7.16119">
        <ele>968.40002441406</ele>
        <time>2012-10-20T06:51:33.000Z</time>
      </trkpt>
      <trkpt lat="43.98739" lon="7.16119">
        <ele>968.59997558594</ele>
        <time>2012-10-20T06:51:34.000Z</time>
      </trkpt>
      <trkpt lat="43.98733" lon="7.16116">
        <ele>969.20001220703</ele>
        <time>2012-10-20T06:51:38.000Z</time>
      </trkpt>
      <trkpt lat="43.98725" lon="7.16111">
        <ele>969</ele>
        <time>2012-10-20T06:51:44.000Z</time>
      </trkpt>
      <trkpt lat="43.98716" lon="7.1611">
        <ele>970.20001220703</ele>
        <time>2012-10-20T06:51:50.000Z</time>
      </trkpt>
      <trkpt lat="43.98705" lon="7.16105">
        <ele>971.20001220703</ele>
        <time>2012-10-20T06:51:57.000Z</time>
      </trkpt>
      <trkpt lat="43.98694" lon="7.16099">
        <ele>971.20001220703</ele>
        <time>2012-10-20T06:52:03.000Z</time>
      </trkpt>
      <trkpt lat="43.98683" lon="7.16093">
        <ele>971</ele>
        <time>2012-10-20T06:52:10.000Z</time>
      </trkpt>
      <trkpt lat="43.9867" lon="7.16083">
        <ele>970</ele>
        <time>2012-10-20T06:52:18.000Z</time>
      </trkpt>
      <trkpt lat="43.98662" lon="7.16078">
        <ele>970.59997558594</ele>
        <time>2012-10-20T06:52:23.000Z</time>
      </trkpt>
      <trkpt lat="43.98652" lon="7.16072">
        <ele>971.20001220703</ele>
        <time>2012-10-20T06:52:30.000Z</time>
      </trkpt>
      <trkpt lat="43.98642" lon="7.16066">
        <ele>972</ele>
        <time>2012-10-20T06:52:36.000Z</time>
      </trkpt>
      <trkpt lat="43.98631" lon="7.1606">
        <ele>973</ele>
        <time>2012-10-20T06:52:44.000Z</time>
      </trkpt>
      <trkpt lat="43.9863" lon="7.16059">
        <ele>972.79998779297</ele>
        <time>2012-10-20T06:52:45.000Z</time>
      </trkpt>
      <trkpt lat="43.98623" lon="7.16054">
        <ele>973.79998779297</ele>
        <time>2012-10-20T06:52:51.000Z</time>
      </trkpt>
      <trkpt lat="43.98615" lon="7.1605">
        <ele>974.59997558594</ele>
        <time>2012-10-20T06:52:57.000Z</time>
      </trkpt>
      <trkpt lat="43.98606" lon="7.16046">
        <ele>976.20001220703</ele>
        <time>2012-10-20T06:53:02.000Z</time>
      </trkpt>
      <trkpt lat="43.98596" lon="7.16039">
        <ele>977</ele>
        <time>2012-10-20T06:53:10.000Z</time>
      </trkpt>
      <trkpt lat="43.98585" lon="7.16032">
        <ele>978.59997558594</ele>
        <time>2012-10-20T06:53:18.000Z</time>
      </trkpt>
      <trkpt lat="43.98575" lon="7.16031">
        <ele>976.20001220703</ele>
        <time>2012-10-20T06:53:25.000Z</time>
      </trkpt>
      <trkpt lat="43.98563" lon="7.16028">
        <ele>972.59997558594</ele>
        <time>2012-10-20T06:53:32.000Z</time>
      </trkpt>
      <trkpt lat="43.98553" lon="7.16024">
        <ele>969.20001220703</ele>
        <time>2012-10-20T06:53:39.000Z</time>
      </trkpt>
      <trkpt lat="43.98538" lon="7.16027">
        <ele>966</ele>
        <time>2012-10-20T06:53:48.000Z</time>
      </trkpt>
      <trkpt lat="43.98529" lon="7.16032">
        <ele>964.40002441406</ele>
        <time>2012-10-20T06:53:55.000Z</time>
      </trkpt>
      <trkpt lat="43.9852" lon="7.16034">
        <ele>962.40002441406</ele>
        <time>2012-10-20T06:54:02.000Z</time>
      </trkpt>
      <trkpt lat="43.98518" lon="7.16033">
        <ele>961.59997558594</ele>
        <time>2012-10-20T06:54:19.000Z</time>
      </trkpt>
      <trkpt lat="43.98519" lon="7.16036">
        <ele>962.20001220703</ele>
        <time>2012-10-20T06:54:26.000Z</time>
      </trkpt>
      <trkpt lat="43.98519" lon="7.16036">
        <ele>962.40002441406</ele>
        <time>2012-10-20T06:54:33.000Z</time>
      </trkpt>
      <trkpt lat="43.98519" lon="7.16036">
        <ele>962.20001220703</ele>
        <time>2012-10-20T06:54:40.000Z</time>
      </trkpt>
      <trkpt lat="43.98516" lon="7.16033">
        <ele>961.20001220703</ele>
        <time>2012-10-20T06:54:49.000Z</time>
      </trkpt>
      <trkpt lat="43.98512" lon="7.1603">
        <ele>959.79998779297</ele>
        <time>2012-10-20T06:54:56.000Z</time>
      </trkpt>
      <trkpt lat="43.98513" lon="7.16027">
        <ele>960</ele>
        <time>2012-10-20T06:55:23.000Z</time>
      </trkpt>
      <trkpt lat="43.98515" lon="7.16028">
        <ele>960.40002441406</ele>
        <time>2012-10-20T06:55:29.000Z</time>
      </trkpt>
      <trkpt lat="43.98517" lon="7.16027">
        <ele>960.79998779297</ele>
        <time>2012-10-20T06:55:48.000Z</time>
      </trkpt>
      <trkpt lat="43.98516" lon="7.16027">
        <ele>960.79998779297</ele>
        <time>2012-10-20T06:56:07.000Z</time>
      </trkpt>
      <trkpt lat="43.98516" lon="7.16027">
        <ele>960.59997558594</ele>
        <time>2012-10-20T06:56:17.000Z</time>
      </trkpt>
      <trkpt lat="43.98515" lon="7.16025">
        <ele>960.40002441406</ele>
        <time>2012-10-20T06:56:37.000Z</time>
      </trkpt>
      <trkpt lat="43.98516" lon="7.16026">
        <ele>960.59997558594</ele>
        <time>2012-10-20T06:57:12.000Z</time>
      </trkpt>
      <trkpt lat="43.98516" lon="7.16029">
        <ele>960.79998779297</ele>
        <time>2012-10-20T06:57:56.000Z</time>
      </trkpt>
      <trkpt lat="43.98517" lon="7.16028">
        <ele>961</ele>
        <time>2012-10-20T06:58:25.000Z</time>
      </trkpt>
      <trkpt lat="43.98517" lon="7.16026">
        <ele>960.79998779297</ele>
        <time>2012-10-20T06:58:45.000Z</time>
      </trkpt>
      <trkpt lat="43.98515" lon="7.16033">
        <ele>960.79998779297</ele>
        <time>2012-10-20T06:59:06.000Z</time>
      </trkpt>
      <trkpt lat="43.98517" lon="7.16035">
        <ele>961.59997558594</ele>
        <time>2012-10-20T06:59:19.000Z</time>
      </trkpt>
      <trkpt lat="43.9852" lon="7.16039">
        <ele>962.79998779297</ele>
        <time>2012-10-20T06:59:41.000Z</time>
      </trkpt>
      <trkpt lat="43.9852" lon="7.16038">
        <ele>962.59997558594</ele>
        <time>2012-10-20T07:00:16.000Z</time>
      </trkpt>
      <trkpt lat="43.98524" lon="7.16032">
        <ele>963.20001220703</ele>
        <time>2012-10-20T07:00:22.000Z</time>
      </trkpt>
      <trkpt lat="43.98525" lon="7.1603">
        <ele>963.20001220703</ele>
        <time>2012-10-20T07:00:23.000Z</time>
      </trkpt>
      <trkpt lat="43.98532" lon="7.16024">
        <ele>964.20001220703</ele>
        <time>2012-10-20T07:00:31.000Z</time>
      </trkpt>
      <trkpt lat="43.98541" lon="7.16019">
        <ele>965.40002441406</ele>
        <time>2012-10-20T07:00:39.000Z</time>
      </trkpt>
      <trkpt lat="43.98545" lon="7.16018">
        <ele>966.20001220703</ele>
        <time>2012-10-20T07:00:43.000Z</time>
      </trkpt>
      <trkpt lat="43.98544" lon="7.16024">
        <ele>967.20001220703</ele>
        <time>2012-10-20T07:00:52.000Z</time>
      </trkpt>
      <trkpt lat="43.98543" lon="7.16028">
        <ele>967.59997558594</ele>
        <time>2012-10-20T07:00:58.000Z</time>
      </trkpt>
      <trkpt lat="43.9854" lon="7.16033">
        <ele>967.59997558594</ele>
        <time>2012-10-20T07:01:05.000Z</time>
      </trkpt>
      <trkpt lat="43.98539" lon="7.16041">
        <ele>968.59997558594</ele>
        <time>2012-10-20T07:01:15.000Z</time>
      </trkpt>
      <trkpt lat="43.9854" lon="7.16046">
        <ele>969.79998779297</ele>
        <time>2012-10-20T07:01:23.000Z</time>
      </trkpt>
      <trkpt lat="43.98541" lon="7.16048">
        <ele>970.40002441406</ele>
        <time>2012-10-20T07:01:29.000Z</time>
      </trkpt>
      <trkpt lat="43.98543" lon="7.16052">
        <ele>971.59997558594</ele>
        <time>2012-10-20T07:01:36.000Z</time>
      </trkpt>
      <trkpt lat="43.98544" lon="7.16055">
        <ele>972.40002441406</ele>
        <time>2012-10-20T07:01:43.000Z</time>
      </trkpt>
      <trkpt lat="43.98546" lon="7.16058">
        <ele>973.79998779297</ele>
        <time>2012-10-20T07:01:50.000Z</time>
      </trkpt>
      <trkpt lat="43.98547" lon="7.1606">
        <ele>974.59997558594</ele>
        <time>2012-10-20T07:01:57.000Z</time>
      </trkpt>
      <trkpt lat="43.98549" lon="7.16063">
        <ele>976</ele>
        <time>2012-10-20T07:02:05.000Z</time>
      </trkpt>
      <trkpt lat="43.98551" lon="7.16066">
        <ele>977.20001220703</ele>
        <time>2012-10-20T07:02:11.000Z</time>
      </trkpt>
      <trkpt lat="43.98555" lon="7.1607">
        <ele>979.40002441406</ele>
        <time>2012-10-20T07:02:20.000Z</time>
      </trkpt>
      <trkpt lat="43.98557" lon="7.16075">
        <ele>981.40002441406</ele>
        <time>2012-10-20T07:02:28.000Z</time>
      </trkpt>
      <trkpt lat="43.98559" lon="7.16078">
        <ele>982.79998779297</ele>
        <time>2012-10-20T07:02:33.000Z</time>
      </trkpt>
      <trkpt lat="43.98563" lon="7.16083">
        <ele>985.79998779297</ele>
        <time>2012-10-20T07:02:43.000Z</time>
      </trkpt>
      <trkpt lat="43.98565" lon="7.16088">
        <ele>988</ele>
        <time>2012-10-20T07:02:51.000Z</time>
      </trkpt>
      <trkpt lat="43.98568" lon="7.16093">
        <ele>990.59997558594</ele>
        <time>2012-10-20T07:03:00.000Z</time>
      </trkpt>
      <trkpt lat="43.9857" lon="7.16096">
        <ele>992.20001220703</ele>
        <time>2012-10-20T07:03:12.000Z</time>
      </trkpt>
      <trkpt lat="43.98572" lon="7.16099">
        <ele>993.59997558594</ele>
        <time>2012-10-20T07:03:22.000Z</time>
      </trkpt>
      <trkpt lat="43.98574" lon="7.16103">
        <ele>995.40002441406</ele>
        <time>2012-10-20T07:03:28.000Z</time>
      </trkpt>
      <trkpt lat="43.98575" lon="7.16109">
        <ele>997.59997558594</ele>
        <time>2012-10-20T07:03:35.000Z</time>
      </trkpt>
      <trkpt lat="43.98577" lon="7.16116">
        <ele>1000</ele>
        <time>2012-10-20T07:03:44.000Z</time>
      </trkpt>
      <trkpt lat="43.98579" lon="7.16122">
        <ele>1002.799987793</ele>
        <time>2012-10-20T07:03:52.000Z</time>
      </trkpt>
      <trkpt lat="43.98581" lon="7.16128">
        <ele>1005.4000244141</ele>
        <time>2012-10-20T07:04:00.000Z</time>
      </trkpt>
      <trkpt lat="43.98582" lon="7.16137">
        <ele>1008.5999755859</ele>
        <time>2012-10-20T07:04:09.000Z</time>
      </trkpt>
      <trkpt lat="43.98583" lon="7.16142">
        <ele>1010.4000244141</ele>
        <time>2012-10-20T07:04:16.000Z</time>
      </trkpt>
      <trkpt lat="43.98584" lon="7.16148">
        <ele>1012</ele>
        <time>2012-10-20T07:04:24.000Z</time>
      </trkpt>
      <trkpt lat="43.98585" lon="7.16154">
        <ele>1013.4000244141</ele>
        <time>2012-10-20T07:04:31.000Z</time>
      </trkpt>
      <trkpt lat="43.98587" lon="7.16161">
        <ele>1015.200012207</ele>
        <time>2012-10-20T07:04:39.000Z</time>
      </trkpt>
      <trkpt lat="43.98588" lon="7.16167">
        <ele>1016.5999755859</ele>
        <time>2012-10-20T07:04:46.000Z</time>
      </trkpt>
      <trkpt lat="43.98589" lon="7.16172">
        <ele>1017.200012207</ele>
        <time>2012-10-20T07:04:53.000Z</time>
      </trkpt>
      <trkpt lat="43.98591" lon="7.16177">
        <ele>1017.799987793</ele>
        <time>2012-10-20T07:05:00.000Z</time>
      </trkpt>
      <trkpt lat="43.98593" lon="7.16184">
        <ele>1018.5999755859</ele>
        <time>2012-10-20T07:05:07.000Z</time>
      </trkpt>
      <trkpt lat="43.98596" lon="7.16194">
        <ele>1019.799987793</ele>
        <time>2012-10-20T07:05:16.000Z</time>
      </trkpt>
      <trkpt lat="43.98597" lon="7.16196">
        <ele>1020</ele>
        <time>2012-10-20T07:05:23.000Z</time>
      </trkpt>
      <trkpt lat="43.98599" lon="7.16201">
        <ele>1020.799987793</ele>
        <time>2012-10-20T07:05:30.000Z</time>
      </trkpt>
      <trkpt lat="43.98602" lon="7.1621">
        <ele>1022</ele>
        <time>2012-10-20T07:05:36.000Z</time>
      </trkpt>
      <trkpt lat="43.98607" lon="7.16221">
        <ele>1024</ele>
        <time>2012-10-20T07:05:45.000Z</time>
      </trkpt>
      <trkpt lat="43.98611" lon="7.16229">
        <ele>1025.5999755859</ele>
        <time>2012-10-20T07:05:53.000Z</time>
      </trkpt>
      <trkpt lat="43.9861" lon="7.16231">
        <ele>1025.8000488281</ele>
        <time>2012-10-20T07:05:59.000Z</time>
      </trkpt>
      <trkpt lat="43.9861" lon="7.16232">
        <ele>1026</ele>
        <time>2012-10-20T07:06:14.000Z</time>
      </trkpt>
      <trkpt lat="43.9861" lon="7.16235">
        <ele>1026.5999755859</ele>
        <time>2012-10-20T07:06:48.000Z</time>
      </trkpt>
      <trkpt lat="43.98612" lon="7.16235">
        <ele>1026.8000488281</ele>
        <time>2012-10-20T07:07:10.000Z</time>
      </trkpt>
      <trkpt lat="43.9861" lon="7.16234">
        <ele>1026.4000244141</ele>
        <time>2012-10-20T07:07:56.000Z</time>
      </trkpt>
      <trkpt lat="43.98615" lon="7.16242">
        <ele>1028.1999511719</ele>
        <time>2012-10-20T07:08:01.000Z</time>
      </trkpt>
      <trkpt lat="43.98624" lon="7.16254">
        <ele>1030.4000244141</ele>
        <time>2012-10-20T07:08:08.000Z</time>
      </trkpt>
      <trkpt lat="43.98634" lon="7.16267">
        <ele>1031.1999511719</ele>
        <time>2012-10-20T07:08:15.000Z</time>
      </trkpt>
      <trkpt lat="43.98645" lon="7.16278">
        <ele>1033</ele>
        <time>2012-10-20T07:08:22.000Z</time>
      </trkpt>
      <trkpt lat="43.98654" lon="7.16285">
        <ele>1034.8000488281</ele>
        <time>2012-10-20T07:08:28.000Z</time>
      </trkpt>
      <trkpt lat="43.98663" lon="7.16301">
        <ele>1038</ele>
        <time>2012-10-20T07:08:37.000Z</time>
      </trkpt>
      <trkpt lat="43.98671" lon="7.16313">
        <ele>1039.8000488281</ele>
        <time>2012-10-20T07:08:45.000Z</time>
      </trkpt>
      <trkpt lat="43.9868" lon="7.16325">
        <ele>1040.5999755859</ele>
        <time>2012-10-20T07:08:53.000Z</time>
      </trkpt>
      <trkpt lat="43.98686" lon="7.16337">
        <ele>1041.5999755859</ele>
        <time>2012-10-20T07:09:01.000Z</time>
      </trkpt>
      <trkpt lat="43.98691" lon="7.16347">
        <ele>1041.5999755859</ele>
        <time>2012-10-20T07:09:07.000Z</time>
      </trkpt>
      <trkpt lat="43.98699" lon="7.16362">
        <ele>1042</ele>
        <time>2012-10-20T07:09:16.000Z</time>
      </trkpt>
      <trkpt lat="43.98708" lon="7.16373">
        <ele>1042.8000488281</ele>
        <time>2012-10-20T07:09:25.000Z</time>
      </trkpt>
      <trkpt lat="43.98709" lon="7.16375">
        <ele>1043</ele>
        <time>2012-10-20T07:09:26.000Z</time>
      </trkpt>
      <trkpt lat="43.9872" lon="7.16385">
        <ele>1044.8000488281</ele>
        <time>2012-10-20T07:09:36.000Z</time>
      </trkpt>
      <trkpt lat="43.98729" lon="7.16398">
        <ele>1047</ele>
        <time>2012-10-20T07:09:44.000Z</time>
      </trkpt>
      <trkpt lat="43.98734" lon="7.16412">
        <ele>1049.1999511719</ele>
        <time>2012-10-20T07:09:52.000Z</time>
      </trkpt>
      <trkpt lat="43.98736" lon="7.16429">
        <ele>1050.8000488281</ele>
        <time>2012-10-20T07:10:00.000Z</time>
      </trkpt>
      <trkpt lat="43.98736" lon="7.16449">
        <ele>1051.8000488281</ele>
        <time>2012-10-20T07:10:09.000Z</time>
      </trkpt>
      <trkpt lat="43.98739" lon="7.1647">
        <ele>1053.8000488281</ele>
        <time>2012-10-20T07:10:18.000Z</time>
      </trkpt>
      <trkpt lat="43.98742" lon="7.16493">
        <ele>1056</ele>
        <time>2012-10-20T07:10:28.000Z</time>
      </trkpt>
      <trkpt lat="43.98744" lon="7.16509">
        <ele>1058.4000244141</ele>
        <time>2012-10-20T07:10:35.000Z</time>
      </trkpt>
      <trkpt lat="43.98744" lon="7.16524">
        <ele>1061</ele>
        <time>2012-10-20T07:10:42.000Z</time>
      </trkpt>
      <trkpt lat="43.98745" lon="7.16529">
        <ele>1061.8000488281</ele>
        <time>2012-10-20T07:10:44.000Z</time>
      </trkpt>
      <trkpt lat="43.98743" lon="7.16547">
        <ele>1064.1999511719</ele>
        <time>2012-10-20T07:10:51.000Z</time>
      </trkpt>
      <trkpt lat="43.98743" lon="7.16561">
        <ele>1066.1999511719</ele>
        <time>2012-10-20T07:10:57.000Z</time>
      </trkpt>
      <trkpt lat="43.98743" lon="7.16576">
        <ele>1068.4000244141</ele>
        <time>2012-10-20T07:11:05.000Z</time>
      </trkpt>
      <trkpt lat="43.98743" lon="7.1659">
        <ele>1070.4000244141</ele>
        <time>2012-10-20T07:11:12.000Z</time>
      </trkpt>
      <trkpt lat="43.98742" lon="7.16592">
        <ele>1070.4000244141</ele>
        <time>2012-10-20T07:11:17.000Z</time>
      </trkpt>
      <trkpt lat="43.98741" lon="7.16599">
        <ele>1070.8000488281</ele>
        <time>2012-10-20T07:11:24.000Z</time>
      </trkpt>
      <trkpt lat="43.98742" lon="7.16609">
        <ele>1071.8000488281</ele>
        <time>2012-10-20T07:11:31.000Z</time>
      </trkpt>
      <trkpt lat="43.98741" lon="7.16618">
        <ele>1072.5999755859</ele>
        <time>2012-10-20T07:11:39.000Z</time>
      </trkpt>
      <trkpt lat="43.9874" lon="7.16622">
        <ele>1073</ele>
        <time>2012-10-20T07:11:44.000Z</time>
      </trkpt>
      <trkpt lat="43.98742" lon="7.16625">
        <ele>1073.5999755859</ele>
        <time>2012-10-20T07:12:03.000Z</time>
      </trkpt>
      <trkpt lat="43.98741" lon="7.1663">
        <ele>1073.8000488281</ele>
        <time>2012-10-20T07:12:12.000Z</time>
      </trkpt>
      <trkpt lat="43.98736" lon="7.16644">
        <ele>1074.1999511719</ele>
        <time>2012-10-20T07:12:18.000Z</time>
      </trkpt>
      <trkpt lat="43.98732" lon="7.16653">
        <ele>1074.5999755859</ele>
        <time>2012-10-20T07:12:22.000Z</time>
      </trkpt>
      <trkpt lat="43.98728" lon="7.16672">
        <ele>1075.5999755859</ele>
        <time>2012-10-20T07:12:30.000Z</time>
      </trkpt>
      <trkpt lat="43.98724" lon="7.16687">
        <ele>1075.5999755859</ele>
        <time>2012-10-20T07:12:37.000Z</time>
      </trkpt>
      <trkpt lat="43.98722" lon="7.167">
        <ele>1075.8000488281</ele>
        <time>2012-10-20T07:12:43.000Z</time>
      </trkpt>
      <trkpt lat="43.98717" lon="7.16715">
        <ele>1076.5999755859</ele>
        <time>2012-10-20T07:12:50.000Z</time>
      </trkpt>
      <trkpt lat="43.98715" lon="7.16719">
        <ele>1076.8000488281</ele>
        <time>2012-10-20T07:12:52.000Z</time>
      </trkpt>
      <trkpt lat="43.98715" lon="7.16719">
        <ele>1076.8000488281</ele>
        <time>2012-10-20T07:12:52.000Z</time>
      </trkpt>
      <trkpt lat="43.98713" lon="7.16728">
        <ele>1077.5999755859</ele>
        <time>2012-10-20T07:12:56.000Z</time>
      </trkpt>
      <trkpt lat="43.9871" lon="7.16741">
        <ele>1079</ele>
        <time>2012-10-20T07:13:02.000Z</time>
      </trkpt>
      <trkpt lat="43.98707" lon="7.16751">
        <ele>1080.1999511719</ele>
        <time>2012-10-20T07:13:07.000Z</time>
      </trkpt>
      <trkpt lat="43.98702" lon="7.16762">
        <ele>1081.4000244141</ele>
        <time>2012-10-20T07:13:13.000Z</time>
      </trkpt>
      <trkpt lat="43.98701" lon="7.16766">
        <ele>1081.8000488281</ele>
        <time>2012-10-20T07:13:15.000Z</time>
      </trkpt>
      <trkpt lat="43.98692" lon="7.16785">
        <ele>1085</ele>
        <time>2012-10-20T07:13:25.000Z</time>
      </trkpt>
      <trkpt lat="43.98687" lon="7.16795">
        <ele>1087.4000244141</ele>
        <time>2012-10-20T07:13:30.000Z</time>
      </trkpt>
      <trkpt lat="43.98677" lon="7.16803">
        <ele>1092</ele>
        <time>2012-10-20T07:13:38.000Z</time>
      </trkpt>
      <trkpt lat="43.98669" lon="7.16809">
        <ele>1096</ele>
        <time>2012-10-20T07:13:44.000Z</time>
      </trkpt>
      <trkpt lat="43.98659" lon="7.16813">
        <ele>1096.4000244141</ele>
        <time>2012-10-20T07:13:49.000Z</time>
      </trkpt>
      <trkpt lat="43.98644" lon="7.16816">
        <ele>1094.5999755859</ele>
        <time>2012-10-20T07:13:56.000Z</time>
      </trkpt>
      <trkpt lat="43.98633" lon="7.16819">
        <ele>1093.4000244141</ele>
        <time>2012-10-20T07:14:03.000Z</time>
      </trkpt>
      <trkpt lat="43.98622" lon="7.16822">
        <ele>1092.4000244141</ele>
        <time>2012-10-20T07:14:10.000Z</time>
      </trkpt>
      <trkpt lat="43.9861" lon="7.16826">
        <ele>1091.4000244141</ele>
        <time>2012-10-20T07:14:17.000Z</time>
      </trkpt>
      <trkpt lat="43.98598" lon="7.16833">
        <ele>1091</ele>
        <time>2012-10-20T07:14:25.000Z</time>
      </trkpt>
      <trkpt lat="43.98597" lon="7.16835">
        <ele>1091</ele>
        <time>2012-10-20T07:14:26.000Z</time>
      </trkpt>
      <trkpt lat="43.98597" lon="7.16839">
        <ele>1090.8000488281</ele>
        <time>2012-10-20T07:14:33.000Z</time>
      </trkpt>
      <trkpt lat="43.98589" lon="7.16853">
        <ele>1090.1999511719</ele>
        <time>2012-10-20T07:15:55.000Z</time>
      </trkpt>
      <trkpt lat="43.98595" lon="7.16873">
        <ele>1090.8000488281</ele>
        <time>2012-10-20T07:16:02.000Z</time>
      </trkpt>
      <trkpt lat="43.98597" lon="7.16905">
        <ele>1090.8000488281</ele>
        <time>2012-10-20T07:16:08.000Z</time>
      </trkpt>
      <trkpt lat="43.98593" lon="7.16943">
        <ele>1090.4000244141</ele>
        <time>2012-10-20T07:16:15.000Z</time>
      </trkpt>
      <trkpt lat="43.9859" lon="7.16954">
        <ele>1090.8000488281</ele>
        <time>2012-10-20T07:16:17.000Z</time>
      </trkpt>
      <trkpt lat="43.98584" lon="7.16969">
        <ele>1092.4000244141</ele>
        <time>2012-10-20T07:16:20.000Z</time>
      </trkpt>
      <trkpt lat="43.98573" lon="7.16996">
        <ele>1091.4000244141</ele>
        <time>2012-10-20T07:16:26.000Z</time>
      </trkpt>
      <trkpt lat="43.9856" lon="7.17021">
        <ele>1091.4000244141</ele>
        <time>2012-10-20T07:16:33.000Z</time>
      </trkpt>
      <trkpt lat="43.98549" lon="7.17038">
        <ele>1093.8000488281</ele>
        <time>2012-10-20T07:16:39.000Z</time>
      </trkpt>
      <trkpt lat="43.98542" lon="7.17046">
        <ele>1096.1999511719</ele>
        <time>2012-10-20T07:16:45.000Z</time>
      </trkpt>
      <trkpt lat="43.98532" lon="7.17054">
        <ele>1099.4000244141</ele>
        <time>2012-10-20T07:16:52.000Z</time>
      </trkpt>
      <trkpt lat="43.98523" lon="7.17061">
        <ele>1103.4000244141</ele>
        <time>2012-10-20T07:16:59.000Z</time>
      </trkpt>
      <trkpt lat="43.98512" lon="7.17075">
        <ele>1111.5999755859</ele>
        <time>2012-10-20T07:17:06.000Z</time>
      </trkpt>
      <trkpt lat="43.98502" lon="7.17089">
        <ele>1119.4000244141</ele>
        <time>2012-10-20T07:17:12.000Z</time>
      </trkpt>
      <trkpt lat="43.98489" lon="7.17103">
        <ele>1117.5999755859</ele>
        <time>2012-10-20T07:17:19.000Z</time>
      </trkpt>
      <trkpt lat="43.98479" lon="7.1711">
        <ele>1114</ele>
        <time>2012-10-20T07:17:24.000Z</time>
      </trkpt>
      <trkpt lat="43.98465" lon="7.17105">
        <ele>1106.5999755859</ele>
        <time>2012-10-20T07:17:32.000Z</time>
      </trkpt>
      <trkpt lat="43.98459" lon="7.17105">
        <ele>1103.4000244141</ele>
        <time>2012-10-20T07:17:35.000Z</time>
      </trkpt>
      <trkpt lat="43.98447" lon="7.17118">
        <ele>1099.8000488281</ele>
        <time>2012-10-20T07:17:43.000Z</time>
      </trkpt>
      <trkpt lat="43.98446" lon="7.17122">
        <ele>1099.5999755859</ele>
        <time>2012-10-20T07:17:45.000Z</time>
      </trkpt>
      <trkpt lat="43.98443" lon="7.1714">
        <ele>1100.5999755859</ele>
        <time>2012-10-20T07:17:54.000Z</time>
      </trkpt>
      <trkpt lat="43.98446" lon="7.17153">
        <ele>1103.8000488281</ele>
        <time>2012-10-20T07:18:01.000Z</time>
      </trkpt>
      <trkpt lat="43.98452" lon="7.17167">
        <ele>1108.8000488281</ele>
        <time>2012-10-20T07:18:09.000Z</time>
      </trkpt>
      <trkpt lat="43.98455" lon="7.17173">
        <ele>1110.8000488281</ele>
        <time>2012-10-20T07:18:13.000Z</time>
      </trkpt>
      <trkpt lat="43.98461" lon="7.17185">
        <ele>1114</ele>
        <time>2012-10-20T07:18:19.000Z</time>
      </trkpt>
      <trkpt lat="43.98469" lon="7.17196">
        <ele>1118.1999511719</ele>
        <time>2012-10-20T07:18:26.000Z</time>
      </trkpt>
      <trkpt lat="43.98476" lon="7.17209">
        <ele>1122.5999755859</ele>
        <time>2012-10-20T07:18:34.000Z</time>
      </trkpt>
      <trkpt lat="43.98483" lon="7.1722">
        <ele>1126.8000488281</ele>
        <time>2012-10-20T07:18:41.000Z</time>
      </trkpt>
      <trkpt lat="43.98486" lon="7.17231">
        <ele>1128.8000488281</ele>
        <time>2012-10-20T07:18:47.000Z</time>
      </trkpt>
      <trkpt lat="43.98489" lon="7.17238">
        <ele>1130.5999755859</ele>
        <time>2012-10-20T07:18:50.000Z</time>
      </trkpt>
      <trkpt lat="43.98492" lon="7.17244">
        <ele>1132.5999755859</ele>
        <time>2012-10-20T07:18:55.000Z</time>
      </trkpt>
      <trkpt lat="43.98501" lon="7.17251">
        <ele>1137.8000488281</ele>
        <time>2012-10-20T07:19:02.000Z</time>
      </trkpt>
      <trkpt lat="43.98503" lon="7.17256">
        <ele>1137.4000244141</ele>
        <time>2012-10-20T07:19:07.000Z</time>
      </trkpt>
      <trkpt lat="43.98503" lon="7.17261">
        <ele>1137.8000488281</ele>
        <time>2012-10-20T07:19:18.000Z</time>
      </trkpt>
      <trkpt lat="43.98503" lon="7.17268">
        <ele>1138.5999755859</ele>
        <time>2012-10-20T07:19:24.000Z</time>
      </trkpt>
      <trkpt lat="43.98505" lon="7.17262">
        <ele>1137.1999511719</ele>
        <time>2012-10-20T07:19:38.000Z</time>
      </trkpt>
      <trkpt lat="43.98507" lon="7.17265">
        <ele>1137</ele>
        <time>2012-10-20T07:19:44.000Z</time>
      </trkpt>
      <trkpt lat="43.98507" lon="7.1726">
        <ele>1136.4000244141</ele>
        <time>2012-10-20T07:19:49.000Z</time>
      </trkpt>
      <trkpt lat="43.98508" lon="7.17258">
        <ele>1135.8000488281</ele>
        <time>2012-10-20T07:19:53.000Z</time>
      </trkpt>
      <trkpt lat="43.98508" lon="7.17256">
        <ele>1135.8000488281</ele>
        <time>2012-10-20T07:20:01.000Z</time>
      </trkpt>
      <trkpt lat="43.98511" lon="7.1726">
        <ele>1135</ele>
        <time>2012-10-20T07:20:17.000Z</time>
      </trkpt>
      <trkpt lat="43.98513" lon="7.17261">
        <ele>1134.1999511719</ele>
        <time>2012-10-20T07:20:23.000Z</time>
      </trkpt>
      <trkpt lat="43.98515" lon="7.17261">
        <ele>1133.5999755859</ele>
        <time>2012-10-20T07:20:30.000Z</time>
      </trkpt>
      <trkpt lat="43.98519" lon="7.17261">
        <ele>1131.8000488281</ele>
        <time>2012-10-20T07:20:36.000Z</time>
      </trkpt>
      <trkpt lat="43.98521" lon="7.17259">
        <ele>1131</ele>
        <time>2012-10-20T07:20:39.000Z</time>
      </trkpt>
      <trkpt lat="43.98523" lon="7.17259">
        <ele>1130</ele>
        <time>2012-10-20T07:20:48.000Z</time>
      </trkpt>
      <trkpt lat="43.98525" lon="7.17261">
        <ele>1129.8000488281</ele>
        <time>2012-10-20T07:20:56.000Z</time>
      </trkpt>
      <trkpt lat="43.98525" lon="7.17267">
        <ele>1130.1999511719</ele>
        <time>2012-10-20T07:21:04.000Z</time>
      </trkpt>
      <trkpt lat="43.98522" lon="7.17271">
        <ele>1131.8000488281</ele>
        <time>2012-10-20T07:21:11.000Z</time>
      </trkpt>
      <trkpt lat="43.98523" lon="7.17274">
        <ele>1131.5999755859</ele>
        <time>2012-10-20T07:21:17.000Z</time>
      </trkpt>
      <trkpt lat="43.98523" lon="7.17279">
        <ele>1132.1999511719</ele>
        <time>2012-10-20T07:21:24.000Z</time>
      </trkpt>
      <trkpt lat="43.98525" lon="7.17279">
        <ele>1131.4000244141</ele>
        <time>2012-10-20T07:21:31.000Z</time>
      </trkpt>
      <trkpt lat="43.98526" lon="7.17283">
        <ele>1131.5999755859</ele>
        <time>2012-10-20T07:21:37.000Z</time>
      </trkpt>
      <trkpt lat="43.98525" lon="7.17287">
        <ele>1132.4000244141</ele>
        <time>2012-10-20T07:21:44.000Z</time>
      </trkpt>
      <trkpt lat="43.98524" lon="7.17291">
        <ele>1133.4000244141</ele>
        <time>2012-10-20T07:21:50.000Z</time>
      </trkpt>
      <trkpt lat="43.98524" lon="7.17296">
        <ele>1133.5999755859</ele>
        <time>2012-10-20T07:21:57.000Z</time>
      </trkpt>
      <trkpt lat="43.98524" lon="7.17302">
        <ele>1134.4000244141</ele>
        <time>2012-10-20T07:22:04.000Z</time>
      </trkpt>
      <trkpt lat="43.98521" lon="7.17313">
        <ele>1136.5999755859</ele>
        <time>2012-10-20T07:22:12.000Z</time>
      </trkpt>
      <trkpt lat="43.98522" lon="7.1732">
        <ele>1137.1999511719</ele>
        <time>2012-10-20T07:22:18.000Z</time>
      </trkpt>
      <trkpt lat="43.98515" lon="7.1733">
        <ele>1140.8000488281</ele>
        <time>2012-10-20T07:22:25.000Z</time>
      </trkpt>
      <trkpt lat="43.98511" lon="7.1734">
        <ele>1145</ele>
        <time>2012-10-20T07:22:32.000Z</time>
      </trkpt>
      <trkpt lat="43.98508" lon="7.17349">
        <ele>1149.4000244141</ele>
        <time>2012-10-20T07:22:39.000Z</time>
      </trkpt>
      <trkpt lat="43.98509" lon="7.1736">
        <ele>1152.8000488281</ele>
        <time>2012-10-20T07:22:48.000Z</time>
      </trkpt>
      <trkpt lat="43.98508" lon="7.17364">
        <ele>1154.8000488281</ele>
        <time>2012-10-20T07:22:54.000Z</time>
      </trkpt>
      <trkpt lat="43.98508" lon="7.17358">
        <ele>1152.1999511719</ele>
        <time>2012-10-20T07:23:25.000Z</time>
      </trkpt>
      <trkpt lat="43.98506" lon="7.17361">
        <ele>1154.1999511719</ele>
        <time>2012-10-20T07:23:48.000Z</time>
      </trkpt>
      <trkpt lat="43.98506" lon="7.17365">
        <ele>1155.5999755859</ele>
        <time>2012-10-20T07:24:36.000Z</time>
      </trkpt>
      <trkpt lat="43.98506" lon="7.17364">
        <ele>1155.1999511719</ele>
        <time>2012-10-20T07:27:35.000Z</time>
      </trkpt>
      <trkpt lat="43.98507" lon="7.17364">
        <ele>1155</ele>
        <time>2012-10-20T07:27:45.000Z</time>
      </trkpt>
      <trkpt lat="43.98501" lon="7.17367">
        <ele>1158.4000244141</ele>
        <time>2012-10-20T07:28:43.000Z</time>
      </trkpt>
      <trkpt lat="43.98499" lon="7.1737">
        <ele>1159.1999511719</ele>
        <time>2012-10-20T07:29:11.000Z</time>
      </trkpt>
      <trkpt lat="43.98497" lon="7.17373">
        <ele>1159.1999511719</ele>
        <time>2012-10-20T07:29:21.000Z</time>
      </trkpt>
      <trkpt lat="43.98499" lon="7.17375">
        <ele>1160.8000488281</ele>
        <time>2012-10-20T07:29:27.000Z</time>
      </trkpt>
      <trkpt lat="43.98501" lon="7.17377">
        <ele>1162</ele>
        <time>2012-10-20T07:29:33.000Z</time>
      </trkpt>
      <trkpt lat="43.98502" lon="7.17382">
        <ele>1163.1999511719</ele>
        <time>2012-10-20T07:29:40.000Z</time>
      </trkpt>
      <trkpt lat="43.98503" lon="7.17383">
        <ele>1163.4000244141</ele>
        <time>2012-10-20T07:29:47.000Z</time>
      </trkpt>
      <trkpt lat="43.98501" lon="7.17387">
        <ele>1165.1999511719</ele>
        <time>2012-10-20T07:29:53.000Z</time>
      </trkpt>
      <trkpt lat="43.98499" lon="7.17392">
        <ele>1166.8000488281</ele>
        <time>2012-10-20T07:30:00.000Z</time>
      </trkpt>
      <trkpt lat="43.98498" lon="7.17395">
        <ele>1167.8000488281</ele>
        <time>2012-10-20T07:30:05.000Z</time>
      </trkpt>
      <trkpt lat="43.98499" lon="7.17399">
        <ele>1169.4000244141</ele>
        <time>2012-10-20T07:30:10.000Z</time>
      </trkpt>
      <trkpt lat="43.98499" lon="7.17406">
        <ele>1172</ele>
        <time>2012-10-20T07:30:18.000Z</time>
      </trkpt>
      <trkpt lat="43.985" lon="7.17413">
        <ele>1174.5999755859</ele>
        <time>2012-10-20T07:30:25.000Z</time>
      </trkpt>
      <trkpt lat="43.98499" lon="7.17416">
        <ele>1175.1999511719</ele>
        <time>2012-10-20T07:30:30.000Z</time>
      </trkpt>
      <trkpt lat="43.98497" lon="7.1742">
        <ele>1175.4000244141</ele>
        <time>2012-10-20T07:30:43.000Z</time>
      </trkpt>
      <trkpt lat="43.98498" lon="7.17425">
        <ele>1176.5999755859</ele>
        <time>2012-10-20T07:30:50.000Z</time>
      </trkpt>
      <trkpt lat="43.98499" lon="7.17431">
        <ele>1178</ele>
        <time>2012-10-20T07:30:57.000Z</time>
      </trkpt>
      <trkpt lat="43.98499" lon="7.17439">
        <ele>1179.5999755859</ele>
        <time>2012-10-20T07:31:07.000Z</time>
      </trkpt>
      <trkpt lat="43.985" lon="7.17445">
        <ele>1181.1999511719</ele>
        <time>2012-10-20T07:31:15.000Z</time>
      </trkpt>
      <trkpt lat="43.98501" lon="7.17448">
        <ele>1181.1999511719</ele>
        <time>2012-10-20T07:31:22.000Z</time>
      </trkpt>
      <trkpt lat="43.98502" lon="7.17453">
        <ele>1181.5999755859</ele>
        <time>2012-10-20T07:31:30.000Z</time>
      </trkpt>
      <trkpt lat="43.98503" lon="7.17457">
        <ele>1182.1999511719</ele>
        <time>2012-10-20T07:31:36.000Z</time>
      </trkpt>
      <trkpt lat="43.98503" lon="7.17463">
        <ele>1183</ele>
        <time>2012-10-20T07:31:43.000Z</time>
      </trkpt>
      <trkpt lat="43.98504" lon="7.17466">
        <ele>1183</ele>
        <time>2012-10-20T07:31:49.000Z</time>
      </trkpt>
      <trkpt lat="43.98505" lon="7.17473">
        <ele>1184</ele>
        <time>2012-10-20T07:31:57.000Z</time>
      </trkpt>
      <trkpt lat="43.98505" lon="7.17476">
        <ele>1184.4000244141</ele>
        <time>2012-10-20T07:32:03.000Z</time>
      </trkpt>
      <trkpt lat="43.98506" lon="7.17479">
        <ele>1184.1999511719</ele>
        <time>2012-10-20T07:32:09.000Z</time>
      </trkpt>
      <trkpt lat="43.98507" lon="7.17483">
        <ele>1184.8000488281</ele>
        <time>2012-10-20T07:32:15.000Z</time>
      </trkpt>
      <trkpt lat="43.98507" lon="7.1749">
        <ele>1186</ele>
        <time>2012-10-20T07:32:22.000Z</time>
      </trkpt>
      <trkpt lat="43.98508" lon="7.17497">
        <ele>1186.8000488281</ele>
        <time>2012-10-20T07:32:29.000Z</time>
      </trkpt>
      <trkpt lat="43.98506" lon="7.17505">
        <ele>1188.4000244141</ele>
        <time>2012-10-20T07:32:35.000Z</time>
      </trkpt>
      <trkpt lat="43.98507" lon="7.17514">
        <ele>1189.4000244141</ele>
        <time>2012-10-20T07:32:42.000Z</time>
      </trkpt>
      <trkpt lat="43.98506" lon="7.17517">
        <ele>1189.8000488281</ele>
        <time>2012-10-20T07:32:44.000Z</time>
      </trkpt>
      <trkpt lat="43.98502" lon="7.17527">
        <ele>1192.4000244141</ele>
        <time>2012-10-20T07:32:51.000Z</time>
      </trkpt>
      <trkpt lat="43.98499" lon="7.17535">
        <ele>1194</ele>
        <time>2012-10-20T07:32:58.000Z</time>
      </trkpt>
      <trkpt lat="43.98499" lon="7.17543">
        <ele>1194.5999755859</ele>
        <time>2012-10-20T07:33:04.000Z</time>
      </trkpt>
      <trkpt lat="43.98498" lon="7.17557">
        <ele>1195.5999755859</ele>
        <time>2012-10-20T07:33:10.000Z</time>
      </trkpt>
      <trkpt lat="43.98499" lon="7.17577">
        <ele>1197.8000488281</ele>
        <time>2012-10-20T07:33:18.000Z</time>
      </trkpt>
      <trkpt lat="43.98499" lon="7.17584">
        <ele>1198.5999755859</ele>
        <time>2012-10-20T07:33:21.000Z</time>
      </trkpt>
      <trkpt lat="43.985" lon="7.17602">
        <ele>1204</ele>
        <time>2012-10-20T07:33:29.000Z</time>
      </trkpt>
      <trkpt lat="43.98499" lon="7.17618">
        <ele>1208.4000244141</ele>
        <time>2012-10-20T07:33:37.000Z</time>
      </trkpt>
      <trkpt lat="43.98499" lon="7.17629">
        <ele>1211.1999511719</ele>
        <time>2012-10-20T07:33:44.000Z</time>
      </trkpt>
      <trkpt lat="43.98505" lon="7.17635">
        <ele>1211.8000488281</ele>
        <time>2012-10-20T07:33:53.000Z</time>
      </trkpt>
      <trkpt lat="43.98505" lon="7.1764">
        <ele>1213.1999511719</ele>
        <time>2012-10-20T07:33:57.000Z</time>
      </trkpt>
      <trkpt lat="43.98508" lon="7.17642">
        <ele>1213.1999511719</ele>
        <time>2012-10-20T07:34:03.000Z</time>
      </trkpt>
      <trkpt lat="43.98509" lon="7.17642">
        <ele>1213</ele>
        <time>2012-10-20T07:34:04.000Z</time>
      </trkpt>
      <trkpt lat="43.98509" lon="7.17642">
        <ele>1213</ele>
        <time>2012-10-20T07:34:04.000Z</time>
      </trkpt>
      <trkpt lat="43.98516" lon="7.17647">
        <ele>1212.4000244141</ele>
        <time>2012-10-20T07:34:12.000Z</time>
      </trkpt>
      <trkpt lat="43.9852" lon="7.17651">
        <ele>1212.8000488281</ele>
        <time>2012-10-20T07:34:17.000Z</time>
      </trkpt>
      <trkpt lat="43.98526" lon="7.17657">
        <ele>1213.1999511719</ele>
        <time>2012-10-20T07:34:23.000Z</time>
      </trkpt>
      <trkpt lat="43.98534" lon="7.17667">
        <ele>1215.1999511719</ele>
        <time>2012-10-20T07:34:29.000Z</time>
      </trkpt>
      <trkpt lat="43.98543" lon="7.17676">
        <ele>1217.5999755859</ele>
        <time>2012-10-20T07:34:35.000Z</time>
      </trkpt>
      <trkpt lat="43.98551" lon="7.17684">
        <ele>1219.4000244141</ele>
        <time>2012-10-20T07:34:40.000Z</time>
      </trkpt>
      <trkpt lat="43.98564" lon="7.1769">
        <ele>1220</ele>
        <time>2012-10-20T07:34:45.000Z</time>
      </trkpt>
      <trkpt lat="43.98582" lon="7.17701">
        <ele>1222.4000244141</ele>
        <time>2012-10-20T07:34:52.000Z</time>
      </trkpt>
      <trkpt lat="43.986" lon="7.17711">
        <ele>1220.4000244141</ele>
        <time>2012-10-20T07:34:59.000Z</time>
      </trkpt>
      <trkpt lat="43.9861" lon="7.17721">
        <ele>1221.1999511719</ele>
        <time>2012-10-20T07:35:03.000Z</time>
      </trkpt>
      <trkpt lat="43.98622" lon="7.17733">
        <ele>1221.8000488281</ele>
        <time>2012-10-20T07:35:08.000Z</time>
      </trkpt>
      <trkpt lat="43.98634" lon="7.17755">
        <ele>1228.8000488281</ele>
        <time>2012-10-20T07:35:13.000Z</time>
      </trkpt>
      <trkpt lat="43.98642" lon="7.17781">
        <ele>1239.1999511719</ele>
        <time>2012-10-20T07:35:18.000Z</time>
      </trkpt>
      <trkpt lat="43.98653" lon="7.1779">
        <ele>1239.4000244141</ele>
        <time>2012-10-20T07:35:22.000Z</time>
      </trkpt>
      <trkpt lat="43.98663" lon="7.17801">
        <ele>1241</ele>
        <time>2012-10-20T07:35:26.000Z</time>
      </trkpt>
      <trkpt lat="43.98673" lon="7.17809">
        <ele>1241.1999511719</ele>
        <time>2012-10-20T07:35:31.000Z</time>
      </trkpt>
      <trkpt lat="43.98684" lon="7.17816">
        <ele>1240.1999511719</ele>
        <time>2012-10-20T07:35:38.000Z</time>
      </trkpt>
      <trkpt lat="43.98694" lon="7.17822">
        <ele>1239.5999755859</ele>
        <time>2012-10-20T07:35:44.000Z</time>
      </trkpt>
      <trkpt lat="43.98703" lon="7.17827">
        <ele>1238.4000244141</ele>
        <time>2012-10-20T07:35:49.000Z</time>
      </trkpt>
      <trkpt lat="43.98713" lon="7.17837">
        <ele>1239</ele>
        <time>2012-10-20T07:35:56.000Z</time>
      </trkpt>
      <trkpt lat="43.98721" lon="7.17842">
        <ele>1237.4000244141</ele>
        <time>2012-10-20T07:36:01.000Z</time>
      </trkpt>
      <trkpt lat="43.98731" lon="7.17852">
        <ele>1237.4000244141</ele>
        <time>2012-10-20T07:36:07.000Z</time>
      </trkpt>
      <trkpt lat="43.98742" lon="7.17868">
        <ele>1239.4000244141</ele>
        <time>2012-10-20T07:36:14.000Z</time>
      </trkpt>
      <trkpt lat="43.9875" lon="7.17882">
        <ele>1241.8000488281</ele>
        <time>2012-10-20T07:36:20.000Z</time>
      </trkpt>
      <trkpt lat="43.98754" lon="7.17886">
        <ele>1242.5999755859</ele>
        <time>2012-10-20T07:36:22.000Z</time>
      </trkpt>
      <trkpt lat="43.98757" lon="7.17894">
        <ele>1245.4000244141</ele>
        <time>2012-10-20T07:36:25.000Z</time>
      </trkpt>
      <trkpt lat="43.98765" lon="7.17913">
        <ele>1251</ele>
        <time>2012-10-20T07:36:30.000Z</time>
      </trkpt>
      <trkpt lat="43.98774" lon="7.17928">
        <ele>1253.8000488281</ele>
        <time>2012-10-20T07:36:35.000Z</time>
      </trkpt>
      <trkpt lat="43.9879" lon="7.17944">
        <ele>1255.1999511719</ele>
        <time>2012-10-20T07:36:42.000Z</time>
      </trkpt>
      <trkpt lat="43.98797" lon="7.17949">
        <ele>1255.1999511719</ele>
        <time>2012-10-20T07:36:46.000Z</time>
      </trkpt>
      <trkpt lat="43.98806" lon="7.17954">
        <ele>1254.5999755859</ele>
        <time>2012-10-20T07:36:52.000Z</time>
      </trkpt>
      <trkpt lat="43.98815" lon="7.17956">
        <ele>1253.1999511719</ele>
        <time>2012-10-20T07:36:57.000Z</time>
      </trkpt>
      <trkpt lat="43.98827" lon="7.17963">
        <ele>1252.4000244141</ele>
        <time>2012-10-20T07:37:03.000Z</time>
      </trkpt>
      <trkpt lat="43.98837" lon="7.17969">
        <ele>1252</ele>
        <time>2012-10-20T07:37:08.000Z</time>
      </trkpt>
      <trkpt lat="43.9885" lon="7.17974">
        <ele>1250</ele>
        <time>2012-10-20T07:37:16.000Z</time>
      </trkpt>
      <trkpt lat="43.98854" lon="7.17976">
        <ele>1249.4000244141</ele>
        <time>2012-10-20T07:37:18.000Z</time>
      </trkpt>
      <trkpt lat="43.98866" lon="7.17989">
        <ele>1250</ele>
        <time>2012-10-20T07:37:26.000Z</time>
      </trkpt>
      <trkpt lat="43.98874" lon="7.18003">
        <ele>1251.1999511719</ele>
        <time>2012-10-20T07:37:31.000Z</time>
      </trkpt>
      <trkpt lat="43.98882" lon="7.18022">
        <ele>1252.8000488281</ele>
        <time>2012-10-20T07:37:38.000Z</time>
      </trkpt>
      <trkpt lat="43.98887" lon="7.1804">
        <ele>1254.4000244141</ele>
        <time>2012-10-20T07:37:44.000Z</time>
      </trkpt>
      <trkpt lat="43.98891" lon="7.18052">
        <ele>1255.1999511719</ele>
        <time>2012-10-20T07:37:49.000Z</time>
      </trkpt>
      <trkpt lat="43.98896" lon="7.18064">
        <ele>1255.5999755859</ele>
        <time>2012-10-20T07:37:54.000Z</time>
      </trkpt>
      <trkpt lat="43.98898" lon="7.18076">
        <ele>1256.8000488281</ele>
        <time>2012-10-20T07:37:58.000Z</time>
      </trkpt>
      <trkpt lat="43.98899" lon="7.18084">
        <ele>1257.8000488281</ele>
        <time>2012-10-20T07:38:02.000Z</time>
      </trkpt>
      <trkpt lat="43.98903" lon="7.18097">
        <ele>1259.4000244141</ele>
        <time>2012-10-20T07:38:06.000Z</time>
      </trkpt>
      <trkpt lat="43.98907" lon="7.18115">
        <ele>1262</ele>
        <time>2012-10-20T07:38:12.000Z</time>
      </trkpt>
      <trkpt lat="43.98913" lon="7.18133">
        <ele>1264.1999511719</ele>
        <time>2012-10-20T07:38:18.000Z</time>
      </trkpt>
      <trkpt lat="43.98914" lon="7.18136">
        <ele>1264.8000488281</ele>
        <time>2012-10-20T07:38:19.000Z</time>
      </trkpt>
      <trkpt lat="43.98921" lon="7.18153">
        <ele>1265.8000488281</ele>
        <time>2012-10-20T07:38:25.000Z</time>
      </trkpt>
      <trkpt lat="43.98926" lon="7.18169">
        <ele>1267.5999755859</ele>
        <time>2012-10-20T07:38:30.000Z</time>
      </trkpt>
      <trkpt lat="43.98934" lon="7.18183">
        <ele>1266</ele>
        <time>2012-10-20T07:38:36.000Z</time>
      </trkpt>
      <trkpt lat="43.98941" lon="7.18191">
        <ele>1263.8000488281</ele>
        <time>2012-10-20T07:38:41.000Z</time>
      </trkpt>
      <trkpt lat="43.9895" lon="7.18204">
        <ele>1262.1999511719</ele>
        <time>2012-10-20T07:38:47.000Z</time>
      </trkpt>
      <trkpt lat="43.98955" lon="7.18217">
        <ele>1261.4000244141</ele>
        <time>2012-10-20T07:38:52.000Z</time>
      </trkpt>
      <trkpt lat="43.98958" lon="7.18234">
        <ele>1262.4000244141</ele>
        <time>2012-10-20T07:38:57.000Z</time>
      </trkpt>
      <trkpt lat="43.98959" lon="7.18256">
        <ele>1262.8000488281</ele>
        <time>2012-10-20T07:39:03.000Z</time>
      </trkpt>
      <trkpt lat="43.98956" lon="7.18278">
        <ele>1261</ele>
        <time>2012-10-20T07:39:10.000Z</time>
      </trkpt>
      <trkpt lat="43.98946" lon="7.18298">
        <ele>1263.4000244141</ele>
        <time>2012-10-20T07:39:16.000Z</time>
      </trkpt>
      <trkpt lat="43.98933" lon="7.18316">
        <ele>1269.1999511719</ele>
        <time>2012-10-20T07:39:22.000Z</time>
      </trkpt>
      <trkpt lat="43.98928" lon="7.1833">
        <ele>1272</ele>
        <time>2012-10-20T07:39:27.000Z</time>
      </trkpt>
      <trkpt lat="43.98924" lon="7.18346">
        <ele>1272.1999511719</ele>
        <time>2012-10-20T07:39:33.000Z</time>
      </trkpt>
      <trkpt lat="43.98924" lon="7.18359">
        <ele>1270.5999755859</ele>
        <time>2012-10-20T07:39:38.000Z</time>
      </trkpt>
      <trkpt lat="43.98919" lon="7.18377">
        <ele>1270.8000488281</ele>
        <time>2012-10-20T07:39:45.000Z</time>
      </trkpt>
      <trkpt lat="43.98914" lon="7.18388">
        <ele>1272.5999755859</ele>
        <time>2012-10-20T07:39:50.000Z</time>
      </trkpt>
      <trkpt lat="43.98909" lon="7.184">
        <ele>1273.8000488281</ele>
        <time>2012-10-20T07:39:55.000Z</time>
      </trkpt>
      <trkpt lat="43.98903" lon="7.18417">
        <ele>1275.8000488281</ele>
        <time>2012-10-20T07:40:00.000Z</time>
      </trkpt>
      <trkpt lat="43.98903" lon="7.18421">
        <ele>1275.5999755859</ele>
        <time>2012-10-20T07:40:01.000Z</time>
      </trkpt>
      <trkpt lat="43.98905" lon="7.18444">
        <ele>1276.4000244141</ele>
        <time>2012-10-20T07:40:07.000Z</time>
      </trkpt>
      <trkpt lat="43.98905" lon="7.18466">
        <ele>1277.4000244141</ele>
        <time>2012-10-20T07:40:12.000Z</time>
      </trkpt>
      <trkpt lat="43.98912" lon="7.18495">
        <ele>1274.8000488281</ele>
        <time>2012-10-20T07:40:20.000Z</time>
      </trkpt>
      <trkpt lat="43.98926" lon="7.18511">
        <ele>1271</ele>
        <time>2012-10-20T07:40:25.000Z</time>
      </trkpt>
      <trkpt lat="43.9894" lon="7.18529">
        <ele>1269.5999755859</ele>
        <time>2012-10-20T07:40:31.000Z</time>
      </trkpt>
      <trkpt lat="43.98945" lon="7.18537">
        <ele>1269.1999511719</ele>
        <time>2012-10-20T07:40:33.000Z</time>
      </trkpt>
      <trkpt lat="43.98955" lon="7.1855">
        <ele>1268.1999511719</ele>
        <time>2012-10-20T07:40:36.000Z</time>
      </trkpt>
      <trkpt lat="43.98972" lon="7.18582">
        <ele>1268.5999755859</ele>
        <time>2012-10-20T07:40:42.000Z</time>
      </trkpt>
      <trkpt lat="43.98994" lon="7.18612">
        <ele>1265.5999755859</ele>
        <time>2012-10-20T07:40:49.000Z</time>
      </trkpt>
      <trkpt lat="43.98999" lon="7.18619">
        <ele>1264.8000488281</ele>
        <time>2012-10-20T07:40:51.000Z</time>
      </trkpt>
      <trkpt lat="43.99007" lon="7.18629">
        <ele>1263.4000244141</ele>
        <time>2012-10-20T07:40:55.000Z</time>
      </trkpt>
      <trkpt lat="43.99016" lon="7.18651">
        <ele>1265</ele>
        <time>2012-10-20T07:41:02.000Z</time>
      </trkpt>
      <trkpt lat="43.99018" lon="7.18669">
        <ele>1269.8000488281</ele>
        <time>2012-10-20T07:41:07.000Z</time>
      </trkpt>
      <trkpt lat="43.99017" lon="7.18688">
        <ele>1271.8000488281</ele>
        <time>2012-10-20T07:41:12.000Z</time>
      </trkpt>
      <trkpt lat="43.99014" lon="7.18701">
        <ele>1274.5999755859</ele>
        <time>2012-10-20T07:41:16.000Z</time>
      </trkpt>
      <trkpt lat="43.9901" lon="7.1872">
        <ele>1279</ele>
        <time>2012-10-20T07:41:23.000Z</time>
      </trkpt>
      <trkpt lat="43.99006" lon="7.18736">
        <ele>1283</ele>
        <time>2012-10-20T07:41:30.000Z</time>
      </trkpt>
      <trkpt lat="43.99009" lon="7.18748">
        <ele>1281.8000488281</ele>
        <time>2012-10-20T07:41:35.000Z</time>
      </trkpt>
      <trkpt lat="43.99012" lon="7.18764">
        <ele>1281</ele>
        <time>2012-10-20T07:41:43.000Z</time>
      </trkpt>
      <trkpt lat="43.99008" lon="7.18775">
        <ele>1285.4000244141</ele>
        <time>2012-10-20T07:41:49.000Z</time>
      </trkpt>
      <trkpt lat="43.99004" lon="7.18789">
        <ele>1289.1999511719</ele>
        <time>2012-10-20T07:41:56.000Z</time>
      </trkpt>
      <trkpt lat="43.99002" lon="7.18794">
        <ele>1291</ele>
        <time>2012-10-20T07:41:59.000Z</time>
      </trkpt>
      <trkpt lat="43.98999" lon="7.18798">
        <ele>1293.8000488281</ele>
        <time>2012-10-20T07:42:02.000Z</time>
      </trkpt>
      <trkpt lat="43.98996" lon="7.18814">
        <ele>1297</ele>
        <time>2012-10-20T07:42:09.000Z</time>
      </trkpt>
      <trkpt lat="43.99" lon="7.18819">
        <ele>1294.5999755859</ele>
        <time>2012-10-20T07:42:13.000Z</time>
      </trkpt>
      <trkpt lat="43.99006" lon="7.18828">
        <ele>1292</ele>
        <time>2012-10-20T07:42:20.000Z</time>
      </trkpt>
      <trkpt lat="43.99007" lon="7.18832">
        <ele>1291.8000488281</ele>
        <time>2012-10-20T07:42:24.000Z</time>
      </trkpt>
      <trkpt lat="43.99004" lon="7.18835">
        <ele>1294.4000244141</ele>
        <time>2012-10-20T07:42:28.000Z</time>
      </trkpt>
      <trkpt lat="43.99007" lon="7.18842">
        <ele>1295.4000244141</ele>
        <time>2012-10-20T07:42:35.000Z</time>
      </trkpt>
      <trkpt lat="43.99012" lon="7.18845">
        <ele>1293.4000244141</ele>
        <time>2012-10-20T07:42:38.000Z</time>
      </trkpt>
      <trkpt lat="43.99021" lon="7.18847">
        <ele>1289</ele>
        <time>2012-10-20T07:42:44.000Z</time>
      </trkpt>
      <trkpt lat="43.99032" lon="7.18848">
        <ele>1283.1999511719</ele>
        <time>2012-10-20T07:42:52.000Z</time>
      </trkpt>
      <trkpt lat="43.99032" lon="7.18852">
        <ele>1284.1999511719</ele>
        <time>2012-10-20T07:42:56.000Z</time>
      </trkpt>
      <trkpt lat="43.99028" lon="7.18856">
        <ele>1288.1999511719</ele>
        <time>2012-10-20T07:43:04.000Z</time>
      </trkpt>
      <trkpt lat="43.99033" lon="7.18863">
        <ele>1287.8000488281</ele>
        <time>2012-10-20T07:43:10.000Z</time>
      </trkpt>
      <trkpt lat="43.99036" lon="7.18876">
        <ele>1290</ele>
        <time>2012-10-20T07:43:16.000Z</time>
      </trkpt>
      <trkpt lat="43.99044" lon="7.18892">
        <ele>1290.5999755859</ele>
        <time>2012-10-20T07:43:22.000Z</time>
      </trkpt>
      <trkpt lat="43.9905" lon="7.18906">
        <ele>1292.1999511719</ele>
        <time>2012-10-20T07:43:28.000Z</time>
      </trkpt>
      <trkpt lat="43.99054" lon="7.18923">
        <ele>1294.5999755859</ele>
        <time>2012-10-20T07:43:35.000Z</time>
      </trkpt>
      <trkpt lat="43.99055" lon="7.1894">
        <ele>1299</ele>
        <time>2012-10-20T07:43:41.000Z</time>
      </trkpt>
      <trkpt lat="43.99057" lon="7.18957">
        <ele>1303</ele>
        <time>2012-10-20T07:43:48.000Z</time>
      </trkpt>
      <trkpt lat="43.9906" lon="7.18967">
        <ele>1303.5999755859</ele>
        <time>2012-10-20T07:43:53.000Z</time>
      </trkpt>
      <trkpt lat="43.99061" lon="7.18977">
        <ele>1305.5999755859</ele>
        <time>2012-10-20T07:43:59.000Z</time>
      </trkpt>
      <trkpt lat="43.99063" lon="7.18984">
        <ele>1306.4000244141</ele>
        <time>2012-10-20T07:44:04.000Z</time>
      </trkpt>
      <trkpt lat="43.99066" lon="7.18992">
        <ele>1306.1999511719</ele>
        <time>2012-10-20T07:44:12.000Z</time>
      </trkpt>
      <trkpt lat="43.99068" lon="7.18997">
        <ele>1305.4000244141</ele>
        <time>2012-10-20T07:44:16.000Z</time>
      </trkpt>
      <trkpt lat="43.99074" lon="7.1901">
        <ele>1305.8000488281</ele>
        <time>2012-10-20T07:44:22.000Z</time>
      </trkpt>
      <trkpt lat="43.99077" lon="7.19015">
        <ele>1305.8000488281</ele>
        <time>2012-10-20T07:44:26.000Z</time>
      </trkpt>
      <trkpt lat="43.99081" lon="7.19028">
        <ele>1307.1999511719</ele>
        <time>2012-10-20T07:44:35.000Z</time>
      </trkpt>
      <trkpt lat="43.99081" lon="7.1903">
        <ele>1308</ele>
        <time>2012-10-20T07:44:36.000Z</time>
      </trkpt>
      <trkpt lat="43.99083" lon="7.1904">
        <ele>1310.4000244141</ele>
        <time>2012-10-20T07:44:42.000Z</time>
      </trkpt>
      <trkpt lat="43.99083" lon="7.19043">
        <ele>1311.5999755859</ele>
        <time>2012-10-20T07:44:43.000Z</time>
      </trkpt>
      <trkpt lat="43.99082" lon="7.19059">
        <ele>1319</ele>
        <time>2012-10-20T07:44:50.000Z</time>
      </trkpt>
      <trkpt lat="43.99078" lon="7.19073">
        <ele>1327.8000488281</ele>
        <time>2012-10-20T07:44:57.000Z</time>
      </trkpt>
      <trkpt lat="43.99077" lon="7.19084">
        <ele>1333</ele>
        <time>2012-10-20T07:45:03.000Z</time>
      </trkpt>
      <trkpt lat="43.99078" lon="7.19091">
        <ele>1334.8000488281</ele>
        <time>2012-10-20T07:45:07.000Z</time>
      </trkpt>
      <trkpt lat="43.99079" lon="7.19093">
        <ele>1335.1999511719</ele>
        <time>2012-10-20T07:45:09.000Z</time>
      </trkpt>
      <trkpt lat="43.99078" lon="7.19096">
        <ele>1336.4000244141</ele>
        <time>2012-10-20T07:45:14.000Z</time>
      </trkpt>
      <trkpt lat="43.99081" lon="7.19098">
        <ele>1335.1999511719</ele>
        <time>2012-10-20T07:45:19.000Z</time>
      </trkpt>
      <trkpt lat="43.99091" lon="7.19105">
        <ele>1332</ele>
        <time>2012-10-20T07:45:26.000Z</time>
      </trkpt>
      <trkpt lat="43.99101" lon="7.19112">
        <ele>1329.8000488281</ele>
        <time>2012-10-20T07:45:33.000Z</time>
      </trkpt>
      <trkpt lat="43.99106" lon="7.19111">
        <ele>1327.1999511719</ele>
        <time>2012-10-20T07:45:42.000Z</time>
      </trkpt>
      <trkpt lat="43.99106" lon="7.19111">
        <ele>1327.1999511719</ele>
        <time>2012-10-20T07:45:43.000Z</time>
      </trkpt>
      <trkpt lat="43.99113" lon="7.19117">
        <ele>1326.4000244141</ele>
        <time>2012-10-20T07:45:50.000Z</time>
      </trkpt>
      <trkpt lat="43.99123" lon="7.19129">
        <ele>1327.1999511719</ele>
        <time>2012-10-20T07:45:57.000Z</time>
      </trkpt>
      <trkpt lat="43.99132" lon="7.1914">
        <ele>1328.4000244141</ele>
        <time>2012-10-20T07:46:04.000Z</time>
      </trkpt>
      <trkpt lat="43.99139" lon="7.19145">
        <ele>1327.4000244141</ele>
        <time>2012-10-20T07:46:10.000Z</time>
      </trkpt>
      <trkpt lat="43.99147" lon="7.19149">
        <ele>1326.4000244141</ele>
        <time>2012-10-20T07:46:16.000Z</time>
      </trkpt>
      <trkpt lat="43.99152" lon="7.19151">
        <ele>1325.5999755859</ele>
        <time>2012-10-20T07:46:20.000Z</time>
      </trkpt>
      <trkpt lat="43.99163" lon="7.19157">
        <ele>1324</ele>
        <time>2012-10-20T07:46:27.000Z</time>
      </trkpt>
      <trkpt lat="43.99176" lon="7.19162">
        <ele>1324.8000488281</ele>
        <time>2012-10-20T07:46:34.000Z</time>
      </trkpt>
      <trkpt lat="43.99187" lon="7.19176">
        <ele>1330.8000488281</ele>
        <time>2012-10-20T07:46:39.000Z</time>
      </trkpt>
      <trkpt lat="43.99196" lon="7.19183">
        <ele>1333.8000488281</ele>
        <time>2012-10-20T07:46:45.000Z</time>
      </trkpt>
      <trkpt lat="43.99208" lon="7.19184">
        <ele>1333</ele>
        <time>2012-10-20T07:46:52.000Z</time>
      </trkpt>
      <trkpt lat="43.99215" lon="7.19186">
        <ele>1333.5999755859</ele>
        <time>2012-10-20T07:46:56.000Z</time>
      </trkpt>
      <trkpt lat="43.99226" lon="7.19195">
        <ele>1337</ele>
        <time>2012-10-20T07:47:03.000Z</time>
      </trkpt>
      <trkpt lat="43.99232" lon="7.19201">
        <ele>1339.4000244141</ele>
        <time>2012-10-20T07:47:07.000Z</time>
      </trkpt>
      <trkpt lat="43.99243" lon="7.19208">
        <ele>1341.5999755859</ele>
        <time>2012-10-20T07:47:16.000Z</time>
      </trkpt>
      <trkpt lat="43.99254" lon="7.19212">
        <ele>1341.5999755859</ele>
        <time>2012-10-20T07:47:22.000Z</time>
      </trkpt>
      <trkpt lat="43.9926" lon="7.19212">
        <ele>1339.8000488281</ele>
        <time>2012-10-20T07:47:25.000Z</time>
      </trkpt>
      <trkpt lat="43.99267" lon="7.19209">
        <ele>1336.4000244141</ele>
        <time>2012-10-20T07:47:29.000Z</time>
      </trkpt>
      <trkpt lat="43.99282" lon="7.19207">
        <ele>1330.8000488281</ele>
        <time>2012-10-20T07:47:36.000Z</time>
      </trkpt>
      <trkpt lat="43.99297" lon="7.19212">
        <ele>1329.4000244141</ele>
        <time>2012-10-20T07:47:42.000Z</time>
      </trkpt>
      <trkpt lat="43.99317" lon="7.1922">
        <ele>1327.5999755859</ele>
        <time>2012-10-20T07:47:48.000Z</time>
      </trkpt>
      <trkpt lat="43.99332" lon="7.19225">
        <ele>1326.4000244141</ele>
        <time>2012-10-20T07:47:53.000Z</time>
      </trkpt>
      <trkpt lat="43.99344" lon="7.19231">
        <ele>1328.8000488281</ele>
        <time>2012-10-20T07:47:58.000Z</time>
      </trkpt>
      <trkpt lat="43.99358" lon="7.19236">
        <ele>1331</ele>
        <time>2012-10-20T07:48:04.000Z</time>
      </trkpt>
      <trkpt lat="43.99372" lon="7.19243">
        <ele>1334.4000244141</ele>
        <time>2012-10-20T07:48:10.000Z</time>
      </trkpt>
      <trkpt lat="43.99383" lon="7.19251">
        <ele>1338.5999755859</ele>
        <time>2012-10-20T07:48:15.000Z</time>
      </trkpt>
      <trkpt lat="43.99395" lon="7.19253">
        <ele>1339.1999511719</ele>
        <time>2012-10-20T07:48:21.000Z</time>
      </trkpt>
      <trkpt lat="43.99405" lon="7.19256">
        <ele>1340.4000244141</ele>
        <time>2012-10-20T07:48:26.000Z</time>
      </trkpt>
      <trkpt lat="43.99419" lon="7.19259">
        <ele>1342.1999511719</ele>
        <time>2012-10-20T07:48:33.000Z</time>
      </trkpt>
      <trkpt lat="43.99432" lon="7.19258">
        <ele>1342.1999511719</ele>
        <time>2012-10-20T07:48:39.000Z</time>
      </trkpt>
      <trkpt lat="43.99448" lon="7.19259">
        <ele>1343.4000244141</ele>
        <time>2012-10-20T07:48:44.000Z</time>
      </trkpt>
      <trkpt lat="43.99468" lon="7.19261">
        <ele>1345</ele>
        <time>2012-10-20T07:48:49.000Z</time>
      </trkpt>
      <trkpt lat="43.99493" lon="7.19257">
        <ele>1343.4000244141</ele>
        <time>2012-10-20T07:48:55.000Z</time>
      </trkpt>
      <trkpt lat="43.99523" lon="7.19261">
        <ele>1347</ele>
        <time>2012-10-20T07:49:02.000Z</time>
      </trkpt>
      <trkpt lat="43.99535" lon="7.19263">
        <ele>1348.5999755859</ele>
        <time>2012-10-20T07:49:07.000Z</time>
      </trkpt>
      <trkpt lat="43.99543" lon="7.19258">
        <ele>1347</ele>
        <time>2012-10-20T07:49:16.000Z</time>
      </trkpt>
      <trkpt lat="43.99546" lon="7.19256">
        <ele>1346.1999511719</ele>
        <time>2012-10-20T07:49:17.000Z</time>
      </trkpt>
      <trkpt lat="43.99561" lon="7.19248">
        <ele>1343.5999755859</ele>
        <time>2012-10-20T07:49:22.000Z</time>
      </trkpt>
      <trkpt lat="43.99573" lon="7.19254">
        <ele>1346.8000488281</ele>
        <time>2012-10-20T07:49:26.000Z</time>
      </trkpt>
      <trkpt lat="43.9959" lon="7.19267">
        <ele>1351.5999755859</ele>
        <time>2012-10-20T07:49:32.000Z</time>
      </trkpt>
      <trkpt lat="43.99602" lon="7.19284">
        <ele>1355.1999511719</ele>
        <time>2012-10-20T07:49:38.000Z</time>
      </trkpt>
      <trkpt lat="43.99611" lon="7.19295">
        <ele>1356.8000488281</ele>
        <time>2012-10-20T07:49:43.000Z</time>
      </trkpt>
      <trkpt lat="43.99625" lon="7.19306">
        <ele>1356.8000488281</ele>
        <time>2012-10-20T07:49:49.000Z</time>
      </trkpt>
      <trkpt lat="43.99638" lon="7.19316">
        <ele>1356.4000244141</ele>
        <time>2012-10-20T07:49:55.000Z</time>
      </trkpt>
      <trkpt lat="43.9965" lon="7.19324">
        <ele>1355</ele>
        <time>2012-10-20T07:50:00.000Z</time>
      </trkpt>
      <trkpt lat="43.99664" lon="7.19333">
        <ele>1352.8000488281</ele>
        <time>2012-10-20T07:50:05.000Z</time>
      </trkpt>
      <trkpt lat="43.99679" lon="7.19344">
        <ele>1351.1999511719</ele>
        <time>2012-10-20T07:50:10.000Z</time>
      </trkpt>
      <trkpt lat="43.99691" lon="7.19358">
        <ele>1351.8000488281</ele>
        <time>2012-10-20T07:50:14.000Z</time>
      </trkpt>
      <trkpt lat="43.99713" lon="7.19374">
        <ele>1349.8000488281</ele>
        <time>2012-10-20T07:50:20.000Z</time>
      </trkpt>
      <trkpt lat="43.99723" lon="7.19383">
        <ele>1349.8000488281</ele>
        <time>2012-10-20T07:50:23.000Z</time>
      </trkpt>
      <trkpt lat="43.99735" lon="7.194">
        <ele>1352.1999511719</ele>
        <time>2012-10-20T07:50:27.000Z</time>
      </trkpt>
      <trkpt lat="43.99748" lon="7.19431">
        <ele>1357.5999755859</ele>
        <time>2012-10-20T07:50:33.000Z</time>
      </trkpt>
      <trkpt lat="43.99751" lon="7.19451">
        <ele>1359.8000488281</ele>
        <time>2012-10-20T07:50:36.000Z</time>
      </trkpt>
      <trkpt lat="43.99753" lon="7.19464">
        <ele>1361.5999755859</ele>
        <time>2012-10-20T07:50:38.000Z</time>
      </trkpt>
      <trkpt lat="43.9976" lon="7.19486">
        <ele>1362.4000244141</ele>
        <time>2012-10-20T07:50:43.000Z</time>
      </trkpt>
      <trkpt lat="43.99761" lon="7.19491">
        <ele>1363</ele>
        <time>2012-10-20T07:50:44.000Z</time>
      </trkpt>
      <trkpt lat="43.99771" lon="7.19513">
        <ele>1364.5999755859</ele>
        <time>2012-10-20T07:50:50.000Z</time>
      </trkpt>
      <trkpt lat="43.9978" lon="7.19522">
        <ele>1363</ele>
        <time>2012-10-20T07:50:54.000Z</time>
      </trkpt>
      <trkpt lat="43.99789" lon="7.19528">
        <ele>1361.1999511719</ele>
        <time>2012-10-20T07:51:00.000Z</time>
      </trkpt>
      <trkpt lat="43.998" lon="7.19536">
        <ele>1359.1999511719</ele>
        <time>2012-10-20T07:51:06.000Z</time>
      </trkpt>
      <trkpt lat="43.99814" lon="7.1955">
        <ele>1358.4000244141</ele>
        <time>2012-10-20T07:51:12.000Z</time>
      </trkpt>
      <trkpt lat="43.99825" lon="7.19563">
        <ele>1358.8000488281</ele>
        <time>2012-10-20T07:51:17.000Z</time>
      </trkpt>
      <trkpt lat="43.99836" lon="7.19568">
        <ele>1357</ele>
        <time>2012-10-20T07:51:22.000Z</time>
      </trkpt>
      <trkpt lat="43.99849" lon="7.19566">
        <ele>1353.1999511719</ele>
        <time>2012-10-20T07:51:27.000Z</time>
      </trkpt>
      <trkpt lat="43.99864" lon="7.19564">
        <ele>1349.5999755859</ele>
        <time>2012-10-20T07:51:33.000Z</time>
      </trkpt>
      <trkpt lat="43.99879" lon="7.19574">
        <ele>1350.4000244141</ele>
        <time>2012-10-20T07:51:39.000Z</time>
      </trkpt>
      <trkpt lat="43.99895" lon="7.19588">
        <ele>1352.8000488281</ele>
        <time>2012-10-20T07:51:45.000Z</time>
      </trkpt>
      <trkpt lat="43.99909" lon="7.19606">
        <ele>1356.8000488281</ele>
        <time>2012-10-20T07:51:51.000Z</time>
      </trkpt>
      <trkpt lat="43.99922" lon="7.19623">
        <ele>1361.1999511719</ele>
        <time>2012-10-20T07:51:58.000Z</time>
      </trkpt>
      <trkpt lat="43.99933" lon="7.19629">
        <ele>1362.5999755859</ele>
        <time>2012-10-20T07:52:04.000Z</time>
      </trkpt>
      <trkpt lat="43.99942" lon="7.19631">
        <ele>1362.5999755859</ele>
        <time>2012-10-20T07:52:09.000Z</time>
      </trkpt>
      <trkpt lat="43.9995" lon="7.19629">
        <ele>1361.4000244141</ele>
        <time>2012-10-20T07:52:13.000Z</time>
      </trkpt>
      <trkpt lat="43.99965" lon="7.19625">
        <ele>1358.5999755859</ele>
        <time>2012-10-20T07:52:18.000Z</time>
      </trkpt>
      <trkpt lat="43.99979" lon="7.19621">
        <ele>1356.1999511719</ele>
        <time>2012-10-20T07:52:23.000Z</time>
      </trkpt>
      <trkpt lat="43.99995" lon="7.19622">
        <ele>1355.4000244141</ele>
        <time>2012-10-20T07:52:28.000Z</time>
      </trkpt>
      <trkpt lat="44.00012" lon="7.19619">
        <ele>1354</ele>
        <time>2012-10-20T07:52:34.000Z</time>
      </trkpt>
      <trkpt lat="44.00027" lon="7.19624">
        <ele>1355.5999755859</ele>
        <time>2012-10-20T07:52:39.000Z</time>
      </trkpt>
      <trkpt lat="44.00034" lon="7.19627">
        <ele>1356.8000488281</ele>
        <time>2012-10-20T07:52:41.000Z</time>
      </trkpt>
      <trkpt lat="44.00049" lon="7.19635">
        <ele>1350.8000488281</ele>
        <time>2012-10-20T07:52:47.000Z</time>
      </trkpt>
      <trkpt lat="44.00052" lon="7.19637">
        <ele>1351</ele>
        <time>2012-10-20T07:52:48.000Z</time>
      </trkpt>
      <trkpt lat="44.0007" lon="7.19654">
        <ele>1353.4000244141</ele>
        <time>2012-10-20T07:52:55.000Z</time>
      </trkpt>
      <trkpt lat="44.00085" lon="7.19671">
        <ele>1355.8000488281</ele>
        <time>2012-10-20T07:53:02.000Z</time>
      </trkpt>
      <trkpt lat="44.00092" lon="7.19689">
        <ele>1358.8000488281</ele>
        <time>2012-10-20T07:53:08.000Z</time>
      </trkpt>
      <trkpt lat="44.00094" lon="7.19701">
        <ele>1361.1999511719</ele>
        <time>2012-10-20T07:53:11.000Z</time>
      </trkpt>
      <trkpt lat="44.00093" lon="7.19721">
        <ele>1366.5999755859</ele>
        <time>2012-10-20T07:53:18.000Z</time>
      </trkpt>
      <trkpt lat="44.00098" lon="7.19738">
        <ele>1370</ele>
        <time>2012-10-20T07:53:23.000Z</time>
      </trkpt>
      <trkpt lat="44.00107" lon="7.19753">
        <ele>1372.1999511719</ele>
        <time>2012-10-20T07:53:28.000Z</time>
      </trkpt>
      <trkpt lat="44.00107" lon="7.19756">
        <ele>1373</ele>
        <time>2012-10-20T07:53:29.000Z</time>
      </trkpt>
      <trkpt lat="44.00123" lon="7.19764">
        <ele>1372.4000244141</ele>
        <time>2012-10-20T07:53:36.000Z</time>
      </trkpt>
      <trkpt lat="44.00131" lon="7.19764">
        <ele>1370.4000244141</ele>
        <time>2012-10-20T07:53:41.000Z</time>
      </trkpt>
      <trkpt lat="44.00145" lon="7.19764">
        <ele>1367.5999755859</ele>
        <time>2012-10-20T07:53:47.000Z</time>
      </trkpt>
      <trkpt lat="44.00149" lon="7.19763">
        <ele>1366.5999755859</ele>
        <time>2012-10-20T07:53:49.000Z</time>
      </trkpt>
      <trkpt lat="44.00158" lon="7.19765">
        <ele>1365.1999511719</ele>
        <time>2012-10-20T07:53:53.000Z</time>
      </trkpt>
      <trkpt lat="44.00175" lon="7.19767">
        <ele>1363.4000244141</ele>
        <time>2012-10-20T07:53:59.000Z</time>
      </trkpt>
      <trkpt lat="44.00184" lon="7.19771">
        <ele>1364.1999511719</ele>
        <time>2012-10-20T07:54:03.000Z</time>
      </trkpt>
      <trkpt lat="44.00187" lon="7.19773">
        <ele>1364.5999755859</ele>
        <time>2012-10-20T07:54:04.000Z</time>
      </trkpt>
      <trkpt lat="44.002" lon="7.19779">
        <ele>1365.8000488281</ele>
        <time>2012-10-20T07:54:10.000Z</time>
      </trkpt>
      <trkpt lat="44.00206" lon="7.19781">
        <ele>1366</ele>
        <time>2012-10-20T07:54:12.000Z</time>
      </trkpt>
      <trkpt lat="44.00226" lon="7.19782">
        <ele>1365.4000244141</ele>
        <time>2012-10-20T07:54:18.000Z</time>
      </trkpt>
      <trkpt lat="44.0024" lon="7.19778">
        <ele>1363.4000244141</ele>
        <time>2012-10-20T07:54:23.000Z</time>
      </trkpt>
      <trkpt lat="44.00253" lon="7.19773">
        <ele>1361.5999755859</ele>
        <time>2012-10-20T07:54:27.000Z</time>
      </trkpt>
      <trkpt lat="44.00269" lon="7.19771">
        <ele>1359.8000488281</ele>
        <time>2012-10-20T07:54:32.000Z</time>
      </trkpt>
      <trkpt lat="44.00277" lon="7.19771">
        <ele>1359.1999511719</ele>
        <time>2012-10-20T07:54:34.000Z</time>
      </trkpt>
      <trkpt lat="44.0029" lon="7.19773">
        <ele>1359</ele>
        <time>2012-10-20T07:54:37.000Z</time>
      </trkpt>
      <trkpt lat="44.00304" lon="7.19777">
        <ele>1359.1999511719</ele>
        <time>2012-10-20T07:54:41.000Z</time>
      </trkpt>
      <trkpt lat="44.00318" lon="7.19785">
        <ele>1360.4000244141</ele>
        <time>2012-10-20T07:54:47.000Z</time>
      </trkpt>
      <trkpt lat="44.00322" lon="7.19789">
        <ele>1361</ele>
        <time>2012-10-20T07:54:53.000Z</time>
      </trkpt>
      <trkpt lat="44.00324" lon="7.19783">
        <ele>1359.1999511719</ele>
        <time>2012-10-20T07:55:25.000Z</time>
      </trkpt>
      <trkpt lat="44.00321" lon="7.19786">
        <ele>1360.1999511719</ele>
        <time>2012-10-20T07:55:34.000Z</time>
      </trkpt>
      <trkpt lat="44.00316" lon="7.19788">
        <ele>1361.1999511719</ele>
        <time>2012-10-20T07:55:39.000Z</time>
      </trkpt>
      <trkpt lat="44.00314" lon="7.19788">
        <ele>1361.4000244141</ele>
        <time>2012-10-20T07:55:43.000Z</time>
      </trkpt>
      <trkpt lat="44.00307" lon="7.19791">
        <ele>1362.5999755859</ele>
        <time>2012-10-20T07:55:50.000Z</time>
      </trkpt>
      <trkpt lat="44.00304" lon="7.19793">
        <ele>1363.5999755859</ele>
        <time>2012-10-20T07:55:58.000Z</time>
      </trkpt>
      <trkpt lat="44.00295" lon="7.19796">
        <ele>1364.8000488281</ele>
        <time>2012-10-20T07:56:17.000Z</time>
      </trkpt>
      <trkpt lat="44.00291" lon="7.19785">
        <ele>1362.1999511719</ele>
        <time>2012-10-20T07:56:26.000Z</time>
      </trkpt>
      <trkpt lat="44.00289" lon="7.19779">
        <ele>1360.5999755859</ele>
        <time>2012-10-20T07:56:40.000Z</time>
      </trkpt>
      <trkpt lat="44.00296" lon="7.1978">
        <ele>1360.5999755859</ele>
        <time>2012-10-20T07:57:26.000Z</time>
      </trkpt>
      <trkpt lat="44.00289" lon="7.19785">
        <ele>1362.1999511719</ele>
        <time>2012-10-20T07:58:08.000Z</time>
      </trkpt>
      <trkpt lat="44.00289" lon="7.19775">
        <ele>1359.5999755859</ele>
        <time>2012-10-20T07:59:49.000Z</time>
      </trkpt>
      <trkpt lat="44.00295" lon="7.19771">
        <ele>1358.1999511719</ele>
        <time>2012-10-20T08:00:09.000Z</time>
      </trkpt>
      <trkpt lat="44.00298" lon="7.19766">
        <ele>1356.4000244141</ele>
        <time>2012-10-20T08:00:36.000Z</time>
      </trkpt>
      <trkpt lat="44.00295" lon="7.19761">
        <ele>1355.4000244141</ele>
        <time>2012-10-20T08:00:59.000Z</time>
      </trkpt>
      <trkpt lat="44.00291" lon="7.19775">
        <ele>1359.5999755859</ele>
        <time>2012-10-20T08:02:14.000Z</time>
      </trkpt>
      <trkpt lat="44.00295" lon="7.19773">
        <ele>1358.5999755859</ele>
        <time>2012-10-20T08:02:30.000Z</time>
      </trkpt>
      <trkpt lat="44.00295" lon="7.19776">
        <ele>1359.4000244141</ele>
        <time>2012-10-20T08:02:45.000Z</time>
      </trkpt>
      <trkpt lat="44.00296" lon="7.19775">
        <ele>1359.1999511719</ele>
        <time>2012-10-20T08:02:58.000Z</time>
      </trkpt>
      <trkpt lat="44.00295" lon="7.19771">
        <ele>1358</ele>
        <time>2012-10-20T08:03:07.000Z</time>
      </trkpt>
      <trkpt lat="44.00297" lon="7.1977">
        <ele>1357.5999755859</ele>
        <time>2012-10-20T08:03:36.000Z</time>
      </trkpt>
      <trkpt lat="44.00299" lon="7.19765">
        <ele>1356.1999511719</ele>
        <time>2012-10-20T08:03:50.000Z</time>
      </trkpt>
      <trkpt lat="44.00296" lon="7.19773">
        <ele>1358.5999755859</ele>
        <time>2012-10-20T08:04:24.000Z</time>
      </trkpt>
      <trkpt lat="44.00294" lon="7.19773">
        <ele>1358.5999755859</ele>
        <time>2012-10-20T08:04:32.000Z</time>
      </trkpt>
      <trkpt lat="44.00293" lon="7.1977">
        <ele>1358</ele>
        <time>2012-10-20T08:04:42.000Z</time>
      </trkpt>
      <trkpt lat="44.0029" lon="7.19764">
        <ele>1356.5999755859</ele>
        <time>2012-10-20T08:04:51.000Z</time>
      </trkpt>
      <trkpt lat="44.00291" lon="7.19762">
        <ele>1356</ele>
        <time>2012-10-20T08:05:12.000Z</time>
      </trkpt>
      <trkpt lat="44.00278" lon="7.19759">
        <ele>1356</ele>
        <time>2012-10-20T08:05:58.000Z</time>
      </trkpt>
      <trkpt lat="44.00285" lon="7.19774">
        <ele>1359.5999755859</ele>
        <time>2012-10-20T08:06:16.000Z</time>
      </trkpt>
      <trkpt lat="44.00286" lon="7.19775">
        <ele>1359.8000488281</ele>
        <time>2012-10-20T08:06:22.000Z</time>
      </trkpt>
      <trkpt lat="44.00281" lon="7.19774">
        <ele>1359.8000488281</ele>
        <time>2012-10-20T08:06:28.000Z</time>
      </trkpt>
      <trkpt lat="44.00271" lon="7.19775">
        <ele>1360.8000488281</ele>
        <time>2012-10-20T08:06:33.000Z</time>
      </trkpt>
      <trkpt lat="44.00268" lon="7.19777">
        <ele>1361.4000244141</ele>
        <time>2012-10-20T08:06:35.000Z</time>
      </trkpt>
      <trkpt lat="44.00267" lon="7.1978">
        <ele>1362.4000244141</ele>
        <time>2012-10-20T08:06:38.000Z</time>
      </trkpt>
      <trkpt lat="44.00262" lon="7.19781">
        <ele>1363.1999511719</ele>
        <time>2012-10-20T08:06:42.000Z</time>
      </trkpt>
      <trkpt lat="44.00253" lon="7.1977">
        <ele>1360.4000244141</ele>
        <time>2012-10-20T08:06:47.000Z</time>
      </trkpt>
      <trkpt lat="44.00249" lon="7.19768">
        <ele>1360.1999511719</ele>
        <time>2012-10-20T08:06:49.000Z</time>
      </trkpt>
      <trkpt lat="44.00244" lon="7.19764">
        <ele>1359.4000244141</ele>
        <time>2012-10-20T08:06:51.000Z</time>
      </trkpt>
      <trkpt lat="44.00238" lon="7.19754">
        <ele>1356.8000488281</ele>
        <time>2012-10-20T08:06:57.000Z</time>
      </trkpt>
      <trkpt lat="44.00228" lon="7.1974">
        <ele>1353</ele>
        <time>2012-10-20T08:07:10.000Z</time>
      </trkpt>
      <trkpt lat="44.00227" lon="7.19739">
        <ele>1352.5999755859</ele>
        <time>2012-10-20T08:07:17.000Z</time>
      </trkpt>
      <trkpt lat="44.00228" lon="7.19734">
        <ele>1351.1999511719</ele>
        <time>2012-10-20T08:07:21.000Z</time>
      </trkpt>
      <trkpt lat="44.00232" lon="7.19731">
        <ele>1350.1999511719</ele>
        <time>2012-10-20T08:07:23.000Z</time>
      </trkpt>
      <trkpt lat="44.00242" lon="7.19726">
        <ele>1348</ele>
        <time>2012-10-20T08:07:29.000Z</time>
      </trkpt>
      <trkpt lat="44.00252" lon="7.19721">
        <ele>1345.8000488281</ele>
        <time>2012-10-20T08:07:34.000Z</time>
      </trkpt>
      <trkpt lat="44.00268" lon="7.1971">
        <ele>1341.5999755859</ele>
        <time>2012-10-20T08:07:40.000Z</time>
      </trkpt>
      <trkpt lat="44.00268" lon="7.19713">
        <ele>1342.5999755859</ele>
        <time>2012-10-20T08:07:45.000Z</time>
      </trkpt>
      <trkpt lat="44.00268" lon="7.19719">
        <ele>1344.1999511719</ele>
        <time>2012-10-20T08:07:59.000Z</time>
      </trkpt>
      <trkpt lat="44.00266" lon="7.19723">
        <ele>1345.5999755859</ele>
        <time>2012-10-20T08:08:02.000Z</time>
      </trkpt>
      <trkpt lat="44.00259" lon="7.19728">
        <ele>1347.8000488281</ele>
        <time>2012-10-20T08:08:10.000Z</time>
      </trkpt>
      <trkpt lat="44.00255" lon="7.19731">
        <ele>1348.5999755859</ele>
        <time>2012-10-20T08:08:17.000Z</time>
      </trkpt>
      <trkpt lat="44.00249" lon="7.19731">
        <ele>1349.1999511719</ele>
        <time>2012-10-20T08:08:22.000Z</time>
      </trkpt>
      <trkpt lat="44.00244" lon="7.19732">
        <ele>1349.8000488281</ele>
        <time>2012-10-20T08:08:26.000Z</time>
      </trkpt>
      <trkpt lat="44.0024" lon="7.1973">
        <ele>1349.4000244141</ele>
        <time>2012-10-20T08:08:30.000Z</time>
      </trkpt>
      <trkpt lat="44.00236" lon="7.19733">
        <ele>1350.5999755859</ele>
        <time>2012-10-20T08:08:37.000Z</time>
      </trkpt>
      <trkpt lat="44.00234" lon="7.19729">
        <ele>1349.5999755859</ele>
        <time>2012-10-20T08:08:46.000Z</time>
      </trkpt>
      <trkpt lat="44.00234" lon="7.19734">
        <ele>1350.8000488281</ele>
        <time>2012-10-20T08:08:56.000Z</time>
      </trkpt>
      <trkpt lat="44.00233" lon="7.19739">
        <ele>1352.4000244141</ele>
        <time>2012-10-20T08:09:02.000Z</time>
      </trkpt>
      <trkpt lat="44.00231" lon="7.1974">
        <ele>1352.8000488281</ele>
        <time>2012-10-20T08:09:04.000Z</time>
      </trkpt>
      <trkpt lat="44.00227" lon="7.1974">
        <ele>1353.1999511719</ele>
        <time>2012-10-20T08:09:07.000Z</time>
      </trkpt>
      <trkpt lat="44.00213" lon="7.19733">
        <ele>1351.8000488281</ele>
        <time>2012-10-20T08:09:14.000Z</time>
      </trkpt>
      <trkpt lat="44.00206" lon="7.19727">
        <ele>1350.5999755859</ele>
        <time>2012-10-20T08:09:19.000Z</time>
      </trkpt>
      <trkpt lat="44.00192" lon="7.19716">
        <ele>1348.4000244141</ele>
        <time>2012-10-20T08:09:25.000Z</time>
      </trkpt>
      <trkpt lat="44.00186" lon="7.19705">
        <ele>1345.8000488281</ele>
        <time>2012-10-20T08:09:29.000Z</time>
      </trkpt>
      <trkpt lat="44.00185" lon="7.19692">
        <ele>1342.1999511719</ele>
        <time>2012-10-20T08:09:33.000Z</time>
      </trkpt>
      <trkpt lat="44.00175" lon="7.19678">
        <ele>1339.1999511719</ele>
        <time>2012-10-20T08:09:38.000Z</time>
      </trkpt>
      <trkpt lat="44.0017" lon="7.19656">
        <ele>1333.4000244141</ele>
        <time>2012-10-20T08:09:43.000Z</time>
      </trkpt>
      <trkpt lat="44.00169" lon="7.19647">
        <ele>1330.1999511719</ele>
        <time>2012-10-20T08:09:45.000Z</time>
      </trkpt>
      <trkpt lat="44.00168" lon="7.19628">
        <ele>1324.1999511719</ele>
        <time>2012-10-20T08:09:50.000Z</time>
      </trkpt>
      <trkpt lat="44.0017" lon="7.1962">
        <ele>1321.5999755859</ele>
        <time>2012-10-20T08:09:53.000Z</time>
      </trkpt>
      <trkpt lat="44.00168" lon="7.19607">
        <ele>1317.4000244141</ele>
        <time>2012-10-20T08:09:59.000Z</time>
      </trkpt>
      <trkpt lat="44.00168" lon="7.19604">
        <ele>1316.5999755859</ele>
        <time>2012-10-20T08:10:00.000Z</time>
      </trkpt>
      <trkpt lat="44.00173" lon="7.19596">
        <ele>1313.4000244141</ele>
        <time>2012-10-20T08:10:06.000Z</time>
      </trkpt>
      <trkpt lat="44.00178" lon="7.19595">
        <ele>1312.4000244141</ele>
        <time>2012-10-20T08:10:12.000Z</time>
      </trkpt>
      <trkpt lat="44.00176" lon="7.19593">
        <ele>1311.8000488281</ele>
        <time>2012-10-20T08:10:14.000Z</time>
      </trkpt>
      <trkpt lat="44.00176" lon="7.1959">
        <ele>1311</ele>
        <time>2012-10-20T08:10:18.000Z</time>
      </trkpt>
      <trkpt lat="44.00174" lon="7.1957">
        <ele>1304.4000244141</ele>
        <time>2012-10-20T08:10:24.000Z</time>
      </trkpt>
      <trkpt lat="44.00174" lon="7.19568">
        <ele>1303.4000244141</ele>
        <time>2012-10-20T08:10:25.000Z</time>
      </trkpt>
      <trkpt lat="44.00182" lon="7.1956">
        <ele>1299.8000488281</ele>
        <time>2012-10-20T08:10:31.000Z</time>
      </trkpt>
      <trkpt lat="44.00183" lon="7.19558">
        <ele>1299</ele>
        <time>2012-10-20T08:10:32.000Z</time>
      </trkpt>
      <trkpt lat="44.00184" lon="7.19554">
        <ele>1297.1999511719</ele>
        <time>2012-10-20T08:10:34.000Z</time>
      </trkpt>
      <trkpt lat="44.00188" lon="7.19541">
        <ele>1292.1999511719</ele>
        <time>2012-10-20T08:10:39.000Z</time>
      </trkpt>
      <trkpt lat="44.00201" lon="7.1953">
        <ele>1286.8000488281</ele>
        <time>2012-10-20T08:10:44.000Z</time>
      </trkpt>
      <trkpt lat="44.00205" lon="7.19523">
        <ele>1284</ele>
        <time>2012-10-20T08:10:49.000Z</time>
      </trkpt>
      <trkpt lat="44.00195" lon="7.19509">
        <ele>1280</ele>
        <time>2012-10-20T08:10:54.000Z</time>
      </trkpt>
      <trkpt lat="44.00188" lon="7.19498">
        <ele>1277</ele>
        <time>2012-10-20T08:10:59.000Z</time>
      </trkpt>
      <trkpt lat="44.00189" lon="7.19484">
        <ele>1273.5999755859</ele>
        <time>2012-10-20T08:11:03.000Z</time>
      </trkpt>
      <trkpt lat="44.00186" lon="7.19469">
        <ele>1270.1999511719</ele>
        <time>2012-10-20T08:11:07.000Z</time>
      </trkpt>
      <trkpt lat="44.00175" lon="7.19446">
        <ele>1266.8000488281</ele>
        <time>2012-10-20T08:11:13.000Z</time>
      </trkpt>
      <trkpt lat="44.00169" lon="7.19427">
        <ele>1263.8000488281</ele>
        <time>2012-10-20T08:11:18.000Z</time>
      </trkpt>
      <trkpt lat="44.00171" lon="7.19414">
        <ele>1260.4000244141</ele>
        <time>2012-10-20T08:11:22.000Z</time>
      </trkpt>
      <trkpt lat="44.00174" lon="7.19402">
        <ele>1256</ele>
        <time>2012-10-20T08:11:26.000Z</time>
      </trkpt>
      <trkpt lat="44.00169" lon="7.19387">
        <ele>1253</ele>
        <time>2012-10-20T08:11:30.000Z</time>
      </trkpt>
      <trkpt lat="44.00164" lon="7.19382">
        <ele>1252.1999511719</ele>
        <time>2012-10-20T08:11:33.000Z</time>
      </trkpt>
      <trkpt lat="44.00162" lon="7.19368">
        <ele>1248.4000244141</ele>
        <time>2012-10-20T08:11:38.000Z</time>
      </trkpt>
      <trkpt lat="44.00165" lon="7.19364">
        <ele>1247.4000244141</ele>
        <time>2012-10-20T08:11:40.000Z</time>
      </trkpt>
      <trkpt lat="44.00179" lon="7.19359">
        <ele>1242.1999511719</ele>
        <time>2012-10-20T08:11:46.000Z</time>
      </trkpt>
      <trkpt lat="44.00176" lon="7.19354">
        <ele>1241.8000488281</ele>
        <time>2012-10-20T08:11:51.000Z</time>
      </trkpt>
      <trkpt lat="44.00175" lon="7.19352">
        <ele>1241.5999755859</ele>
        <time>2012-10-20T08:12:02.000Z</time>
      </trkpt>
      <trkpt lat="44.00174" lon="7.19351">
        <ele>1241.5999755859</ele>
        <time>2012-10-20T08:12:05.000Z</time>
      </trkpt>
      <trkpt lat="44.00167" lon="7.1933">
        <ele>1237.8000488281</ele>
        <time>2012-10-20T08:12:11.000Z</time>
      </trkpt>
      <trkpt lat="44.00159" lon="7.19318">
        <ele>1233.4000244141</ele>
        <time>2012-10-20T08:12:15.000Z</time>
      </trkpt>
      <trkpt lat="44.00146" lon="7.19307">
        <ele>1229</ele>
        <time>2012-10-20T08:12:20.000Z</time>
      </trkpt>
      <trkpt lat="44.00144" lon="7.19304">
        <ele>1227.8000488281</ele>
        <time>2012-10-20T08:12:21.000Z</time>
      </trkpt>
      <trkpt lat="44.00155" lon="7.19295">
        <ele>1225.4000244141</ele>
        <time>2012-10-20T08:12:26.000Z</time>
      </trkpt>
      <trkpt lat="44.00162" lon="7.19292">
        <ele>1224.5999755859</ele>
        <time>2012-10-20T08:12:30.000Z</time>
      </trkpt>
      <trkpt lat="44.00172" lon="7.19288">
        <ele>1222</ele>
        <time>2012-10-20T08:12:35.000Z</time>
      </trkpt>
      <trkpt lat="44.00185" lon="7.19278">
        <ele>1214.8000488281</ele>
        <time>2012-10-20T08:12:40.000Z</time>
      </trkpt>
      <trkpt lat="44.00187" lon="7.19262">
        <ele>1208.8000488281</ele>
        <time>2012-10-20T08:12:45.000Z</time>
      </trkpt>
      <trkpt lat="44.00192" lon="7.19254">
        <ele>1204.8000488281</ele>
        <time>2012-10-20T08:12:48.000Z</time>
      </trkpt>
      <trkpt lat="44.00201" lon="7.19233">
        <ele>1196.1999511719</ele>
        <time>2012-10-20T08:12:53.000Z</time>
      </trkpt>
      <trkpt lat="44.00203" lon="7.19218">
        <ele>1191.4000244141</ele>
        <time>2012-10-20T08:12:57.000Z</time>
      </trkpt>
      <trkpt lat="44.00205" lon="7.19202">
        <ele>1186.5999755859</ele>
        <time>2012-10-20T08:13:03.000Z</time>
      </trkpt>
      <trkpt lat="44.00206" lon="7.19186">
        <ele>1182.1999511719</ele>
        <time>2012-10-20T08:13:08.000Z</time>
      </trkpt>
      <trkpt lat="44.00208" lon="7.19166">
        <ele>1176.4000244141</ele>
        <time>2012-10-20T08:13:13.000Z</time>
      </trkpt>
      <trkpt lat="44.00209" lon="7.19149">
        <ele>1171.5999755859</ele>
        <time>2012-10-20T08:13:17.000Z</time>
      </trkpt>
      <trkpt lat="44.00215" lon="7.19147">
        <ele>1170.1999511719</ele>
        <time>2012-10-20T08:13:21.000Z</time>
      </trkpt>
      <trkpt lat="44.00218" lon="7.19147">
        <ele>1170</ele>
        <time>2012-10-20T08:13:27.000Z</time>
      </trkpt>
      <trkpt lat="44.00221" lon="7.19131">
        <ele>1165.8000488281</ele>
        <time>2012-10-20T08:13:32.000Z</time>
      </trkpt>
      <trkpt lat="44.00221" lon="7.19113">
        <ele>1161.4000244141</ele>
        <time>2012-10-20T08:13:37.000Z</time>
      </trkpt>
      <trkpt lat="44.00223" lon="7.19104">
        <ele>1159</ele>
        <time>2012-10-20T08:13:39.000Z</time>
      </trkpt>
      <trkpt lat="44.00222" lon="7.1909">
        <ele>1155.8000488281</ele>
        <time>2012-10-20T08:13:44.000Z</time>
      </trkpt>
      <trkpt lat="44.00211" lon="7.1908">
        <ele>1153.1999511719</ele>
        <time>2012-10-20T08:13:49.000Z</time>
      </trkpt>
      <trkpt lat="44.00207" lon="7.19079">
        <ele>1152.8000488281</ele>
        <time>2012-10-20T08:13:52.000Z</time>
      </trkpt>
      <trkpt lat="44.00211" lon="7.19072">
        <ele>1150.1999511719</ele>
        <time>2012-10-20T08:13:56.000Z</time>
      </trkpt>
      <trkpt lat="44.00217" lon="7.19064">
        <ele>1147.5999755859</ele>
        <time>2012-10-20T08:13:59.000Z</time>
      </trkpt>
      <trkpt lat="44.00215" lon="7.19059">
        <ele>1145.5999755859</ele>
        <time>2012-10-20T08:14:04.000Z</time>
      </trkpt>
      <trkpt lat="44.0021" lon="7.19057">
        <ele>1145</ele>
        <time>2012-10-20T08:14:08.000Z</time>
      </trkpt>
      <trkpt lat="44.00208" lon="7.19055">
        <ele>1144.1999511719</ele>
        <time>2012-10-20T08:14:10.000Z</time>
      </trkpt>
      <trkpt lat="44.00202" lon="7.19056">
        <ele>1144.1999511719</ele>
        <time>2012-10-20T08:14:15.000Z</time>
      </trkpt>
      <trkpt lat="44.00202" lon="7.19053">
        <ele>1143.4000244141</ele>
        <time>2012-10-20T08:14:16.000Z</time>
      </trkpt>
      <trkpt lat="44.00203" lon="7.19049">
        <ele>1141.8000488281</ele>
        <time>2012-10-20T08:14:18.000Z</time>
      </trkpt>
      <trkpt lat="44.00215" lon="7.19041">
        <ele>1139.1999511719</ele>
        <time>2012-10-20T08:14:22.000Z</time>
      </trkpt>
      <trkpt lat="44.00222" lon="7.19036">
        <ele>1137.5999755859</ele>
        <time>2012-10-20T08:14:25.000Z</time>
      </trkpt>
      <trkpt lat="44.00224" lon="7.19034">
        <ele>1137.1999511719</ele>
        <time>2012-10-20T08:14:26.000Z</time>
      </trkpt>
      <trkpt lat="44.00224" lon="7.19034">
        <ele>1137.1999511719</ele>
        <time>2012-10-20T08:14:26.000Z</time>
      </trkpt>
      <trkpt lat="44.00214" lon="7.19031">
        <ele>1135.8000488281</ele>
        <time>2012-10-20T08:14:30.000Z</time>
      </trkpt>
      <trkpt lat="44.00212" lon="7.1903">
        <ele>1135.1999511719</ele>
        <time>2012-10-20T08:14:31.000Z</time>
      </trkpt>
      <trkpt lat="44.00207" lon="7.19027">
        <ele>1134</ele>
        <time>2012-10-20T08:14:35.000Z</time>
      </trkpt>
      <trkpt lat="44.00205" lon="7.19025">
        <ele>1133</ele>
        <time>2012-10-20T08:14:37.000Z</time>
      </trkpt>
      <trkpt lat="44.00207" lon="7.1902">
        <ele>1131.1999511719</ele>
        <time>2012-10-20T08:14:42.000Z</time>
      </trkpt>
      <trkpt lat="44.0021" lon="7.1901">
        <ele>1127.8000488281</ele>
        <time>2012-10-20T08:14:46.000Z</time>
      </trkpt>
      <trkpt lat="44.00212" lon="7.19005">
        <ele>1126</ele>
        <time>2012-10-20T08:14:49.000Z</time>
      </trkpt>
      <trkpt lat="44.00217" lon="7.19001">
        <ele>1124.8000488281</ele>
        <time>2012-10-20T08:14:51.000Z</time>
      </trkpt>
      <trkpt lat="44.00228" lon="7.18988">
        <ele>1120.1999511719</ele>
        <time>2012-10-20T08:14:56.000Z</time>
      </trkpt>
      <trkpt lat="44.00234" lon="7.18983">
        <ele>1118.8000488281</ele>
        <time>2012-10-20T08:15:01.000Z</time>
      </trkpt>
      <trkpt lat="44.00233" lon="7.18974">
        <ele>1115</ele>
        <time>2012-10-20T08:15:05.000Z</time>
      </trkpt>
      <trkpt lat="44.00231" lon="7.18971">
        <ele>1113.1999511719</ele>
        <time>2012-10-20T08:15:07.000Z</time>
      </trkpt>
      <trkpt lat="44.00234" lon="7.18965">
        <ele>1111.1999511719</ele>
        <time>2012-10-20T08:15:11.000Z</time>
      </trkpt>
      <trkpt lat="44.00242" lon="7.1897">
        <ele>1114.1999511719</ele>
        <time>2012-10-20T08:15:15.000Z</time>
      </trkpt>
      <trkpt lat="44.00243" lon="7.18965">
        <ele>1112.1999511719</ele>
        <time>2012-10-20T08:15:19.000Z</time>
      </trkpt>
      <trkpt lat="44.00242" lon="7.18959">
        <ele>1109.1999511719</ele>
        <time>2012-10-20T08:15:21.000Z</time>
      </trkpt>
      <trkpt lat="44.00235" lon="7.18943">
        <ele>1101.8000488281</ele>
        <time>2012-10-20T08:15:26.000Z</time>
      </trkpt>
      <trkpt lat="44.00229" lon="7.18938">
        <ele>1099</ele>
        <time>2012-10-20T08:15:29.000Z</time>
      </trkpt>
      <trkpt lat="44.0022" lon="7.18936">
        <ele>1097</ele>
        <time>2012-10-20T08:15:34.000Z</time>
      </trkpt>
      <trkpt lat="44.00208" lon="7.18939">
        <ele>1097</ele>
        <time>2012-10-20T08:15:37.000Z</time>
      </trkpt>
      <trkpt lat="44.00204" lon="7.18937">
        <ele>1095.5999755859</ele>
        <time>2012-10-20T08:15:41.000Z</time>
      </trkpt>
      <trkpt lat="44.00218" lon="7.18924">
        <ele>1091.5999755859</ele>
        <time>2012-10-20T08:15:45.000Z</time>
      </trkpt>
      <trkpt lat="44.00237" lon="7.18916">
        <ele>1090.8000488281</ele>
        <time>2012-10-20T08:15:49.000Z</time>
      </trkpt>
      <trkpt lat="44.00253" lon="7.18912">
        <ele>1088.4000244141</ele>
        <time>2012-10-20T08:15:52.000Z</time>
      </trkpt>
      <trkpt lat="44.0026" lon="7.18909">
        <ele>1081.4000244141</ele>
        <time>2012-10-20T08:15:56.000Z</time>
      </trkpt>
      <trkpt lat="44.00259" lon="7.18906">
        <ele>1081</ele>
        <time>2012-10-20T08:15:59.000Z</time>
      </trkpt>
      <trkpt lat="44.00251" lon="7.18904">
        <ele>1085.5999755859</ele>
        <time>2012-10-20T08:16:04.000Z</time>
      </trkpt>
      <trkpt lat="44.00249" lon="7.18904">
        <ele>1086.1999511719</ele>
        <time>2012-10-20T08:16:05.000Z</time>
      </trkpt>
      <trkpt lat="44.00248" lon="7.189">
        <ele>1084</ele>
        <time>2012-10-20T08:16:08.000Z</time>
      </trkpt>
      <trkpt lat="44.00257" lon="7.18896">
        <ele>1077</ele>
        <time>2012-10-20T08:16:12.000Z</time>
      </trkpt>
      <trkpt lat="44.00279" lon="7.18884">
        <ele>1059</ele>
        <time>2012-10-20T08:16:17.000Z</time>
      </trkpt>
      <trkpt lat="44.00281" lon="7.18883">
        <ele>1057</ele>
        <time>2012-10-20T08:16:21.000Z</time>
      </trkpt>
      <trkpt lat="44.00279" lon="7.18882">
        <ele>1057.8000488281</ele>
        <time>2012-10-20T08:16:38.000Z</time>
      </trkpt>
      <trkpt lat="44.00278" lon="7.18875">
        <ele>1055.4000244141</ele>
        <time>2012-10-20T08:16:58.000Z</time>
      </trkpt>
      <trkpt lat="44.0028" lon="7.18878">
        <ele>1055.1999511719</ele>
        <time>2012-10-20T08:17:14.000Z</time>
      </trkpt>
      <trkpt lat="44.00279" lon="7.18873">
        <ele>1054.1999511719</ele>
        <time>2012-10-20T08:17:33.000Z</time>
      </trkpt>
      <trkpt lat="44.00278" lon="7.18875">
        <ele>1055.8000488281</ele>
        <time>2012-10-20T08:17:51.000Z</time>
      </trkpt>
      <trkpt lat="44.00278" lon="7.18877">
        <ele>1056</ele>
        <time>2012-10-20T08:18:04.000Z</time>
      </trkpt>
      <trkpt lat="44.00277" lon="7.18877">
        <ele>1056.5999755859</ele>
        <time>2012-10-20T08:18:06.000Z</time>
      </trkpt>
      <trkpt lat="44.00265" lon="7.18873">
        <ele>1061.5999755859</ele>
        <time>2012-10-20T08:18:11.000Z</time>
      </trkpt>
      <trkpt lat="44.00255" lon="7.1887">
        <ele>1065.1999511719</ele>
        <time>2012-10-20T08:18:17.000Z</time>
      </trkpt>
      <trkpt lat="44.00259" lon="7.18868">
        <ele>1062</ele>
        <time>2012-10-20T08:18:24.000Z</time>
      </trkpt>
      <trkpt lat="44.00262" lon="7.18866">
        <ele>1059.8000488281</ele>
        <time>2012-10-20T08:18:29.000Z</time>
      </trkpt>
      <trkpt lat="44.00252" lon="7.18862">
        <ele>1062.8000488281</ele>
        <time>2012-10-20T08:18:33.000Z</time>
      </trkpt>
      <trkpt lat="44.00242" lon="7.1886">
        <ele>1061.4000244141</ele>
        <time>2012-10-20T08:18:36.000Z</time>
      </trkpt>
      <trkpt lat="44.0023" lon="7.18856">
        <ele>1057</ele>
        <time>2012-10-20T08:18:41.000Z</time>
      </trkpt>
      <trkpt lat="44.0023" lon="7.18853">
        <ele>1055.4000244141</ele>
        <time>2012-10-20T08:18:43.000Z</time>
      </trkpt>
      <trkpt lat="44.00245" lon="7.18847">
        <ele>1054.4000244141</ele>
        <time>2012-10-20T08:18:47.000Z</time>
      </trkpt>
      <trkpt lat="44.00259" lon="7.1884">
        <ele>1048.4000244141</ele>
        <time>2012-10-20T08:18:51.000Z</time>
      </trkpt>
      <trkpt lat="44.00264" lon="7.18836">
        <ele>1044.8000488281</ele>
        <time>2012-10-20T08:18:53.000Z</time>
      </trkpt>
      <trkpt lat="44.00265" lon="7.18836">
        <ele>1044.1999511719</ele>
        <time>2012-10-20T08:18:55.000Z</time>
      </trkpt>
      <trkpt lat="44.00256" lon="7.18835">
        <ele>1046.5999755859</ele>
        <time>2012-10-20T08:19:00.000Z</time>
      </trkpt>
      <trkpt lat="44.00252" lon="7.18833">
        <ele>1047</ele>
        <time>2012-10-20T08:19:04.000Z</time>
      </trkpt>
      <trkpt lat="44.00266" lon="7.18825">
        <ele>1039</ele>
        <time>2012-10-20T08:19:09.000Z</time>
      </trkpt>
      <trkpt lat="44.0027" lon="7.18822">
        <ele>1036.4000244141</ele>
        <time>2012-10-20T08:19:10.000Z</time>
      </trkpt>
      <trkpt lat="44.00286" lon="7.18816">
        <ele>1029.4000244141</ele>
        <time>2012-10-20T08:19:15.000Z</time>
      </trkpt>
      <trkpt lat="44.00287" lon="7.18811">
        <ele>1026.8000488281</ele>
        <time>2012-10-20T08:19:20.000Z</time>
      </trkpt>
      <trkpt lat="44.00291" lon="7.1881">
        <ele>1025.4000244141</ele>
        <time>2012-10-20T08:19:34.000Z</time>
      </trkpt>
      <trkpt lat="44.00295" lon="7.18808">
        <ele>1023.799987793</ele>
        <time>2012-10-20T08:19:41.000Z</time>
      </trkpt>
      <trkpt lat="44.00305" lon="7.18811">
        <ele>1022.4000244141</ele>
        <time>2012-10-20T08:19:46.000Z</time>
      </trkpt>
      <trkpt lat="44.00306" lon="7.18813">
        <ele>1022.4000244141</ele>
        <time>2012-10-20T08:19:47.000Z</time>
      </trkpt>
      <trkpt lat="44.0031" lon="7.18816">
        <ele>1022.5999755859</ele>
        <time>2012-10-20T08:19:51.000Z</time>
      </trkpt>
      <trkpt lat="44.00309" lon="7.18811">
        <ele>1021</ele>
        <time>2012-10-20T08:19:55.000Z</time>
      </trkpt>
      <trkpt lat="44.00304" lon="7.188">
        <ele>1018.5999755859</ele>
        <time>2012-10-20T08:20:01.000Z</time>
      </trkpt>
      <trkpt lat="44.00303" lon="7.18799">
        <ele>1018.200012207</ele>
        <time>2012-10-20T08:20:02.000Z</time>
      </trkpt>
      <trkpt lat="44.00299" lon="7.18792">
        <ele>1016.5999755859</ele>
        <time>2012-10-20T08:20:07.000Z</time>
      </trkpt>
      <trkpt lat="44.00295" lon="7.18788">
        <ele>1016</ele>
        <time>2012-10-20T08:20:09.000Z</time>
      </trkpt>
      <trkpt lat="44.00292" lon="7.18785">
        <ele>1015.4000244141</ele>
        <time>2012-10-20T08:20:11.000Z</time>
      </trkpt>
      <trkpt lat="44.00303" lon="7.18778">
        <ele>1010.5999755859</ele>
        <time>2012-10-20T08:20:16.000Z</time>
      </trkpt>
      <trkpt lat="44.00306" lon="7.18774">
        <ele>1008.5999755859</ele>
        <time>2012-10-20T08:20:19.000Z</time>
      </trkpt>
      <trkpt lat="44.00298" lon="7.18766">
        <ele>1006.799987793</ele>
        <time>2012-10-20T08:20:22.000Z</time>
      </trkpt>
      <trkpt lat="44.00284" lon="7.1876">
        <ele>1006.5999755859</ele>
        <time>2012-10-20T08:20:26.000Z</time>
      </trkpt>
      <trkpt lat="44.0026" lon="7.18753">
        <ele>1006.5999755859</ele>
        <time>2012-10-20T08:20:32.000Z</time>
      </trkpt>
      <trkpt lat="44.0025" lon="7.18751">
        <ele>1006.5999755859</ele>
        <time>2012-10-20T08:20:35.000Z</time>
      </trkpt>
      <trkpt lat="44.00256" lon="7.18743">
        <ele>1002.200012207</ele>
        <time>2012-10-20T08:20:39.000Z</time>
      </trkpt>
      <trkpt lat="44.00267" lon="7.18728">
        <ele>994.20001220703</ele>
        <time>2012-10-20T08:20:44.000Z</time>
      </trkpt>
      <trkpt lat="44.0027" lon="7.18726">
        <ele>992.59997558594</ele>
        <time>2012-10-20T08:20:46.000Z</time>
      </trkpt>
      <trkpt lat="44.00273" lon="7.18721">
        <ele>990.40002441406</ele>
        <time>2012-10-20T08:20:51.000Z</time>
      </trkpt>
      <trkpt lat="44.00276" lon="7.1872">
        <ele>989.40002441406</ele>
        <time>2012-10-20T08:20:55.000Z</time>
      </trkpt>
      <trkpt lat="44.0027" lon="7.18712">
        <ele>986.40002441406</ele>
        <time>2012-10-20T08:21:00.000Z</time>
      </trkpt>
      <trkpt lat="44.00269" lon="7.18711">
        <ele>985.79998779297</ele>
        <time>2012-10-20T08:21:01.000Z</time>
      </trkpt>
      <trkpt lat="44.00274" lon="7.18704">
        <ele>982.20001220703</ele>
        <time>2012-10-20T08:21:07.000Z</time>
      </trkpt>
      <trkpt lat="44.00273" lon="7.18704">
        <ele>982</ele>
        <time>2012-10-20T08:21:08.000Z</time>
      </trkpt>
      <trkpt lat="44.00263" lon="7.187">
        <ele>981.40002441406</ele>
        <time>2012-10-20T08:21:14.000Z</time>
      </trkpt>
      <trkpt lat="44.00261" lon="7.18699">
        <ele>981.20001220703</ele>
        <time>2012-10-20T08:21:15.000Z</time>
      </trkpt>
      <trkpt lat="44.00268" lon="7.18689">
        <ele>976</ele>
        <time>2012-10-20T08:21:20.000Z</time>
      </trkpt>
      <trkpt lat="44.00286" lon="7.18679">
        <ele>969.59997558594</ele>
        <time>2012-10-20T08:21:26.000Z</time>
      </trkpt>
      <trkpt lat="44.00287" lon="7.18677">
        <ele>968.59997558594</ele>
        <time>2012-10-20T08:21:29.000Z</time>
      </trkpt>
      <trkpt lat="44.00274" lon="7.18674">
        <ele>968.40002441406</ele>
        <time>2012-10-20T08:21:34.000Z</time>
      </trkpt>
      <trkpt lat="44.00272" lon="7.18671">
        <ele>967.20001220703</ele>
        <time>2012-10-20T08:21:36.000Z</time>
      </trkpt>
      <trkpt lat="44.00279" lon="7.18663">
        <ele>963</ele>
        <time>2012-10-20T08:21:42.000Z</time>
      </trkpt>
      <trkpt lat="44.00276" lon="7.18659">
        <ele>961.59997558594</ele>
        <time>2012-10-20T08:21:51.000Z</time>
      </trkpt>
      <trkpt lat="44.0028" lon="7.18655">
        <ele>959.20001220703</ele>
        <time>2012-10-20T08:21:55.000Z</time>
      </trkpt>
      <trkpt lat="44.00291" lon="7.18648">
        <ele>955.20001220703</ele>
        <time>2012-10-20T08:21:59.000Z</time>
      </trkpt>
      <trkpt lat="44.00306" lon="7.18649">
        <ele>953.79998779297</ele>
        <time>2012-10-20T08:22:03.000Z</time>
      </trkpt>
      <trkpt lat="44.00322" lon="7.18652">
        <ele>953.40002441406</ele>
        <time>2012-10-20T08:22:08.000Z</time>
      </trkpt>
      <trkpt lat="44.00324" lon="7.18654">
        <ele>954.40002441406</ele>
        <time>2012-10-20T08:22:12.000Z</time>
      </trkpt>
      <trkpt lat="44.00316" lon="7.18649">
        <ele>953.20001220703</ele>
        <time>2012-10-20T08:22:17.000Z</time>
      </trkpt>
      <trkpt lat="44.00311" lon="7.18647">
        <ele>952.59997558594</ele>
        <time>2012-10-20T08:22:19.000Z</time>
      </trkpt>
      <trkpt lat="44.00315" lon="7.18643">
        <ele>950.20001220703</ele>
        <time>2012-10-20T08:22:23.000Z</time>
      </trkpt>
      <trkpt lat="44.00325" lon="7.18639">
        <ele>946.79998779297</ele>
        <time>2012-10-20T08:22:27.000Z</time>
      </trkpt>
      <trkpt lat="44.00337" lon="7.18638">
        <ele>943.40002441406</ele>
        <time>2012-10-20T08:22:31.000Z</time>
      </trkpt>
      <trkpt lat="44.00357" lon="7.18645">
        <ele>935.79998779297</ele>
        <time>2012-10-20T08:22:37.000Z</time>
      </trkpt>
      <trkpt lat="44.00372" lon="7.18656">
        <ele>932.59997558594</ele>
        <time>2012-10-20T08:22:41.000Z</time>
      </trkpt>
      <trkpt lat="44.00383" lon="7.18662">
        <ele>929</ele>
        <time>2012-10-20T08:22:44.000Z</time>
      </trkpt>
      <trkpt lat="44.00392" lon="7.18665">
        <ele>925.40002441406</ele>
        <time>2012-10-20T08:22:49.000Z</time>
      </trkpt>
      <trkpt lat="44.00403" lon="7.18667">
        <ele>919.79998779297</ele>
        <time>2012-10-20T08:23:00.000Z</time>
      </trkpt>
      <trkpt lat="44.00406" lon="7.18671">
        <ele>919.79998779297</ele>
        <time>2012-10-20T08:23:13.000Z</time>
      </trkpt>
      <trkpt lat="44.00406" lon="7.18672">
        <ele>920</ele>
        <time>2012-10-20T08:23:21.000Z</time>
      </trkpt>
      <trkpt lat="44.00406" lon="7.18673">
        <ele>920</ele>
        <time>2012-10-20T08:23:30.000Z</time>
      </trkpt>
      <trkpt lat="44.00405" lon="7.18671">
        <ele>919.79998779297</ele>
        <time>2012-10-20T08:23:37.000Z</time>
      </trkpt>
      <trkpt lat="44.00408" lon="7.18675">
        <ele>919.40002441406</ele>
        <time>2012-10-20T08:23:49.000Z</time>
      </trkpt>
      <trkpt lat="44.00408" lon="7.18694">
        <ele>926</ele>
        <time>2012-10-20T08:23:56.000Z</time>
      </trkpt>
      <trkpt lat="44.00402" lon="7.18711">
        <ele>934.59997558594</ele>
        <time>2012-10-20T08:24:01.000Z</time>
      </trkpt>
      <trkpt lat="44.00399" lon="7.18735">
        <ele>945</ele>
        <time>2012-10-20T08:24:07.000Z</time>
      </trkpt>
      <trkpt lat="44.00408" lon="7.18749">
        <ele>943.20001220703</ele>
        <time>2012-10-20T08:24:11.000Z</time>
      </trkpt>
      <trkpt lat="44.00417" lon="7.18768">
        <ele>938.40002441406</ele>
        <time>2012-10-20T08:24:17.000Z</time>
      </trkpt>
      <trkpt lat="44.00414" lon="7.18781">
        <ele>942.20001220703</ele>
        <time>2012-10-20T08:24:20.000Z</time>
      </trkpt>
      <trkpt lat="44.00412" lon="7.18793">
        <ele>944.79998779297</ele>
        <time>2012-10-20T08:24:23.000Z</time>
      </trkpt>
      <trkpt lat="44.00426" lon="7.18817">
        <ele>937.59997558594</ele>
        <time>2012-10-20T08:24:30.000Z</time>
      </trkpt>
      <trkpt lat="44.0043" lon="7.18835">
        <ele>937.40002441406</ele>
        <time>2012-10-20T08:24:35.000Z</time>
      </trkpt>
      <trkpt lat="44.00423" lon="7.18855">
        <ele>946.59997558594</ele>
        <time>2012-10-20T08:24:40.000Z</time>
      </trkpt>
      <trkpt lat="44.00415" lon="7.1888">
        <ele>956.59997558594</ele>
        <time>2012-10-20T08:24:46.000Z</time>
      </trkpt>
      <trkpt lat="44.0041" lon="7.189">
        <ele>965.59997558594</ele>
        <time>2012-10-20T08:24:52.000Z</time>
      </trkpt>
      <trkpt lat="44.00406" lon="7.18914">
        <ele>972.59997558594</ele>
        <time>2012-10-20T08:24:57.000Z</time>
      </trkpt>
      <trkpt lat="44.00404" lon="7.1894">
        <ele>981.79998779297</ele>
        <time>2012-10-20T08:25:03.000Z</time>
      </trkpt>
      <trkpt lat="44.00427" lon="7.18944">
        <ele>968.59997558594</ele>
        <time>2012-10-20T08:25:08.000Z</time>
      </trkpt>
      <trkpt lat="44.00434" lon="7.18943">
        <ele>964.79998779297</ele>
        <time>2012-10-20T08:25:09.000Z</time>
      </trkpt>
      <trkpt lat="44.00474" lon="7.18932">
        <ele>942.79998779297</ele>
        <time>2012-10-20T08:25:16.000Z</time>
      </trkpt>
      <trkpt lat="44.00485" lon="7.18928">
        <ele>936</ele>
        <time>2012-10-20T08:25:18.000Z</time>
      </trkpt>
      <trkpt lat="44.00512" lon="7.18931">
        <ele>924.40002441406</ele>
        <time>2012-10-20T08:25:23.000Z</time>
      </trkpt>
      <trkpt lat="44.00514" lon="7.18937">
        <ele>926.40002441406</ele>
        <time>2012-10-20T08:25:24.000Z</time>
      </trkpt>
      <trkpt lat="44.00515" lon="7.18946">
        <ele>930.40002441406</ele>
        <time>2012-10-20T08:25:26.000Z</time>
      </trkpt>
      <trkpt lat="44.00518" lon="7.18972">
        <ele>941.79998779297</ele>
        <time>2012-10-20T08:25:32.000Z</time>
      </trkpt>
      <trkpt lat="44.00516" lon="7.18991">
        <ele>952.20001220703</ele>
        <time>2012-10-20T08:25:38.000Z</time>
      </trkpt>
      <trkpt lat="44.00514" lon="7.19006">
        <ele>960.79998779297</ele>
        <time>2012-10-20T08:25:43.000Z</time>
      </trkpt>
      <trkpt lat="44.00509" lon="7.19018">
        <ele>970</ele>
        <time>2012-10-20T08:25:48.000Z</time>
      </trkpt>
      <trkpt lat="44.00512" lon="7.19025">
        <ele>972.20001220703</ele>
        <time>2012-10-20T08:25:54.000Z</time>
      </trkpt>
      <trkpt lat="44.00517" lon="7.19023">
        <ele>969.40002441406</ele>
        <time>2012-10-20T08:26:00.000Z</time>
      </trkpt>
      <trkpt lat="44.0051" lon="7.19015">
        <ele>968</ele>
        <time>2012-10-20T08:26:08.000Z</time>
      </trkpt>
      <trkpt lat="44.00512" lon="7.19015">
        <ele>966.59997558594</ele>
        <time>2012-10-20T08:26:10.000Z</time>
      </trkpt>
      <trkpt lat="44.00526" lon="7.19016">
        <ele>961.20001220703</ele>
        <time>2012-10-20T08:26:14.000Z</time>
      </trkpt>
      <trkpt lat="44.00534" lon="7.19017">
        <ele>958.20001220703</ele>
        <time>2012-10-20T08:26:16.000Z</time>
      </trkpt>
      <trkpt lat="44.00566" lon="7.19023">
        <ele>947</ele>
        <time>2012-10-20T08:26:21.000Z</time>
      </trkpt>
      <trkpt lat="44.00588" lon="7.19043">
        <ele>949.20001220703</ele>
        <time>2012-10-20T08:26:28.000Z</time>
      </trkpt>
      <trkpt lat="44.00595" lon="7.19054">
        <ele>952.40002441406</ele>
        <time>2012-10-20T08:26:31.000Z</time>
      </trkpt>
      <trkpt lat="44.00608" lon="7.1906">
        <ele>950.20001220703</ele>
        <time>2012-10-20T08:26:36.000Z</time>
      </trkpt>
      <trkpt lat="44.00618" lon="7.19061">
        <ele>945.59997558594</ele>
        <time>2012-10-20T08:26:43.000Z</time>
      </trkpt>
      <trkpt lat="44.0062" lon="7.19063">
        <ele>945.79998779297</ele>
        <time>2012-10-20T08:26:44.000Z</time>
      </trkpt>
      <trkpt lat="44.0063" lon="7.19082">
        <ele>951.79998779297</ele>
        <time>2012-10-20T08:26:50.000Z</time>
      </trkpt>
      <trkpt lat="44.00638" lon="7.19097">
        <ele>955.79998779297</ele>
        <time>2012-10-20T08:26:55.000Z</time>
      </trkpt>
      <trkpt lat="44.00644" lon="7.19112">
        <ele>961</ele>
        <time>2012-10-20T08:27:01.000Z</time>
      </trkpt>
      <trkpt lat="44.00649" lon="7.19131">
        <ele>968.59997558594</ele>
        <time>2012-10-20T08:27:08.000Z</time>
      </trkpt>
      <trkpt lat="44.00658" lon="7.19144">
        <ele>971</ele>
        <time>2012-10-20T08:27:15.000Z</time>
      </trkpt>
      <trkpt lat="44.00667" lon="7.19146">
        <ele>967.79998779297</ele>
        <time>2012-10-20T08:27:22.000Z</time>
      </trkpt>
      <trkpt lat="44.00668" lon="7.19146">
        <ele>967.79998779297</ele>
        <time>2012-10-20T08:27:24.000Z</time>
      </trkpt>
      <trkpt lat="44.00669" lon="7.19146">
        <ele>967.20001220703</ele>
        <time>2012-10-20T08:27:30.000Z</time>
      </trkpt>
      <trkpt lat="44.00682" lon="7.19156">
        <ele>969</ele>
        <time>2012-10-20T08:27:39.000Z</time>
      </trkpt>
      <trkpt lat="44.00694" lon="7.19169">
        <ele>971.79998779297</ele>
        <time>2012-10-20T08:27:45.000Z</time>
      </trkpt>
      <trkpt lat="44.00704" lon="7.19191">
        <ele>978.79998779297</ele>
        <time>2012-10-20T08:27:51.000Z</time>
      </trkpt>
      <trkpt lat="44.00713" lon="7.19213">
        <ele>985.40002441406</ele>
        <time>2012-10-20T08:27:56.000Z</time>
      </trkpt>
      <trkpt lat="44.00719" lon="7.1923">
        <ele>991</ele>
        <time>2012-10-20T08:28:02.000Z</time>
      </trkpt>
      <trkpt lat="44.00724" lon="7.19247">
        <ele>997.20001220703</ele>
        <time>2012-10-20T08:28:08.000Z</time>
      </trkpt>
      <trkpt lat="44.00736" lon="7.19255">
        <ele>998</ele>
        <time>2012-10-20T08:28:12.000Z</time>
      </trkpt>
      <trkpt lat="44.00746" lon="7.19249">
        <ele>992.79998779297</ele>
        <time>2012-10-20T08:28:19.000Z</time>
      </trkpt>
      <trkpt lat="44.00748" lon="7.19248">
        <ele>991.59997558594</ele>
        <time>2012-10-20T08:28:21.000Z</time>
      </trkpt>
      <trkpt lat="44.00761" lon="7.19244">
        <ele>988.20001220703</ele>
        <time>2012-10-20T08:28:26.000Z</time>
      </trkpt>
      <trkpt lat="44.00766" lon="7.19237">
        <ele>984.59997558594</ele>
        <time>2012-10-20T08:28:31.000Z</time>
      </trkpt>
      <trkpt lat="44.00777" lon="7.19228">
        <ele>979.59997558594</ele>
        <time>2012-10-20T08:28:37.000Z</time>
      </trkpt>
      <trkpt lat="44.00788" lon="7.19223">
        <ele>976.40002441406</ele>
        <time>2012-10-20T08:28:42.000Z</time>
      </trkpt>
      <trkpt lat="44.00803" lon="7.19227">
        <ele>976.40002441406</ele>
        <time>2012-10-20T08:28:48.000Z</time>
      </trkpt>
      <trkpt lat="44.00826" lon="7.19228">
        <ele>974.59997558594</ele>
        <time>2012-10-20T08:28:55.000Z</time>
      </trkpt>
      <trkpt lat="44.0084" lon="7.19232">
        <ele>974.20001220703</ele>
        <time>2012-10-20T08:29:00.000Z</time>
      </trkpt>
      <trkpt lat="44.00853" lon="7.19251">
        <ele>978.79998779297</ele>
        <time>2012-10-20T08:29:06.000Z</time>
      </trkpt>
      <trkpt lat="44.00875" lon="7.19269">
        <ele>979.79998779297</ele>
        <time>2012-10-20T08:29:12.000Z</time>
      </trkpt>
      <trkpt lat="44.0088" lon="7.19272">
        <ele>979</ele>
        <time>2012-10-20T08:29:13.000Z</time>
      </trkpt>
      <trkpt lat="44.00903" lon="7.19284">
        <ele>975.40002441406</ele>
        <time>2012-10-20T08:29:18.000Z</time>
      </trkpt>
      <trkpt lat="44.00909" lon="7.19289">
        <ele>974.79998779297</ele>
        <time>2012-10-20T08:29:20.000Z</time>
      </trkpt>
      <trkpt lat="44.00935" lon="7.19313">
        <ele>972.59997558594</ele>
        <time>2012-10-20T08:29:27.000Z</time>
      </trkpt>
      <trkpt lat="44.00944" lon="7.1932">
        <ele>970.79998779297</ele>
        <time>2012-10-20T08:29:29.000Z</time>
      </trkpt>
      <trkpt lat="44.00954" lon="7.19329">
        <ele>968.40002441406</ele>
        <time>2012-10-20T08:29:31.000Z</time>
      </trkpt>
      <trkpt lat="44.00952" lon="7.19347">
        <ele>973.59997558594</ele>
        <time>2012-10-20T08:29:37.000Z</time>
      </trkpt>
      <trkpt lat="44.00955" lon="7.19358">
        <ele>975.20001220703</ele>
        <time>2012-10-20T08:29:40.000Z</time>
      </trkpt>
      <trkpt lat="44.00966" lon="7.19385">
        <ele>977.40002441406</ele>
        <time>2012-10-20T08:29:46.000Z</time>
      </trkpt>
      <trkpt lat="44.00967" lon="7.19395">
        <ele>979.20001220703</ele>
        <time>2012-10-20T08:29:51.000Z</time>
      </trkpt>
      <trkpt lat="44.00971" lon="7.19406">
        <ele>980</ele>
        <time>2012-10-20T08:29:58.000Z</time>
      </trkpt>
      <trkpt lat="44.0097" lon="7.19407">
        <ele>980.40002441406</ele>
        <time>2012-10-20T08:29:59.000Z</time>
      </trkpt>
      <trkpt lat="44.0097" lon="7.19418">
        <ele>983.79998779297</ele>
        <time>2012-10-20T08:30:04.000Z</time>
      </trkpt>
      <trkpt lat="44.00973" lon="7.19421">
        <ele>983.59997558594</ele>
        <time>2012-10-20T08:30:08.000Z</time>
      </trkpt>
      <trkpt lat="44.00981" lon="7.19431">
        <ele>983.59997558594</ele>
        <time>2012-10-20T08:30:13.000Z</time>
      </trkpt>
      <trkpt lat="44.00983" lon="7.19433">
        <ele>983.79998779297</ele>
        <time>2012-10-20T08:30:14.000Z</time>
      </trkpt>
      <trkpt lat="44.0099" lon="7.19448">
        <ele>986.79998779297</ele>
        <time>2012-10-20T08:30:18.000Z</time>
      </trkpt>
      <trkpt lat="44.01003" lon="7.19467">
        <ele>989.59997558594</ele>
        <time>2012-10-20T08:30:23.000Z</time>
      </trkpt>
      <trkpt lat="44.01011" lon="7.19485">
        <ele>994.40002441406</ele>
        <time>2012-10-20T08:30:28.000Z</time>
      </trkpt>
      <trkpt lat="44.01013" lon="7.19492">
        <ele>996.20001220703</ele>
        <time>2012-10-20T08:30:30.000Z</time>
      </trkpt>
      <trkpt lat="44.01026" lon="7.19501">
        <ele>992.79998779297</ele>
        <time>2012-10-20T08:30:35.000Z</time>
      </trkpt>
      <trkpt lat="44.01035" lon="7.19509">
        <ele>991.20001220703</ele>
        <time>2012-10-20T08:30:39.000Z</time>
      </trkpt>
      <trkpt lat="44.01043" lon="7.19532">
        <ele>994.40002441406</ele>
        <time>2012-10-20T08:30:44.000Z</time>
      </trkpt>
      <trkpt lat="44.01053" lon="7.19553">
        <ele>994</ele>
        <time>2012-10-20T08:30:50.000Z</time>
      </trkpt>
      <trkpt lat="44.01053" lon="7.19558">
        <ele>995.40002441406</ele>
        <time>2012-10-20T08:30:55.000Z</time>
      </trkpt>
      <trkpt lat="44.01056" lon="7.19562">
        <ele>994.20001220703</ele>
        <time>2012-10-20T08:30:59.000Z</time>
      </trkpt>
      <trkpt lat="44.01059" lon="7.19566">
        <ele>993.20001220703</ele>
        <time>2012-10-20T08:31:01.000Z</time>
      </trkpt>
      <trkpt lat="44.01078" lon="7.19584">
        <ele>982.79998779297</ele>
        <time>2012-10-20T08:31:07.000Z</time>
      </trkpt>
      <trkpt lat="44.01082" lon="7.19602">
        <ele>985.79998779297</ele>
        <time>2012-10-20T08:31:11.000Z</time>
      </trkpt>
      <trkpt lat="44.01083" lon="7.1962">
        <ele>991.20001220703</ele>
        <time>2012-10-20T08:31:14.000Z</time>
      </trkpt>
      <trkpt lat="44.01091" lon="7.19645">
        <ele>998.20001220703</ele>
        <time>2012-10-20T08:31:20.000Z</time>
      </trkpt>
      <trkpt lat="44.01099" lon="7.19655">
        <ele>999.20001220703</ele>
        <time>2012-10-20T08:31:25.000Z</time>
      </trkpt>
      <trkpt lat="44.01104" lon="7.19657">
        <ele>999</ele>
        <time>2012-10-20T08:31:28.000Z</time>
      </trkpt>
      <trkpt lat="44.01111" lon="7.19679">
        <ele>1001.4000244141</ele>
        <time>2012-10-20T08:31:34.000Z</time>
      </trkpt>
      <trkpt lat="44.01118" lon="7.19699">
        <ele>1002.200012207</ele>
        <time>2012-10-20T08:31:40.000Z</time>
      </trkpt>
      <trkpt lat="44.01122" lon="7.19707">
        <ele>1002.200012207</ele>
        <time>2012-10-20T08:31:45.000Z</time>
      </trkpt>
      <trkpt lat="44.01121" lon="7.19726">
        <ele>1005.4000244141</ele>
        <time>2012-10-20T08:31:50.000Z</time>
      </trkpt>
      <trkpt lat="44.01118" lon="7.19748">
        <ele>1009.4000244141</ele>
        <time>2012-10-20T08:31:56.000Z</time>
      </trkpt>
      <trkpt lat="44.01114" lon="7.19764">
        <ele>1012.5999755859</ele>
        <time>2012-10-20T08:32:03.000Z</time>
      </trkpt>
      <trkpt lat="44.01111" lon="7.19776">
        <ele>1014.4000244141</ele>
        <time>2012-10-20T08:32:09.000Z</time>
      </trkpt>
      <trkpt lat="44.01108" lon="7.19791">
        <ele>1016</ele>
        <time>2012-10-20T08:32:16.000Z</time>
      </trkpt>
      <trkpt lat="44.01108" lon="7.19805">
        <ele>1017.200012207</ele>
        <time>2012-10-20T08:32:21.000Z</time>
      </trkpt>
      <trkpt lat="44.01111" lon="7.19824">
        <ele>1018.799987793</ele>
        <time>2012-10-20T08:32:27.000Z</time>
      </trkpt>
      <trkpt lat="44.01105" lon="7.19835">
        <ele>1019.200012207</ele>
        <time>2012-10-20T08:32:33.000Z</time>
      </trkpt>
      <trkpt lat="44.01099" lon="7.1985">
        <ele>1020.200012207</ele>
        <time>2012-10-20T08:32:40.000Z</time>
      </trkpt>
      <trkpt lat="44.01091" lon="7.19869">
        <ele>1020.4000244141</ele>
        <time>2012-10-20T08:32:47.000Z</time>
      </trkpt>
      <trkpt lat="44.01083" lon="7.19888">
        <ele>1018.5999755859</ele>
        <time>2012-10-20T08:32:54.000Z</time>
      </trkpt>
      <trkpt lat="44.01079" lon="7.19904">
        <ele>1022.200012207</ele>
        <time>2012-10-20T08:33:00.000Z</time>
      </trkpt>
      <trkpt lat="44.01077" lon="7.19908">
        <ele>1023.200012207</ele>
        <time>2012-10-20T08:33:02.000Z</time>
      </trkpt>
      <trkpt lat="44.01079" lon="7.19928">
        <ele>1028</ele>
        <time>2012-10-20T08:33:07.000Z</time>
      </trkpt>
      <trkpt lat="44.01079" lon="7.19949">
        <ele>1038.4000244141</ele>
        <time>2012-10-20T08:33:12.000Z</time>
      </trkpt>
      <trkpt lat="44.01079" lon="7.19962">
        <ele>1044.4000244141</ele>
        <time>2012-10-20T08:33:17.000Z</time>
      </trkpt>
      <trkpt lat="44.01072" lon="7.1997">
        <ele>1050</ele>
        <time>2012-10-20T08:33:23.000Z</time>
      </trkpt>
      <trkpt lat="44.01061" lon="7.19982">
        <ele>1056.4000244141</ele>
        <time>2012-10-20T08:33:30.000Z</time>
      </trkpt>
      <trkpt lat="44.01062" lon="7.19986">
        <ele>1058</ele>
        <time>2012-10-20T08:33:31.000Z</time>
      </trkpt>
      <trkpt lat="44.01066" lon="7.20007">
        <ele>1066</ele>
        <time>2012-10-20T08:33:38.000Z</time>
      </trkpt>
      <trkpt lat="44.01062" lon="7.20009">
        <ele>1066.5999755859</ele>
        <time>2012-10-20T08:33:43.000Z</time>
      </trkpt>
      <trkpt lat="44.01063" lon="7.19991">
        <ele>1059.8000488281</ele>
        <time>2012-10-20T08:33:49.000Z</time>
      </trkpt>
      <trkpt lat="44.01062" lon="7.19985">
        <ele>1057.4000244141</ele>
        <time>2012-10-20T08:33:52.000Z</time>
      </trkpt>
      <trkpt lat="44.01066" lon="7.19973">
        <ele>1052</ele>
        <time>2012-10-20T08:33:58.000Z</time>
      </trkpt>
      <trkpt lat="44.0107" lon="7.19964">
        <ele>1047.5999755859</ele>
        <time>2012-10-20T08:34:02.000Z</time>
      </trkpt>
      <trkpt lat="44.01077" lon="7.19951">
        <ele>1039.8000488281</ele>
        <time>2012-10-20T08:34:08.000Z</time>
      </trkpt>
      <trkpt lat="44.01082" lon="7.19933">
        <ele>1029.1999511719</ele>
        <time>2012-10-20T08:34:14.000Z</time>
      </trkpt>
      <trkpt lat="44.01081" lon="7.19926">
        <ele>1025.8000488281</ele>
        <time>2012-10-20T08:34:17.000Z</time>
      </trkpt>
      <trkpt lat="44.01086" lon="7.19919">
        <ele>1022.799987793</ele>
        <time>2012-10-20T08:34:22.000Z</time>
      </trkpt>
      <trkpt lat="44.01089" lon="7.19915">
        <ele>1023.4000244141</ele>
        <time>2012-10-20T08:34:25.000Z</time>
      </trkpt>
      <trkpt lat="44.01103" lon="7.19909">
        <ele>1030.5999755859</ele>
        <time>2012-10-20T08:34:30.000Z</time>
      </trkpt>
      <trkpt lat="44.01112" lon="7.19901">
        <ele>1034</ele>
        <time>2012-10-20T08:34:34.000Z</time>
      </trkpt>
      <trkpt lat="44.01125" lon="7.1989">
        <ele>1037.5999755859</ele>
        <time>2012-10-20T08:34:40.000Z</time>
      </trkpt>
      <trkpt lat="44.01142" lon="7.19869">
        <ele>1037.4000244141</ele>
        <time>2012-10-20T08:34:48.000Z</time>
      </trkpt>
      <trkpt lat="44.01152" lon="7.19856">
        <ele>1035.1999511719</ele>
        <time>2012-10-20T08:34:53.000Z</time>
      </trkpt>
      <trkpt lat="44.01163" lon="7.19838">
        <ele>1028.8000488281</ele>
        <time>2012-10-20T08:34:59.000Z</time>
      </trkpt>
      <trkpt lat="44.01175" lon="7.19826">
        <ele>1025.8000488281</ele>
        <time>2012-10-20T08:35:05.000Z</time>
      </trkpt>
      <trkpt lat="44.01191" lon="7.19816">
        <ele>1025.8000488281</ele>
        <time>2012-10-20T08:35:11.000Z</time>
      </trkpt>
      <trkpt lat="44.01202" lon="7.19809">
        <ele>1025.4000244141</ele>
        <time>2012-10-20T08:35:16.000Z</time>
      </trkpt>
      <trkpt lat="44.01212" lon="7.19804">
        <ele>1025.4000244141</ele>
        <time>2012-10-20T08:35:21.000Z</time>
      </trkpt>
      <trkpt lat="44.01226" lon="7.19806">
        <ele>1029.5999755859</ele>
        <time>2012-10-20T08:35:27.000Z</time>
      </trkpt>
      <trkpt lat="44.01234" lon="7.19803">
        <ele>1030</ele>
        <time>2012-10-20T08:35:32.000Z</time>
      </trkpt>
      <trkpt lat="44.0125" lon="7.19801">
        <ele>1032.5999755859</ele>
        <time>2012-10-20T08:35:39.000Z</time>
      </trkpt>
      <trkpt lat="44.01263" lon="7.19804">
        <ele>1033</ele>
        <time>2012-10-20T08:35:44.000Z</time>
      </trkpt>
      <trkpt lat="44.01275" lon="7.19804">
        <ele>1032.1999511719</ele>
        <time>2012-10-20T08:35:49.000Z</time>
      </trkpt>
      <trkpt lat="44.01289" lon="7.19812">
        <ele>1033</ele>
        <time>2012-10-20T08:35:55.000Z</time>
      </trkpt>
      <trkpt lat="44.01299" lon="7.19819">
        <ele>1033.4000244141</ele>
        <time>2012-10-20T08:36:00.000Z</time>
      </trkpt>
      <trkpt lat="44.01314" lon="7.19834">
        <ele>1033.4000244141</ele>
        <time>2012-10-20T08:36:05.000Z</time>
      </trkpt>
      <trkpt lat="44.01334" lon="7.19852">
        <ele>1038.4000244141</ele>
        <time>2012-10-20T08:36:11.000Z</time>
      </trkpt>
      <trkpt lat="44.01341" lon="7.19857">
        <ele>1041.1999511719</ele>
        <time>2012-10-20T08:36:13.000Z</time>
      </trkpt>
      <trkpt lat="44.0136" lon="7.19862">
        <ele>1043.5999755859</ele>
        <time>2012-10-20T08:36:17.000Z</time>
      </trkpt>
      <trkpt lat="44.01361" lon="7.19869">
        <ele>1045.4000244141</ele>
        <time>2012-10-20T08:36:21.000Z</time>
      </trkpt>
      <trkpt lat="44.01365" lon="7.19873">
        <ele>1046.4000244141</ele>
        <time>2012-10-20T08:36:26.000Z</time>
      </trkpt>
      <trkpt lat="44.01375" lon="7.19878">
        <ele>1046.1999511719</ele>
        <time>2012-10-20T08:36:32.000Z</time>
      </trkpt>
      <trkpt lat="44.01376" lon="7.1988">
        <ele>1046.1999511719</ele>
        <time>2012-10-20T08:36:33.000Z</time>
      </trkpt>
      <trkpt lat="44.01395" lon="7.19888">
        <ele>1043.1999511719</ele>
        <time>2012-10-20T08:36:39.000Z</time>
      </trkpt>
      <trkpt lat="44.01399" lon="7.19889">
        <ele>1042.4000244141</ele>
        <time>2012-10-20T08:36:40.000Z</time>
      </trkpt>
      <trkpt lat="44.01409" lon="7.19901">
        <ele>1038.8000488281</ele>
        <time>2012-10-20T08:36:45.000Z</time>
      </trkpt>
      <trkpt lat="44.01411" lon="7.19904">
        <ele>1038</ele>
        <time>2012-10-20T08:36:46.000Z</time>
      </trkpt>
      <trkpt lat="44.01411" lon="7.19904">
        <ele>1038</ele>
        <time>2012-10-20T08:36:46.000Z</time>
      </trkpt>
      <trkpt lat="44.01419" lon="7.19926">
        <ele>1037</ele>
        <time>2012-10-20T08:36:52.000Z</time>
      </trkpt>
      <trkpt lat="44.01422" lon="7.19941">
        <ele>1041</ele>
        <time>2012-10-20T08:36:57.000Z</time>
      </trkpt>
      <trkpt lat="44.01438" lon="7.19953">
        <ele>1048.4000244141</ele>
        <time>2012-10-20T08:37:05.000Z</time>
      </trkpt>
      <trkpt lat="44.01444" lon="7.19964">
        <ele>1051</ele>
        <time>2012-10-20T08:37:10.000Z</time>
      </trkpt>
      <trkpt lat="44.01453" lon="7.19979">
        <ele>1053.1999511719</ele>
        <time>2012-10-20T08:37:17.000Z</time>
      </trkpt>
      <trkpt lat="44.0146" lon="7.19996">
        <ele>1053.4000244141</ele>
        <time>2012-10-20T08:37:25.000Z</time>
      </trkpt>
      <trkpt lat="44.01467" lon="7.20013">
        <ele>1058</ele>
        <time>2012-10-20T08:37:31.000Z</time>
      </trkpt>
      <trkpt lat="44.01471" lon="7.20028">
        <ele>1062.8000488281</ele>
        <time>2012-10-20T08:37:37.000Z</time>
      </trkpt>
      <trkpt lat="44.01473" lon="7.20036">
        <ele>1065</ele>
        <time>2012-10-20T08:37:42.000Z</time>
      </trkpt>
      <trkpt lat="44.0147" lon="7.20042">
        <ele>1067.1999511719</ele>
        <time>2012-10-20T08:37:47.000Z</time>
      </trkpt>
      <trkpt lat="44.0146" lon="7.20045">
        <ele>1069.4000244141</ele>
        <time>2012-10-20T08:37:53.000Z</time>
      </trkpt>
      <trkpt lat="44.01457" lon="7.20044">
        <ele>1069.5999755859</ele>
        <time>2012-10-20T08:37:54.000Z</time>
      </trkpt>
      <trkpt lat="44.01445" lon="7.20046">
        <ele>1072</ele>
        <time>2012-10-20T08:38:01.000Z</time>
      </trkpt>
      <trkpt lat="44.01447" lon="7.20045">
        <ele>1071.1999511719</ele>
        <time>2012-10-20T08:38:02.000Z</time>
      </trkpt>
      <trkpt lat="44.01451" lon="7.20039">
        <ele>1068.4000244141</ele>
        <time>2012-10-20T08:38:07.000Z</time>
      </trkpt>
      <trkpt lat="44.01457" lon="7.20043">
        <ele>1069.1999511719</ele>
        <time>2012-10-20T08:38:11.000Z</time>
      </trkpt>
      <trkpt lat="44.01465" lon="7.20045">
        <ele>1068.8000488281</ele>
        <time>2012-10-20T08:38:15.000Z</time>
      </trkpt>
      <trkpt lat="44.01483" lon="7.20051">
        <ele>1068.1999511719</ele>
        <time>2012-10-20T08:38:21.000Z</time>
      </trkpt>
      <trkpt lat="44.01492" lon="7.20054">
        <ele>1067.1999511719</ele>
        <time>2012-10-20T08:38:24.000Z</time>
      </trkpt>
      <trkpt lat="44.01496" lon="7.20059">
        <ele>1067.4000244141</ele>
        <time>2012-10-20T08:38:30.000Z</time>
      </trkpt>
      <trkpt lat="44.01501" lon="7.20066">
        <ele>1068</ele>
        <time>2012-10-20T08:38:36.000Z</time>
      </trkpt>
      <trkpt lat="44.01515" lon="7.20078">
        <ele>1070.1999511719</ele>
        <time>2012-10-20T08:38:41.000Z</time>
      </trkpt>
      <trkpt lat="44.01534" lon="7.20099">
        <ele>1074</ele>
        <time>2012-10-20T08:38:49.000Z</time>
      </trkpt>
      <trkpt lat="44.01551" lon="7.20115">
        <ele>1075.4000244141</ele>
        <time>2012-10-20T08:38:55.000Z</time>
      </trkpt>
      <trkpt lat="44.01561" lon="7.20135">
        <ele>1076.4000244141</ele>
        <time>2012-10-20T08:39:03.000Z</time>
      </trkpt>
      <trkpt lat="44.01561" lon="7.2014">
        <ele>1077</ele>
        <time>2012-10-20T08:39:06.000Z</time>
      </trkpt>
      <trkpt lat="44.01565" lon="7.20148">
        <ele>1077</ele>
        <time>2012-10-20T08:39:10.000Z</time>
      </trkpt>
      <trkpt lat="44.01568" lon="7.20153">
        <ele>1076.8000488281</ele>
        <time>2012-10-20T08:39:14.000Z</time>
      </trkpt>
      <trkpt lat="44.01569" lon="7.20163">
        <ele>1077.1999511719</ele>
        <time>2012-10-20T08:39:18.000Z</time>
      </trkpt>
      <trkpt lat="44.01579" lon="7.20173">
        <ele>1075.5999755859</ele>
        <time>2012-10-20T08:39:25.000Z</time>
      </trkpt>
      <trkpt lat="44.01586" lon="7.20189">
        <ele>1076.8000488281</ele>
        <time>2012-10-20T08:39:31.000Z</time>
      </trkpt>
      <trkpt lat="44.01592" lon="7.20201">
        <ele>1080</ele>
        <time>2012-10-20T08:39:35.000Z</time>
      </trkpt>
      <trkpt lat="44.01593" lon="7.20216">
        <ele>1082.5999755859</ele>
        <time>2012-10-20T08:39:41.000Z</time>
      </trkpt>
      <trkpt lat="44.016" lon="7.20234">
        <ele>1087</ele>
        <time>2012-10-20T08:39:47.000Z</time>
      </trkpt>
      <trkpt lat="44.01606" lon="7.20247">
        <ele>1091</ele>
        <time>2012-10-20T08:39:53.000Z</time>
      </trkpt>
      <trkpt lat="44.01611" lon="7.2026">
        <ele>1095</ele>
        <time>2012-10-20T08:39:59.000Z</time>
      </trkpt>
      <trkpt lat="44.01617" lon="7.20277">
        <ele>1100.4000244141</ele>
        <time>2012-10-20T08:40:06.000Z</time>
      </trkpt>
      <trkpt lat="44.01625" lon="7.20299">
        <ele>1108</ele>
        <time>2012-10-20T08:40:13.000Z</time>
      </trkpt>
      <trkpt lat="44.01626" lon="7.20304">
        <ele>1109.8000488281</ele>
        <time>2012-10-20T08:40:17.000Z</time>
      </trkpt>
      <trkpt lat="44.01611" lon="7.20289">
        <ele>1101</ele>
        <time>2012-10-20T08:40:23.000Z</time>
      </trkpt>
      <trkpt lat="44.01599" lon="7.20276">
        <ele>1094.1999511719</ele>
        <time>2012-10-20T08:40:29.000Z</time>
      </trkpt>
      <trkpt lat="44.01584" lon="7.20261">
        <ele>1086.8000488281</ele>
        <time>2012-10-20T08:40:36.000Z</time>
      </trkpt>
      <trkpt lat="44.01577" lon="7.20256">
        <ele>1089</ele>
        <time>2012-10-20T08:40:39.000Z</time>
      </trkpt>
      <trkpt lat="44.01568" lon="7.20247">
        <ele>1092.1999511719</ele>
        <time>2012-10-20T08:40:46.000Z</time>
      </trkpt>
      <trkpt lat="44.01563" lon="7.20241">
        <ele>1093.8000488281</ele>
        <time>2012-10-20T08:40:51.000Z</time>
      </trkpt>
      <trkpt lat="44.01551" lon="7.20228">
        <ele>1096.8000488281</ele>
        <time>2012-10-20T08:40:56.000Z</time>
      </trkpt>
      <trkpt lat="44.01538" lon="7.20218">
        <ele>1100.1999511719</ele>
        <time>2012-10-20T08:41:02.000Z</time>
      </trkpt>
      <trkpt lat="44.01527" lon="7.20211">
        <ele>1103.1999511719</ele>
        <time>2012-10-20T08:41:11.000Z</time>
      </trkpt>
      <trkpt lat="44.01524" lon="7.20208">
        <ele>1103.5999755859</ele>
        <time>2012-10-20T08:41:14.000Z</time>
      </trkpt>
      <trkpt lat="44.01516" lon="7.20203">
        <ele>1105.5999755859</ele>
        <time>2012-10-20T08:41:20.000Z</time>
      </trkpt>
      <trkpt lat="44.01509" lon="7.20199">
        <ele>1106.8000488281</ele>
        <time>2012-10-20T08:41:25.000Z</time>
      </trkpt>
      <trkpt lat="44.01498" lon="7.20189">
        <ele>1108</ele>
        <time>2012-10-20T08:41:32.000Z</time>
      </trkpt>
      <trkpt lat="44.01484" lon="7.20176">
        <ele>1108.8000488281</ele>
        <time>2012-10-20T08:41:40.000Z</time>
      </trkpt>
      <trkpt lat="44.01476" lon="7.20171">
        <ele>1109.8000488281</ele>
        <time>2012-10-20T08:41:46.000Z</time>
      </trkpt>
      <trkpt lat="44.01469" lon="7.20169">
        <ele>1111.4000244141</ele>
        <time>2012-10-20T08:41:53.000Z</time>
      </trkpt>
      <trkpt lat="44.01459" lon="7.20164">
        <ele>1113.4000244141</ele>
        <time>2012-10-20T08:42:00.000Z</time>
      </trkpt>
      <trkpt lat="44.0145" lon="7.20163">
        <ele>1116</ele>
        <time>2012-10-20T08:42:05.000Z</time>
      </trkpt>
      <trkpt lat="44.01451" lon="7.20165">
        <ele>1116.5999755859</ele>
        <time>2012-10-20T08:42:07.000Z</time>
      </trkpt>
      <trkpt lat="44.01456" lon="7.20169">
        <ele>1116</ele>
        <time>2012-10-20T08:42:12.000Z</time>
      </trkpt>
      <trkpt lat="44.0147" lon="7.20165">
        <ele>1109.8000488281</ele>
        <time>2012-10-20T08:42:20.000Z</time>
      </trkpt>
      <trkpt lat="44.01481" lon="7.20166">
        <ele>1106.4000244141</ele>
        <time>2012-10-20T08:42:27.000Z</time>
      </trkpt>
      <trkpt lat="44.01492" lon="7.20171">
        <ele>1104</ele>
        <time>2012-10-20T08:42:35.000Z</time>
      </trkpt>
      <trkpt lat="44.01497" lon="7.20174">
        <ele>1103.5999755859</ele>
        <time>2012-10-20T08:42:38.000Z</time>
      </trkpt>
      <trkpt lat="44.01502" lon="7.20177">
        <ele>1102.4000244141</ele>
        <time>2012-10-20T08:42:42.000Z</time>
      </trkpt>
      <trkpt lat="44.0151" lon="7.20183">
        <ele>1101.8000488281</ele>
        <time>2012-10-20T08:42:45.000Z</time>
      </trkpt>
      <trkpt lat="44.01515" lon="7.20198">
        <ele>1104.1999511719</ele>
        <time>2012-10-20T08:42:51.000Z</time>
      </trkpt>
      <trkpt lat="44.0152" lon="7.20209">
        <ele>1105.5999755859</ele>
        <time>2012-10-20T08:42:59.000Z</time>
      </trkpt>
      <trkpt lat="44.01519" lon="7.20211">
        <ele>1106.4000244141</ele>
        <time>2012-10-20T08:43:00.000Z</time>
      </trkpt>
      <trkpt lat="44.01521" lon="7.20225">
        <ele>1109.4000244141</ele>
        <time>2012-10-20T08:43:05.000Z</time>
      </trkpt>
      <trkpt lat="44.01527" lon="7.2024">
        <ele>1110.5999755859</ele>
        <time>2012-10-20T08:43:12.000Z</time>
      </trkpt>
      <trkpt lat="44.01533" lon="7.20253">
        <ele>1111.1999511719</ele>
        <time>2012-10-20T08:43:18.000Z</time>
      </trkpt>
      <trkpt lat="44.01532" lon="7.20258">
        <ele>1112.4000244141</ele>
        <time>2012-10-20T08:43:21.000Z</time>
      </trkpt>
      <trkpt lat="44.01532" lon="7.20265">
        <ele>1113.8000488281</ele>
        <time>2012-10-20T08:43:25.000Z</time>
      </trkpt>
      <trkpt lat="44.01536" lon="7.20277">
        <ele>1114.4000244141</ele>
        <time>2012-10-20T08:43:32.000Z</time>
      </trkpt>
      <trkpt lat="44.01537" lon="7.20288">
        <ele>1115.5999755859</ele>
        <time>2012-10-20T08:43:38.000Z</time>
      </trkpt>
      <trkpt lat="44.01546" lon="7.20308">
        <ele>1114.4000244141</ele>
        <time>2012-10-20T08:43:45.000Z</time>
      </trkpt>
      <trkpt lat="44.01553" lon="7.20323">
        <ele>1113.4000244141</ele>
        <time>2012-10-20T08:43:52.000Z</time>
      </trkpt>
      <trkpt lat="44.01552" lon="7.20335">
        <ele>1116.8000488281</ele>
        <time>2012-10-20T08:43:59.000Z</time>
      </trkpt>
      <trkpt lat="44.01553" lon="7.20343">
        <ele>1117.4000244141</ele>
        <time>2012-10-20T08:44:04.000Z</time>
      </trkpt>
      <trkpt lat="44.0155" lon="7.2036">
        <ele>1122.4000244141</ele>
        <time>2012-10-20T08:44:11.000Z</time>
      </trkpt>
      <trkpt lat="44.01547" lon="7.2038">
        <ele>1127.4000244141</ele>
        <time>2012-10-20T08:44:20.000Z</time>
      </trkpt>
      <trkpt lat="44.01543" lon="7.20395">
        <ele>1132.4000244141</ele>
        <time>2012-10-20T08:44:27.000Z</time>
      </trkpt>
      <trkpt lat="44.01544" lon="7.20399">
        <ele>1133</ele>
        <time>2012-10-20T08:44:30.000Z</time>
      </trkpt>
      <trkpt lat="44.01544" lon="7.20416">
        <ele>1136.1999511719</ele>
        <time>2012-10-20T08:44:38.000Z</time>
      </trkpt>
      <trkpt lat="44.01541" lon="7.20428">
        <ele>1139.5999755859</ele>
        <time>2012-10-20T08:44:44.000Z</time>
      </trkpt>
      <trkpt lat="44.01536" lon="7.2044">
        <ele>1144.4000244141</ele>
        <time>2012-10-20T08:44:51.000Z</time>
      </trkpt>
      <trkpt lat="44.01532" lon="7.20453">
        <ele>1149</ele>
        <time>2012-10-20T08:44:57.000Z</time>
      </trkpt>
      <trkpt lat="44.01532" lon="7.20458">
        <ele>1150.1999511719</ele>
        <time>2012-10-20T08:44:59.000Z</time>
      </trkpt>
      <trkpt lat="44.0153" lon="7.20466">
        <ele>1152.4000244141</ele>
        <time>2012-10-20T08:45:03.000Z</time>
      </trkpt>
      <trkpt lat="44.01526" lon="7.20473">
        <ele>1156.5999755859</ele>
        <time>2012-10-20T08:45:08.000Z</time>
      </trkpt>
      <trkpt lat="44.01528" lon="7.20481">
        <ele>1156.4000244141</ele>
        <time>2012-10-20T08:45:14.000Z</time>
      </trkpt>
      <trkpt lat="44.0153" lon="7.20488">
        <ele>1156.1999511719</ele>
        <time>2012-10-20T08:45:18.000Z</time>
      </trkpt>
      <trkpt lat="44.01535" lon="7.2049">
        <ele>1153.5999755859</ele>
        <time>2012-10-20T08:45:22.000Z</time>
      </trkpt>
      <trkpt lat="44.01539" lon="7.20491">
        <ele>1151.1999511719</ele>
        <time>2012-10-20T08:45:24.000Z</time>
      </trkpt>
      <trkpt lat="44.01544" lon="7.20494">
        <ele>1148.1999511719</ele>
        <time>2012-10-20T08:45:27.000Z</time>
      </trkpt>
      <trkpt lat="44.01547" lon="7.20507">
        <ele>1148.1999511719</ele>
        <time>2012-10-20T08:45:34.000Z</time>
      </trkpt>
      <trkpt lat="44.01548" lon="7.20527">
        <ele>1153.5999755859</ele>
        <time>2012-10-20T08:45:41.000Z</time>
      </trkpt>
      <trkpt lat="44.0155" lon="7.20539">
        <ele>1154.8000488281</ele>
        <time>2012-10-20T08:45:46.000Z</time>
      </trkpt>
      <trkpt lat="44.01553" lon="7.20545">
        <ele>1154.1999511719</ele>
        <time>2012-10-20T08:45:51.000Z</time>
      </trkpt>
      <trkpt lat="44.01556" lon="7.20553">
        <ele>1154</ele>
        <time>2012-10-20T08:45:56.000Z</time>
      </trkpt>
      <trkpt lat="44.01564" lon="7.20562">
        <ele>1151.1999511719</ele>
        <time>2012-10-20T08:46:02.000Z</time>
      </trkpt>
      <trkpt lat="44.0157" lon="7.2057">
        <ele>1149.1999511719</ele>
        <time>2012-10-20T08:46:07.000Z</time>
      </trkpt>
      <trkpt lat="44.01574" lon="7.20575">
        <ele>1147.5999755859</ele>
        <time>2012-10-20T08:46:10.000Z</time>
      </trkpt>
      <trkpt lat="44.01587" lon="7.20581">
        <ele>1142.1999511719</ele>
        <time>2012-10-20T08:46:17.000Z</time>
      </trkpt>
      <trkpt lat="44.01596" lon="7.20591">
        <ele>1146.1999511719</ele>
        <time>2012-10-20T08:46:23.000Z</time>
      </trkpt>
      <trkpt lat="44.01598" lon="7.20595">
        <ele>1148.1999511719</ele>
        <time>2012-10-20T08:46:27.000Z</time>
      </trkpt>
      <trkpt lat="44.01614" lon="7.20597">
        <ele>1148.1999511719</ele>
        <time>2012-10-20T08:46:33.000Z</time>
      </trkpt>
      <trkpt lat="44.01625" lon="7.20593">
        <ele>1146</ele>
        <time>2012-10-20T08:46:38.000Z</time>
      </trkpt>
      <trkpt lat="44.01625" lon="7.20591">
        <ele>1145</ele>
        <time>2012-10-20T08:46:44.000Z</time>
      </trkpt>
      <trkpt lat="44.01627" lon="7.20594">
        <ele>1146</ele>
        <time>2012-10-20T08:46:49.000Z</time>
      </trkpt>
      <trkpt lat="44.01633" lon="7.20598">
        <ele>1147.1999511719</ele>
        <time>2012-10-20T08:46:55.000Z</time>
      </trkpt>
      <trkpt lat="44.01637" lon="7.20604">
        <ele>1149.1999511719</ele>
        <time>2012-10-20T08:47:00.000Z</time>
      </trkpt>
      <trkpt lat="44.01643" lon="7.2061">
        <ele>1151</ele>
        <time>2012-10-20T08:47:06.000Z</time>
      </trkpt>
      <trkpt lat="44.01646" lon="7.20613">
        <ele>1151.5999755859</ele>
        <time>2012-10-20T08:47:09.000Z</time>
      </trkpt>
      <trkpt lat="44.01649" lon="7.20617">
        <ele>1152.4000244141</ele>
        <time>2012-10-20T08:47:13.000Z</time>
      </trkpt>
      <trkpt lat="44.0166" lon="7.20624">
        <ele>1153.1999511719</ele>
        <time>2012-10-20T08:47:21.000Z</time>
      </trkpt>
      <trkpt lat="44.01671" lon="7.20628">
        <ele>1153.5999755859</ele>
        <time>2012-10-20T08:47:28.000Z</time>
      </trkpt>
      <trkpt lat="44.01682" lon="7.20637">
        <ele>1156</ele>
        <time>2012-10-20T08:47:35.000Z</time>
      </trkpt>
      <trkpt lat="44.01683" lon="7.20638">
        <ele>1156.1999511719</ele>
        <time>2012-10-20T08:47:36.000Z</time>
      </trkpt>
      <trkpt lat="44.01691" lon="7.20651">
        <ele>1158.4000244141</ele>
        <time>2012-10-20T08:47:42.000Z</time>
      </trkpt>
      <trkpt lat="44.017" lon="7.20671">
        <ele>1161</ele>
        <time>2012-10-20T08:47:48.000Z</time>
      </trkpt>
      <trkpt lat="44.01704" lon="7.20684">
        <ele>1164.4000244141</ele>
        <time>2012-10-20T08:47:53.000Z</time>
      </trkpt>
      <trkpt lat="44.01707" lon="7.20698">
        <ele>1168</ele>
        <time>2012-10-20T08:47:59.000Z</time>
      </trkpt>
      <trkpt lat="44.01709" lon="7.2072">
        <ele>1173.4000244141</ele>
        <time>2012-10-20T08:48:06.000Z</time>
      </trkpt>
      <trkpt lat="44.01713" lon="7.20735">
        <ele>1177</ele>
        <time>2012-10-20T08:48:11.000Z</time>
      </trkpt>
      <trkpt lat="44.0172" lon="7.20762">
        <ele>1182.1999511719</ele>
        <time>2012-10-20T08:48:20.000Z</time>
      </trkpt>
      <trkpt lat="44.01714" lon="7.20766">
        <ele>1184.4000244141</ele>
        <time>2012-10-20T08:48:27.000Z</time>
      </trkpt>
      <trkpt lat="44.01707" lon="7.20775">
        <ele>1188.4000244141</ele>
        <time>2012-10-20T08:48:36.000Z</time>
      </trkpt>
      <trkpt lat="44.01706" lon="7.20781">
        <ele>1190.4000244141</ele>
        <time>2012-10-20T08:48:44.000Z</time>
      </trkpt>
      <trkpt lat="44.0171" lon="7.20786">
        <ele>1190.4000244141</ele>
        <time>2012-10-20T08:48:50.000Z</time>
      </trkpt>
      <trkpt lat="44.01712" lon="7.20789">
        <ele>1190.5999755859</ele>
        <time>2012-10-20T08:48:53.000Z</time>
      </trkpt>
      <trkpt lat="44.01716" lon="7.20797">
        <ele>1191.4000244141</ele>
        <time>2012-10-20T08:49:00.000Z</time>
      </trkpt>
      <trkpt lat="44.01719" lon="7.20801">
        <ele>1191.4000244141</ele>
        <time>2012-10-20T08:49:04.000Z</time>
      </trkpt>
      <trkpt lat="44.01727" lon="7.20806">
        <ele>1190.5999755859</ele>
        <time>2012-10-20T08:49:09.000Z</time>
      </trkpt>
      <trkpt lat="44.01735" lon="7.20807">
        <ele>1188.4000244141</ele>
        <time>2012-10-20T08:49:15.000Z</time>
      </trkpt>
      <trkpt lat="44.01748" lon="7.20809">
        <ele>1185</ele>
        <time>2012-10-20T08:49:21.000Z</time>
      </trkpt>
      <trkpt lat="44.01751" lon="7.20812">
        <ele>1185.1999511719</ele>
        <time>2012-10-20T08:49:25.000Z</time>
      </trkpt>
      <trkpt lat="44.01756" lon="7.20826">
        <ele>1190.1999511719</ele>
        <time>2012-10-20T08:49:33.000Z</time>
      </trkpt>
      <trkpt lat="44.01765" lon="7.2084">
        <ele>1197.1999511719</ele>
        <time>2012-10-20T08:49:41.000Z</time>
      </trkpt>
      <trkpt lat="44.01765" lon="7.20853">
        <ele>1199.8000488281</ele>
        <time>2012-10-20T08:49:48.000Z</time>
      </trkpt>
      <trkpt lat="44.01771" lon="7.20867">
        <ele>1205.4000244141</ele>
        <time>2012-10-20T08:49:55.000Z</time>
      </trkpt>
      <trkpt lat="44.0178" lon="7.2088">
        <ele>1211.4000244141</ele>
        <time>2012-10-20T08:50:02.000Z</time>
      </trkpt>
      <trkpt lat="44.01784" lon="7.20888">
        <ele>1214.5999755859</ele>
        <time>2012-10-20T08:50:08.000Z</time>
      </trkpt>
      <trkpt lat="44.01789" lon="7.20901">
        <ele>1219.4000244141</ele>
        <time>2012-10-20T08:50:17.000Z</time>
      </trkpt>
      <trkpt lat="44.01793" lon="7.2091">
        <ele>1222.5999755859</ele>
        <time>2012-10-20T08:50:23.000Z</time>
      </trkpt>
      <trkpt lat="44.01793" lon="7.20914">
        <ele>1223.4000244141</ele>
        <time>2012-10-20T08:50:29.000Z</time>
      </trkpt>
      <trkpt lat="44.01793" lon="7.20908">
        <ele>1222.1999511719</ele>
        <time>2012-10-20T08:50:35.000Z</time>
      </trkpt>
      <trkpt lat="44.01782" lon="7.20907">
        <ele>1217.5999755859</ele>
        <time>2012-10-20T08:50:40.000Z</time>
      </trkpt>
      <trkpt lat="44.01775" lon="7.20902">
        <ele>1213.5999755859</ele>
        <time>2012-10-20T08:50:46.000Z</time>
      </trkpt>
      <trkpt lat="44.01772" lon="7.20898">
        <ele>1211.8000488281</ele>
        <time>2012-10-20T08:50:53.000Z</time>
      </trkpt>
      <trkpt lat="44.01771" lon="7.20887">
        <ele>1209</ele>
        <time>2012-10-20T08:51:01.000Z</time>
      </trkpt>
      <trkpt lat="44.01771" lon="7.20885">
        <ele>1208.5999755859</ele>
        <time>2012-10-20T08:51:02.000Z</time>
      </trkpt>
      <trkpt lat="44.01769" lon="7.20862">
        <ele>1203.1999511719</ele>
        <time>2012-10-20T08:51:14.000Z</time>
      </trkpt>
      <trkpt lat="44.01768" lon="7.2085">
        <ele>1200.5999755859</ele>
        <time>2012-10-20T08:51:20.000Z</time>
      </trkpt>
      <trkpt lat="44.01765" lon="7.20833">
        <ele>1196</ele>
        <time>2012-10-20T08:51:29.000Z</time>
      </trkpt>
      <trkpt lat="44.01762" lon="7.20825">
        <ele>1193</ele>
        <time>2012-10-20T08:51:33.000Z</time>
      </trkpt>
      <trkpt lat="44.01755" lon="7.20801">
        <ele>1185</ele>
        <time>2012-10-20T08:51:44.000Z</time>
      </trkpt>
      <trkpt lat="44.01766" lon="7.20787">
        <ele>1186.5999755859</ele>
        <time>2012-10-20T08:51:51.000Z</time>
      </trkpt>
      <trkpt lat="44.01776" lon="7.20771">
        <ele>1187.1999511719</ele>
        <time>2012-10-20T08:51:59.000Z</time>
      </trkpt>
      <trkpt lat="44.01783" lon="7.20762">
        <ele>1188</ele>
        <time>2012-10-20T08:52:06.000Z</time>
      </trkpt>
      <trkpt lat="44.01785" lon="7.2076">
        <ele>1188.1999511719</ele>
        <time>2012-10-20T08:52:08.000Z</time>
      </trkpt>
      <trkpt lat="44.01791" lon="7.20752">
        <ele>1188.5999755859</ele>
        <time>2012-10-20T08:52:14.000Z</time>
      </trkpt>
      <trkpt lat="44.01798" lon="7.20748">
        <ele>1190.4000244141</ele>
        <time>2012-10-20T08:52:20.000Z</time>
      </trkpt>
      <trkpt lat="44.01806" lon="7.20743">
        <ele>1191.8000488281</ele>
        <time>2012-10-20T08:52:26.000Z</time>
      </trkpt>
      <trkpt lat="44.01815" lon="7.20734">
        <ele>1192.5999755859</ele>
        <time>2012-10-20T08:52:34.000Z</time>
      </trkpt>
      <trkpt lat="44.01826" lon="7.20722">
        <ele>1193</ele>
        <time>2012-10-20T08:52:44.000Z</time>
      </trkpt>
      <trkpt lat="44.01838" lon="7.20717">
        <ele>1194.5999755859</ele>
        <time>2012-10-20T08:52:52.000Z</time>
      </trkpt>
      <trkpt lat="44.01848" lon="7.20713">
        <ele>1195.5999755859</ele>
        <time>2012-10-20T08:52:58.000Z</time>
      </trkpt>
      <trkpt lat="44.01856" lon="7.20711">
        <ele>1197.1999511719</ele>
        <time>2012-10-20T08:53:03.000Z</time>
      </trkpt>
      <trkpt lat="44.01865" lon="7.2071">
        <ele>1198.5999755859</ele>
        <time>2012-10-20T08:53:09.000Z</time>
      </trkpt>
      <trkpt lat="44.01875" lon="7.2071">
        <ele>1201</ele>
        <time>2012-10-20T08:53:17.000Z</time>
      </trkpt>
      <trkpt lat="44.0188" lon="7.2071">
        <ele>1202.1999511719</ele>
        <time>2012-10-20T08:53:21.000Z</time>
      </trkpt>
      <trkpt lat="44.01884" lon="7.20712">
        <ele>1203.5999755859</ele>
        <time>2012-10-20T08:53:24.000Z</time>
      </trkpt>
      <trkpt lat="44.0189" lon="7.20716">
        <ele>1206.1999511719</ele>
        <time>2012-10-20T08:53:29.000Z</time>
      </trkpt>
      <trkpt lat="44.01893" lon="7.20716">
        <ele>1207</ele>
        <time>2012-10-20T08:53:31.000Z</time>
      </trkpt>
      <trkpt lat="44.01899" lon="7.20716">
        <ele>1208.4000244141</ele>
        <time>2012-10-20T08:53:37.000Z</time>
      </trkpt>
      <trkpt lat="44.01904" lon="7.20716">
        <ele>1209.1999511719</ele>
        <time>2012-10-20T08:53:42.000Z</time>
      </trkpt>
      <trkpt lat="44.01913" lon="7.20717">
        <ele>1211.5999755859</ele>
        <time>2012-10-20T08:53:48.000Z</time>
      </trkpt>
      <trkpt lat="44.01918" lon="7.20716">
        <ele>1212.5999755859</ele>
        <time>2012-10-20T08:53:54.000Z</time>
      </trkpt>
      <trkpt lat="44.01926" lon="7.2072">
        <ele>1214.5999755859</ele>
        <time>2012-10-20T08:53:59.000Z</time>
      </trkpt>
      <trkpt lat="44.01929" lon="7.2072">
        <ele>1215.1999511719</ele>
        <time>2012-10-20T08:54:01.000Z</time>
      </trkpt>
      <trkpt lat="44.01934" lon="7.20719">
        <ele>1215.4000244141</ele>
        <time>2012-10-20T08:54:06.000Z</time>
      </trkpt>
      <trkpt lat="44.01943" lon="7.20722">
        <ele>1217.4000244141</ele>
        <time>2012-10-20T08:54:14.000Z</time>
      </trkpt>
      <trkpt lat="44.01952" lon="7.20725">
        <ele>1219.1999511719</ele>
        <time>2012-10-20T08:54:21.000Z</time>
      </trkpt>
      <trkpt lat="44.01959" lon="7.20728">
        <ele>1220.4000244141</ele>
        <time>2012-10-20T08:54:26.000Z</time>
      </trkpt>
      <trkpt lat="44.01968" lon="7.20733">
        <ele>1222</ele>
        <time>2012-10-20T08:54:31.000Z</time>
      </trkpt>
      <trkpt lat="44.01979" lon="7.2074">
        <ele>1223.5999755859</ele>
        <time>2012-10-20T08:54:37.000Z</time>
      </trkpt>
      <trkpt lat="44.01984" lon="7.20743">
        <ele>1224</ele>
        <time>2012-10-20T08:54:40.000Z</time>
      </trkpt>
      <trkpt lat="44.0199" lon="7.20746">
        <ele>1224.4000244141</ele>
        <time>2012-10-20T08:54:46.000Z</time>
      </trkpt>
      <trkpt lat="44.02003" lon="7.2075">
        <ele>1226.1999511719</ele>
        <time>2012-10-20T08:54:53.000Z</time>
      </trkpt>
      <trkpt lat="44.02019" lon="7.20754">
        <ele>1234.4000244141</ele>
        <time>2012-10-20T08:55:01.000Z</time>
      </trkpt>
      <trkpt lat="44.02025" lon="7.20764">
        <ele>1239.1999511719</ele>
        <time>2012-10-20T08:55:09.000Z</time>
      </trkpt>
      <trkpt lat="44.0203" lon="7.20774">
        <ele>1243.4000244141</ele>
        <time>2012-10-20T08:55:16.000Z</time>
      </trkpt>
      <trkpt lat="44.02034" lon="7.20781">
        <ele>1246.4000244141</ele>
        <time>2012-10-20T08:55:22.000Z</time>
      </trkpt>
      <trkpt lat="44.02047" lon="7.20789">
        <ele>1251.5999755859</ele>
        <time>2012-10-20T08:55:30.000Z</time>
      </trkpt>
      <trkpt lat="44.02052" lon="7.2079">
        <ele>1253</ele>
        <time>2012-10-20T08:55:32.000Z</time>
      </trkpt>
      <trkpt lat="44.02061" lon="7.20792">
        <ele>1255.5999755859</ele>
        <time>2012-10-20T08:55:36.000Z</time>
      </trkpt>
      <trkpt lat="44.02069" lon="7.20802">
        <ele>1258.5999755859</ele>
        <time>2012-10-20T08:55:44.000Z</time>
      </trkpt>
      <trkpt lat="44.02068" lon="7.2081">
        <ele>1258.8000488281</ele>
        <time>2012-10-20T08:55:50.000Z</time>
      </trkpt>
      <trkpt lat="44.02069" lon="7.20816">
        <ele>1259.4000244141</ele>
        <time>2012-10-20T08:55:55.000Z</time>
      </trkpt>
      <trkpt lat="44.0206" lon="7.20821">
        <ele>1258.5999755859</ele>
        <time>2012-10-20T08:56:02.000Z</time>
      </trkpt>
      <trkpt lat="44.02058" lon="7.2082">
        <ele>1258.1999511719</ele>
        <time>2012-10-20T08:56:07.000Z</time>
      </trkpt>
      <trkpt lat="44.02064" lon="7.20817">
        <ele>1258.8000488281</ele>
        <time>2012-10-20T08:56:14.000Z</time>
      </trkpt>
      <trkpt lat="44.02064" lon="7.20816">
        <ele>1258.5999755859</ele>
        <time>2012-10-20T08:56:16.000Z</time>
      </trkpt>
      <trkpt lat="44.02069" lon="7.20806">
        <ele>1258.8000488281</ele>
        <time>2012-10-20T08:56:23.000Z</time>
      </trkpt>
      <trkpt lat="44.02069" lon="7.20804">
        <ele>1258.5999755859</ele>
        <time>2012-10-20T08:56:24.000Z</time>
      </trkpt>
      <trkpt lat="44.0207" lon="7.20789">
        <ele>1257.8000488281</ele>
        <time>2012-10-20T08:56:32.000Z</time>
      </trkpt>
      <trkpt lat="44.02067" lon="7.2078">
        <ele>1256.1999511719</ele>
        <time>2012-10-20T08:56:39.000Z</time>
      </trkpt>
      <trkpt lat="44.02055" lon="7.20779">
        <ele>1252.4000244141</ele>
        <time>2012-10-20T08:56:44.000Z</time>
      </trkpt>
      <trkpt lat="44.02049" lon="7.20771">
        <ele>1249.4000244141</ele>
        <time>2012-10-20T08:56:49.000Z</time>
      </trkpt>
      <trkpt lat="44.02045" lon="7.20764">
        <ele>1246.8000488281</ele>
        <time>2012-10-20T08:56:53.000Z</time>
      </trkpt>
      <trkpt lat="44.02039" lon="7.20757">
        <ele>1243.1999511719</ele>
        <time>2012-10-20T08:56:58.000Z</time>
      </trkpt>
      <trkpt lat="44.02032" lon="7.20748">
        <ele>1239</ele>
        <time>2012-10-20T08:57:05.000Z</time>
      </trkpt>
      <trkpt lat="44.02025" lon="7.20736">
        <ele>1236.1999511719</ele>
        <time>2012-10-20T08:57:12.000Z</time>
      </trkpt>
      <trkpt lat="44.02014" lon="7.20727">
        <ele>1231.4000244141</ele>
        <time>2012-10-20T08:57:19.000Z</time>
      </trkpt>
      <trkpt lat="44.02004" lon="7.2072">
        <ele>1227</ele>
        <time>2012-10-20T08:57:26.000Z</time>
      </trkpt>
      <trkpt lat="44.01995" lon="7.20712">
        <ele>1224.1999511719</ele>
        <time>2012-10-20T08:57:34.000Z</time>
      </trkpt>
      <trkpt lat="44.02" lon="7.20692">
        <ele>1225.1999511719</ele>
        <time>2012-10-20T08:57:41.000Z</time>
      </trkpt>
      <trkpt lat="44.02022" lon="7.20668">
        <ele>1235.8000488281</ele>
        <time>2012-10-20T08:57:48.000Z</time>
      </trkpt>
      <trkpt lat="44.02023" lon="7.20666">
        <ele>1236.4000244141</ele>
        <time>2012-10-20T08:57:49.000Z</time>
      </trkpt>
      <trkpt lat="44.0204" lon="7.20647">
        <ele>1244.8000488281</ele>
        <time>2012-10-20T08:57:57.000Z</time>
      </trkpt>
      <trkpt lat="44.02048" lon="7.20633">
        <ele>1248.8000488281</ele>
        <time>2012-10-20T08:58:04.000Z</time>
      </trkpt>
      <trkpt lat="44.02052" lon="7.20619">
        <ele>1250.8000488281</ele>
        <time>2012-10-20T08:58:11.000Z</time>
      </trkpt>
      <trkpt lat="44.02058" lon="7.20604">
        <ele>1253.8000488281</ele>
        <time>2012-10-20T08:58:20.000Z</time>
      </trkpt>
      <trkpt lat="44.02058" lon="7.20592">
        <ele>1254</ele>
        <time>2012-10-20T08:58:26.000Z</time>
      </trkpt>
      <trkpt lat="44.02059" lon="7.20577">
        <ele>1255.5999755859</ele>
        <time>2012-10-20T08:58:33.000Z</time>
      </trkpt>
      <trkpt lat="44.02055" lon="7.20558">
        <ele>1257.5999755859</ele>
        <time>2012-10-20T08:58:43.000Z</time>
      </trkpt>
      <trkpt lat="44.02051" lon="7.20548">
        <ele>1257.1999511719</ele>
        <time>2012-10-20T08:58:49.000Z</time>
      </trkpt>
      <trkpt lat="44.0204" lon="7.20533">
        <ele>1254.1999511719</ele>
        <time>2012-10-20T08:58:59.000Z</time>
      </trkpt>
      <trkpt lat="44.02031" lon="7.20514">
        <ele>1252.5999755859</ele>
        <time>2012-10-20T08:59:09.000Z</time>
      </trkpt>
      <trkpt lat="44.02024" lon="7.20497">
        <ele>1251.1999511719</ele>
        <time>2012-10-20T08:59:17.000Z</time>
      </trkpt>
      <trkpt lat="44.02018" lon="7.20486">
        <ele>1249.8000488281</ele>
        <time>2012-10-20T08:59:24.000Z</time>
      </trkpt>
      <trkpt lat="44.02011" lon="7.20476">
        <ele>1247.5999755859</ele>
        <time>2012-10-20T08:59:31.000Z</time>
      </trkpt>
      <trkpt lat="44.02009" lon="7.20464">
        <ele>1249.4000244141</ele>
        <time>2012-10-20T08:59:36.000Z</time>
      </trkpt>
      <trkpt lat="44.02006" lon="7.20459">
        <ele>1248.8000488281</ele>
        <time>2012-10-20T08:59:39.000Z</time>
      </trkpt>
      <trkpt lat="44.01996" lon="7.20451">
        <ele>1246.4000244141</ele>
        <time>2012-10-20T08:59:48.000Z</time>
      </trkpt>
      <trkpt lat="44.01991" lon="7.20449">
        <ele>1245.5999755859</ele>
        <time>2012-10-20T08:59:56.000Z</time>
      </trkpt>
      <trkpt lat="44.01989" lon="7.20447">
        <ele>1245.4000244141</ele>
        <time>2012-10-20T09:00:01.000Z</time>
      </trkpt>
      <trkpt lat="44.01988" lon="7.20444">
        <ele>1246</ele>
        <time>2012-10-20T09:00:06.000Z</time>
      </trkpt>
      <trkpt lat="44.01985" lon="7.20441">
        <ele>1246</ele>
        <time>2012-10-20T09:00:12.000Z</time>
      </trkpt>
      <trkpt lat="44.01983" lon="7.20436">
        <ele>1246.8000488281</ele>
        <time>2012-10-20T09:00:20.000Z</time>
      </trkpt>
      <trkpt lat="44.01981" lon="7.20434">
        <ele>1246.8000488281</ele>
        <time>2012-10-20T09:00:27.000Z</time>
      </trkpt>
      <trkpt lat="44.01976" lon="7.20436">
        <ele>1245.1999511719</ele>
        <time>2012-10-20T09:00:36.000Z</time>
      </trkpt>
      <trkpt lat="44.01969" lon="7.20434">
        <ele>1243.5999755859</ele>
        <time>2012-10-20T09:00:42.000Z</time>
      </trkpt>
      <trkpt lat="44.01965" lon="7.20433">
        <ele>1243</ele>
        <time>2012-10-20T09:00:48.000Z</time>
      </trkpt>
      <trkpt lat="44.01968" lon="7.20425">
        <ele>1246</ele>
        <time>2012-10-20T09:01:00.000Z</time>
      </trkpt>
      <trkpt lat="44.01968" lon="7.20423">
        <ele>1246.5999755859</ele>
        <time>2012-10-20T09:01:22.000Z</time>
      </trkpt>
      <trkpt lat="44.01968" lon="7.20424">
        <ele>1246.1999511719</ele>
        <time>2012-10-20T09:01:28.000Z</time>
      </trkpt>
      <trkpt lat="44.01972" lon="7.20426">
        <ele>1246.5999755859</ele>
        <time>2012-10-20T09:01:34.000Z</time>
      </trkpt>
      <trkpt lat="44.01966" lon="7.20424">
        <ele>1245.5999755859</ele>
        <time>2012-10-20T09:02:09.000Z</time>
      </trkpt>
      <trkpt lat="44.01968" lon="7.2043">
        <ele>1244.5999755859</ele>
        <time>2012-10-20T09:02:37.000Z</time>
      </trkpt>
      <trkpt lat="44.01962" lon="7.2043">
        <ele>1242.8000488281</ele>
        <time>2012-10-20T09:02:44.000Z</time>
      </trkpt>
      <trkpt lat="44.01964" lon="7.20428">
        <ele>1244</ele>
        <time>2012-10-20T09:02:52.000Z</time>
      </trkpt>
      <trkpt lat="44.01974" lon="7.20444">
        <ele>1242.1999511719</ele>
        <time>2012-10-20T09:03:53.000Z</time>
      </trkpt>
      <trkpt lat="44.01978" lon="7.20452">
        <ele>1241.1999511719</ele>
        <time>2012-10-20T09:03:57.000Z</time>
      </trkpt>
      <trkpt lat="44.01977" lon="7.20457">
        <ele>1239.5999755859</ele>
        <time>2012-10-20T09:04:03.000Z</time>
      </trkpt>
      <trkpt lat="44.0197" lon="7.20429">
        <ele>1245.1999511719</ele>
        <time>2012-10-20T09:05:54.000Z</time>
      </trkpt>
      <trkpt lat="44.01968" lon="7.20437">
        <ele>1242.5999755859</ele>
        <time>2012-10-20T09:06:23.000Z</time>
      </trkpt>
      <trkpt lat="44.01974" lon="7.20433">
        <ele>1245.1999511719</ele>
        <time>2012-10-20T09:06:35.000Z</time>
      </trkpt>
      <trkpt lat="44.01964" lon="7.20429">
        <ele>1243.8000488281</ele>
        <time>2012-10-20T09:06:41.000Z</time>
      </trkpt>
      <trkpt lat="44.01949" lon="7.20426">
        <ele>1240.8000488281</ele>
        <time>2012-10-20T09:06:45.000Z</time>
      </trkpt>
      <trkpt lat="44.01944" lon="7.20426">
        <ele>1239.4000244141</ele>
        <time>2012-10-20T09:06:46.000Z</time>
      </trkpt>
      <trkpt lat="44.0193" lon="7.20427">
        <ele>1235.8000488281</ele>
        <time>2012-10-20T09:06:51.000Z</time>
      </trkpt>
      <trkpt lat="44.01926" lon="7.20425">
        <ele>1235.5999755859</ele>
        <time>2012-10-20T09:06:53.000Z</time>
      </trkpt>
      <trkpt lat="44.01929" lon="7.20412">
        <ele>1237.4000244141</ele>
        <time>2012-10-20T09:06:58.000Z</time>
      </trkpt>
      <trkpt lat="44.01933" lon="7.20408">
        <ele>1237</ele>
        <time>2012-10-20T09:06:59.000Z</time>
      </trkpt>
      <trkpt lat="44.01957" lon="7.20382">
        <ele>1235.1999511719</ele>
        <time>2012-10-20T09:07:06.000Z</time>
      </trkpt>
      <trkpt lat="44.01961" lon="7.20378">
        <ele>1235</ele>
        <time>2012-10-20T09:07:07.000Z</time>
      </trkpt>
      <trkpt lat="44.01983" lon="7.20364">
        <ele>1237.1999511719</ele>
        <time>2012-10-20T09:07:13.000Z</time>
      </trkpt>
      <trkpt lat="44.02003" lon="7.20349">
        <ele>1239</ele>
        <time>2012-10-20T09:07:19.000Z</time>
      </trkpt>
      <trkpt lat="44.02022" lon="7.20335">
        <ele>1241.5999755859</ele>
        <time>2012-10-20T09:07:24.000Z</time>
      </trkpt>
      <trkpt lat="44.02035" lon="7.20328">
        <ele>1242.5999755859</ele>
        <time>2012-10-20T09:07:27.000Z</time>
      </trkpt>
      <trkpt lat="44.02057" lon="7.20312">
        <ele>1242.8000488281</ele>
        <time>2012-10-20T09:07:32.000Z</time>
      </trkpt>
      <trkpt lat="44.02081" lon="7.20294">
        <ele>1243</ele>
        <time>2012-10-20T09:07:37.000Z</time>
      </trkpt>
      <trkpt lat="44.02086" lon="7.20289">
        <ele>1242.8000488281</ele>
        <time>2012-10-20T09:07:38.000Z</time>
      </trkpt>
      <trkpt lat="44.02104" lon="7.20269">
        <ele>1241.1999511719</ele>
        <time>2012-10-20T09:07:43.000Z</time>
      </trkpt>
      <trkpt lat="44.02115" lon="7.20249">
        <ele>1237.4000244141</ele>
        <time>2012-10-20T09:07:48.000Z</time>
      </trkpt>
      <trkpt lat="44.02119" lon="7.20237">
        <ele>1235.5999755859</ele>
        <time>2012-10-20T09:07:50.000Z</time>
      </trkpt>
      <trkpt lat="44.0213" lon="7.2021">
        <ele>1232.5999755859</ele>
        <time>2012-10-20T09:07:55.000Z</time>
      </trkpt>
      <trkpt lat="44.02142" lon="7.20188">
        <ele>1230.8000488281</ele>
        <time>2012-10-20T09:08:00.000Z</time>
      </trkpt>
      <trkpt lat="44.02154" lon="7.20154">
        <ele>1226</ele>
        <time>2012-10-20T09:08:07.000Z</time>
      </trkpt>
      <trkpt lat="44.02164" lon="7.20138">
        <ele>1225</ele>
        <time>2012-10-20T09:08:11.000Z</time>
      </trkpt>
      <trkpt lat="44.02184" lon="7.2013">
        <ele>1228.8000488281</ele>
        <time>2012-10-20T09:08:15.000Z</time>
      </trkpt>
      <trkpt lat="44.02188" lon="7.20128">
        <ele>1229.5999755859</ele>
        <time>2012-10-20T09:08:16.000Z</time>
      </trkpt>
      <trkpt lat="44.02198" lon="7.20123">
        <ele>1230.5999755859</ele>
        <time>2012-10-20T09:08:18.000Z</time>
      </trkpt>
      <trkpt lat="44.02214" lon="7.2011">
        <ele>1230.1999511719</ele>
        <time>2012-10-20T09:08:22.000Z</time>
      </trkpt>
      <trkpt lat="44.02224" lon="7.20105">
        <ele>1230.8000488281</ele>
        <time>2012-10-20T09:08:25.000Z</time>
      </trkpt>
      <trkpt lat="44.02224" lon="7.20103">
        <ele>1230.1999511719</ele>
        <time>2012-10-20T09:08:30.000Z</time>
      </trkpt>
      <trkpt lat="44.02225" lon="7.20102">
        <ele>1230</ele>
        <time>2012-10-20T09:08:32.000Z</time>
      </trkpt>
      <trkpt lat="44.02226" lon="7.20096">
        <ele>1227.4000244141</ele>
        <time>2012-10-20T09:08:37.000Z</time>
      </trkpt>
      <trkpt lat="44.02228" lon="7.20084">
        <ele>1223</ele>
        <time>2012-10-20T09:08:41.000Z</time>
      </trkpt>
      <trkpt lat="44.02236" lon="7.20065">
        <ele>1227</ele>
        <time>2012-10-20T09:08:46.000Z</time>
      </trkpt>
      <trkpt lat="44.02237" lon="7.20057">
        <ele>1228.1999511719</ele>
        <time>2012-10-20T09:08:50.000Z</time>
      </trkpt>
      <trkpt lat="44.02237" lon="7.20053">
        <ele>1228.8000488281</ele>
        <time>2012-10-20T09:08:54.000Z</time>
      </trkpt>
      <trkpt lat="44.02248" lon="7.20056">
        <ele>1230.8000488281</ele>
        <time>2012-10-20T09:09:00.000Z</time>
      </trkpt>
      <trkpt lat="44.02262" lon="7.20057">
        <ele>1234.5999755859</ele>
        <time>2012-10-20T09:09:04.000Z</time>
      </trkpt>
      <trkpt lat="44.02266" lon="7.20056">
        <ele>1235.8000488281</ele>
        <time>2012-10-20T09:09:08.000Z</time>
      </trkpt>
      <trkpt lat="44.02267" lon="7.2006">
        <ele>1235.5999755859</ele>
        <time>2012-10-20T09:09:13.000Z</time>
      </trkpt>
      <trkpt lat="44.02264" lon="7.2006">
        <ele>1234.5999755859</ele>
        <time>2012-10-20T09:09:24.000Z</time>
      </trkpt>
      <trkpt lat="44.02258" lon="7.20061">
        <ele>1233</ele>
        <time>2012-10-20T09:09:30.000Z</time>
      </trkpt>
      <trkpt lat="44.02252" lon="7.20045">
        <ele>1233.1999511719</ele>
        <time>2012-10-20T09:09:35.000Z</time>
      </trkpt>
      <trkpt lat="44.02247" lon="7.2004">
        <ele>1232.5999755859</ele>
        <time>2012-10-20T09:09:37.000Z</time>
      </trkpt>
      <trkpt lat="44.02235" lon="7.20039">
        <ele>1230.1999511719</ele>
        <time>2012-10-20T09:09:43.000Z</time>
      </trkpt>
      <trkpt lat="44.02226" lon="7.20041">
        <ele>1228</ele>
        <time>2012-10-20T09:09:47.000Z</time>
      </trkpt>
      <trkpt lat="44.02209" lon="7.20044">
        <ele>1224</ele>
        <time>2012-10-20T09:09:52.000Z</time>
      </trkpt>
      <trkpt lat="44.02198" lon="7.20049">
        <ele>1221</ele>
        <time>2012-10-20T09:09:55.000Z</time>
      </trkpt>
      <trkpt lat="44.02195" lon="7.2005">
        <ele>1220.1999511719</ele>
        <time>2012-10-20T09:09:56.000Z</time>
      </trkpt>
      <trkpt lat="44.02195" lon="7.2005">
        <ele>1220.1999511719</ele>
        <time>2012-10-20T09:09:56.000Z</time>
      </trkpt>
      <trkpt lat="44.02182" lon="7.2005">
        <ele>1217.4000244141</ele>
        <time>2012-10-20T09:10:00.000Z</time>
      </trkpt>
      <trkpt lat="44.02163" lon="7.20049">
        <ele>1213.8000488281</ele>
        <time>2012-10-20T09:10:05.000Z</time>
      </trkpt>
      <trkpt lat="44.02151" lon="7.20042">
        <ele>1214.4000244141</ele>
        <time>2012-10-20T09:10:09.000Z</time>
      </trkpt>
      <trkpt lat="44.02142" lon="7.20043">
        <ele>1213.1999511719</ele>
        <time>2012-10-20T09:10:13.000Z</time>
      </trkpt>
      <trkpt lat="44.02126" lon="7.20044">
        <ele>1211.5999755859</ele>
        <time>2012-10-20T09:10:17.000Z</time>
      </trkpt>
      <trkpt lat="44.02117" lon="7.20044">
        <ele>1210.5999755859</ele>
        <time>2012-10-20T09:10:21.000Z</time>
      </trkpt>
      <trkpt lat="44.02107" lon="7.20049">
        <ele>1208</ele>
        <time>2012-10-20T09:10:26.000Z</time>
      </trkpt>
      <trkpt lat="44.02087" lon="7.20055">
        <ele>1203.4000244141</ele>
        <time>2012-10-20T09:10:31.000Z</time>
      </trkpt>
      <trkpt lat="44.02064" lon="7.20068">
        <ele>1195.4000244141</ele>
        <time>2012-10-20T09:10:35.000Z</time>
      </trkpt>
      <trkpt lat="44.0205" lon="7.20076">
        <ele>1190.1999511719</ele>
        <time>2012-10-20T09:10:39.000Z</time>
      </trkpt>
      <trkpt lat="44.02043" lon="7.20078">
        <ele>1188.4000244141</ele>
        <time>2012-10-20T09:10:41.000Z</time>
      </trkpt>
      <trkpt lat="44.02033" lon="7.20079">
        <ele>1187</ele>
        <time>2012-10-20T09:10:43.000Z</time>
      </trkpt>
      <trkpt lat="44.02016" lon="7.20077">
        <ele>1186.4000244141</ele>
        <time>2012-10-20T09:10:46.000Z</time>
      </trkpt>
      <trkpt lat="44.01995" lon="7.20074">
        <ele>1186.1999511719</ele>
        <time>2012-10-20T09:10:50.000Z</time>
      </trkpt>
      <trkpt lat="44.01981" lon="7.20074">
        <ele>1185</ele>
        <time>2012-10-20T09:10:56.000Z</time>
      </trkpt>
      <trkpt lat="44.01955" lon="7.20078">
        <ele>1181</ele>
        <time>2012-10-20T09:11:01.000Z</time>
      </trkpt>
      <trkpt lat="44.01939" lon="7.2008">
        <ele>1178.4000244141</ele>
        <time>2012-10-20T09:11:05.000Z</time>
      </trkpt>
      <trkpt lat="44.01932" lon="7.20083">
        <ele>1176.1999511719</ele>
        <time>2012-10-20T09:11:07.000Z</time>
      </trkpt>
      <trkpt lat="44.01924" lon="7.20085">
        <ele>1175</ele>
        <time>2012-10-20T09:11:09.000Z</time>
      </trkpt>
      <trkpt lat="44.01905" lon="7.20091">
        <ele>1169.5999755859</ele>
        <time>2012-10-20T09:11:14.000Z</time>
      </trkpt>
      <trkpt lat="44.01889" lon="7.20098">
        <ele>1163.5999755859</ele>
        <time>2012-10-20T09:11:18.000Z</time>
      </trkpt>
      <trkpt lat="44.01866" lon="7.20105">
        <ele>1156</ele>
        <time>2012-10-20T09:11:23.000Z</time>
      </trkpt>
      <trkpt lat="44.01854" lon="7.20102">
        <ele>1154.4000244141</ele>
        <time>2012-10-20T09:11:25.000Z</time>
      </trkpt>
      <trkpt lat="44.01842" lon="7.20097">
        <ele>1153.8000488281</ele>
        <time>2012-10-20T09:11:27.000Z</time>
      </trkpt>
      <trkpt lat="44.01835" lon="7.20091">
        <ele>1153.8000488281</ele>
        <time>2012-10-20T09:11:29.000Z</time>
      </trkpt>
      <trkpt lat="44.01817" lon="7.20081">
        <ele>1151.5999755859</ele>
        <time>2012-10-20T09:11:33.000Z</time>
      </trkpt>
      <trkpt lat="44.018" lon="7.20073">
        <ele>1149.4000244141</ele>
        <time>2012-10-20T09:11:37.000Z</time>
      </trkpt>
      <trkpt lat="44.01781" lon="7.20058">
        <ele>1149.4000244141</ele>
        <time>2012-10-20T09:11:42.000Z</time>
      </trkpt>
      <trkpt lat="44.01765" lon="7.20052">
        <ele>1145.8000488281</ele>
        <time>2012-10-20T09:11:46.000Z</time>
      </trkpt>
      <trkpt lat="44.01752" lon="7.20053">
        <ele>1140.4000244141</ele>
        <time>2012-10-20T09:11:49.000Z</time>
      </trkpt>
      <trkpt lat="44.01724" lon="7.20035">
        <ele>1135.8000488281</ele>
        <time>2012-10-20T09:11:55.000Z</time>
      </trkpt>
      <trkpt lat="44.01717" lon="7.20022">
        <ele>1137</ele>
        <time>2012-10-20T09:11:57.000Z</time>
      </trkpt>
      <trkpt lat="44.01704" lon="7.19995">
        <ele>1141</ele>
        <time>2012-10-20T09:12:01.000Z</time>
      </trkpt>
      <trkpt lat="44.0169" lon="7.19973">
        <ele>1143</ele>
        <time>2012-10-20T09:12:05.000Z</time>
      </trkpt>
      <trkpt lat="44.01682" lon="7.19965">
        <ele>1143</ele>
        <time>2012-10-20T09:12:07.000Z</time>
      </trkpt>
      <trkpt lat="44.01673" lon="7.19956">
        <ele>1141.8000488281</ele>
        <time>2012-10-20T09:12:09.000Z</time>
      </trkpt>
      <trkpt lat="44.01632" lon="7.19926">
        <ele>1137.5999755859</ele>
        <time>2012-10-20T09:12:16.000Z</time>
      </trkpt>
      <trkpt lat="44.01628" lon="7.19922">
        <ele>1137.1999511719</ele>
        <time>2012-10-20T09:12:17.000Z</time>
      </trkpt>
      <trkpt lat="44.0161" lon="7.19911">
        <ele>1134.8000488281</ele>
        <time>2012-10-20T09:12:21.000Z</time>
      </trkpt>
      <trkpt lat="44.01594" lon="7.1991">
        <ele>1129</ele>
        <time>2012-10-20T09:12:25.000Z</time>
      </trkpt>
      <trkpt lat="44.01586" lon="7.1991">
        <ele>1126.1999511719</ele>
        <time>2012-10-20T09:12:29.000Z</time>
      </trkpt>
      <trkpt lat="44.01581" lon="7.1991">
        <ele>1124</ele>
        <time>2012-10-20T09:12:34.000Z</time>
      </trkpt>
      <trkpt lat="44.01566" lon="7.1991">
        <ele>1116</ele>
        <time>2012-10-20T09:12:38.000Z</time>
      </trkpt>
      <trkpt lat="44.01555" lon="7.19896">
        <ele>1114.5999755859</ele>
        <time>2012-10-20T09:12:42.000Z</time>
      </trkpt>
      <trkpt lat="44.01549" lon="7.19868">
        <ele>1119.1999511719</ele>
        <time>2012-10-20T09:12:47.000Z</time>
      </trkpt>
      <trkpt lat="44.01542" lon="7.19846">
        <ele>1121.5999755859</ele>
        <time>2012-10-20T09:12:51.000Z</time>
      </trkpt>
      <trkpt lat="44.01536" lon="7.19828">
        <ele>1121</ele>
        <time>2012-10-20T09:12:54.000Z</time>
      </trkpt>
      <trkpt lat="44.01534" lon="7.19792">
        <ele>1114.5999755859</ele>
        <time>2012-10-20T09:12:59.000Z</time>
      </trkpt>
      <trkpt lat="44.01539" lon="7.19774">
        <ele>1115</ele>
        <time>2012-10-20T09:13:03.000Z</time>
      </trkpt>
      <trkpt lat="44.01542" lon="7.19767">
        <ele>1115.5999755859</ele>
        <time>2012-10-20T09:13:05.000Z</time>
      </trkpt>
      <trkpt lat="44.01554" lon="7.19734">
        <ele>1118</ele>
        <time>2012-10-20T09:13:13.000Z</time>
      </trkpt>
      <trkpt lat="44.0156" lon="7.19707">
        <ele>1117.1999511719</ele>
        <time>2012-10-20T09:13:18.000Z</time>
      </trkpt>
      <trkpt lat="44.01572" lon="7.19683">
        <ele>1118.1999511719</ele>
        <time>2012-10-20T09:13:23.000Z</time>
      </trkpt>
      <trkpt lat="44.01582" lon="7.19665">
        <ele>1119.1999511719</ele>
        <time>2012-10-20T09:13:28.000Z</time>
      </trkpt>
      <trkpt lat="44.01591" lon="7.19649">
        <ele>1126.8000488281</ele>
        <time>2012-10-20T09:13:33.000Z</time>
      </trkpt>
      <trkpt lat="44.01594" lon="7.19648">
        <ele>1128.1999511719</ele>
        <time>2012-10-20T09:13:34.000Z</time>
      </trkpt>
      <trkpt lat="44.01594" lon="7.19648">
        <ele>1128.1999511719</ele>
        <time>2012-10-20T09:13:34.000Z</time>
      </trkpt>
      <trkpt lat="44.01596" lon="7.19649">
        <ele>1129</ele>
        <time>2012-10-20T09:13:38.000Z</time>
      </trkpt>
      <trkpt lat="44.01577" lon="7.19647">
        <ele>1121.8000488281</ele>
        <time>2012-10-20T09:13:43.000Z</time>
      </trkpt>
      <trkpt lat="44.01568" lon="7.19643">
        <ele>1120.1999511719</ele>
        <time>2012-10-20T09:13:47.000Z</time>
      </trkpt>
      <trkpt lat="44.01563" lon="7.19633">
        <ele>1121.1999511719</ele>
        <time>2012-10-20T09:13:51.000Z</time>
      </trkpt>
      <trkpt lat="44.01559" lon="7.19625">
        <ele>1122.4000244141</ele>
        <time>2012-10-20T09:13:57.000Z</time>
      </trkpt>
      <trkpt lat="44.01559" lon="7.19626">
        <ele>1122</ele>
        <time>2012-10-20T09:14:01.000Z</time>
      </trkpt>
      <trkpt lat="44.0156" lon="7.19627">
        <ele>1122.1999511719</ele>
        <time>2012-10-20T09:14:05.000Z</time>
      </trkpt>
      <trkpt lat="44.01547" lon="7.19634">
        <ele>1117</ele>
        <time>2012-10-20T09:14:12.000Z</time>
      </trkpt>
      <trkpt lat="44.0153" lon="7.19634">
        <ele>1112.4000244141</ele>
        <time>2012-10-20T09:14:17.000Z</time>
      </trkpt>
      <trkpt lat="44.01516" lon="7.19631">
        <ele>1109.5999755859</ele>
        <time>2012-10-20T09:14:21.000Z</time>
      </trkpt>
      <trkpt lat="44.01513" lon="7.1963">
        <ele>1109.4000244141</ele>
        <time>2012-10-20T09:14:22.000Z</time>
      </trkpt>
      <trkpt lat="44.01497" lon="7.19615">
        <ele>1111.1999511719</ele>
        <time>2012-10-20T09:14:27.000Z</time>
      </trkpt>
      <trkpt lat="44.0148" lon="7.19608">
        <ele>1109.8000488281</ele>
        <time>2012-10-20T09:14:31.000Z</time>
      </trkpt>
      <trkpt lat="44.01463" lon="7.19605">
        <ele>1107.5999755859</ele>
        <time>2012-10-20T09:14:35.000Z</time>
      </trkpt>
      <trkpt lat="44.01452" lon="7.19605">
        <ele>1104.8000488281</ele>
        <time>2012-10-20T09:14:38.000Z</time>
      </trkpt>
      <trkpt lat="44.01434" lon="7.19601">
        <ele>1102.5999755859</ele>
        <time>2012-10-20T09:14:43.000Z</time>
      </trkpt>
      <trkpt lat="44.01418" lon="7.19597">
        <ele>1100.8000488281</ele>
        <time>2012-10-20T09:14:47.000Z</time>
      </trkpt>
      <trkpt lat="44.01408" lon="7.19593">
        <ele>1099.1999511719</ele>
        <time>2012-10-20T09:14:49.000Z</time>
      </trkpt>
      <trkpt lat="44.01382" lon="7.1957">
        <ele>1097.8000488281</ele>
        <time>2012-10-20T09:14:55.000Z</time>
      </trkpt>
      <trkpt lat="44.01372" lon="7.1956">
        <ele>1096.8000488281</ele>
        <time>2012-10-20T09:14:58.000Z</time>
      </trkpt>
      <trkpt lat="44.01354" lon="7.19537">
        <ele>1095.8000488281</ele>
        <time>2012-10-20T09:15:03.000Z</time>
      </trkpt>
      <trkpt lat="44.01337" lon="7.19513">
        <ele>1094.4000244141</ele>
        <time>2012-10-20T09:15:08.000Z</time>
      </trkpt>
      <trkpt lat="44.01327" lon="7.19489">
        <ele>1091.8000488281</ele>
        <time>2012-10-20T09:15:13.000Z</time>
      </trkpt>
      <trkpt lat="44.01321" lon="7.1947">
        <ele>1088</ele>
        <time>2012-10-20T09:15:18.000Z</time>
      </trkpt>
      <trkpt lat="44.01317" lon="7.1945">
        <ele>1085.4000244141</ele>
        <time>2012-10-20T09:15:24.000Z</time>
      </trkpt>
      <trkpt lat="44.01318" lon="7.19422">
        <ele>1085.8000488281</ele>
        <time>2012-10-20T09:15:30.000Z</time>
      </trkpt>
      <trkpt lat="44.01322" lon="7.19398">
        <ele>1086</ele>
        <time>2012-10-20T09:15:35.000Z</time>
      </trkpt>
      <trkpt lat="44.01325" lon="7.19376">
        <ele>1084.1999511719</ele>
        <time>2012-10-20T09:15:40.000Z</time>
      </trkpt>
      <trkpt lat="44.01329" lon="7.19366">
        <ele>1084.8000488281</ele>
        <time>2012-10-20T09:15:44.000Z</time>
      </trkpt>
      <trkpt lat="44.01335" lon="7.19353">
        <ele>1085.4000244141</ele>
        <time>2012-10-20T09:15:48.000Z</time>
      </trkpt>
      <trkpt lat="44.01351" lon="7.1933">
        <ele>1089.8000488281</ele>
        <time>2012-10-20T09:15:55.000Z</time>
      </trkpt>
      <trkpt lat="44.01361" lon="7.1932">
        <ele>1094.1999511719</ele>
        <time>2012-10-20T09:16:00.000Z</time>
      </trkpt>
      <trkpt lat="44.01371" lon="7.19315">
        <ele>1099.1999511719</ele>
        <time>2012-10-20T09:16:05.000Z</time>
      </trkpt>
      <trkpt lat="44.01378" lon="7.1931">
        <ele>1102.1999511719</ele>
        <time>2012-10-20T09:16:10.000Z</time>
      </trkpt>
      <trkpt lat="44.01384" lon="7.19308">
        <ele>1105</ele>
        <time>2012-10-20T09:16:17.000Z</time>
      </trkpt>
      <trkpt lat="44.01388" lon="7.19295">
        <ele>1106</ele>
        <time>2012-10-20T09:16:22.000Z</time>
      </trkpt>
      <trkpt lat="44.01388" lon="7.19287">
        <ele>1105.5999755859</ele>
        <time>2012-10-20T09:16:24.000Z</time>
      </trkpt>
      <trkpt lat="44.01375" lon="7.19269">
        <ele>1099.5999755859</ele>
        <time>2012-10-20T09:16:30.000Z</time>
      </trkpt>
      <trkpt lat="44.01366" lon="7.19263">
        <ele>1096</ele>
        <time>2012-10-20T09:16:34.000Z</time>
      </trkpt>
      <trkpt lat="44.01365" lon="7.19236">
        <ele>1101</ele>
        <time>2012-10-20T09:16:39.000Z</time>
      </trkpt>
      <trkpt lat="44.01372" lon="7.1922">
        <ele>1109.1999511719</ele>
        <time>2012-10-20T09:16:43.000Z</time>
      </trkpt>
      <trkpt lat="44.01374" lon="7.19218">
        <ele>1110.4000244141</ele>
        <time>2012-10-20T09:16:44.000Z</time>
      </trkpt>
      <trkpt lat="44.01365" lon="7.19219">
        <ele>1107.4000244141</ele>
        <time>2012-10-20T09:16:48.000Z</time>
      </trkpt>
      <trkpt lat="44.01356" lon="7.1922">
        <ele>1104.1999511719</ele>
        <time>2012-10-20T09:16:51.000Z</time>
      </trkpt>
      <trkpt lat="44.01332" lon="7.19222">
        <ele>1096.4000244141</ele>
        <time>2012-10-20T09:16:58.000Z</time>
      </trkpt>
      <trkpt lat="44.01322" lon="7.19219">
        <ele>1096.1999511719</ele>
        <time>2012-10-20T09:17:02.000Z</time>
      </trkpt>
      <trkpt lat="44.01308" lon="7.19221">
        <ele>1093</ele>
        <time>2012-10-20T09:17:06.000Z</time>
      </trkpt>
      <trkpt lat="44.01289" lon="7.19224">
        <ele>1088.5999755859</ele>
        <time>2012-10-20T09:17:10.000Z</time>
      </trkpt>
      <trkpt lat="44.01254" lon="7.19228">
        <ele>1080.8000488281</ele>
        <time>2012-10-20T09:17:16.000Z</time>
      </trkpt>
      <trkpt lat="44.0125" lon="7.19228">
        <ele>1079.8000488281</ele>
        <time>2012-10-20T09:17:17.000Z</time>
      </trkpt>
      <trkpt lat="44.01237" lon="7.19231">
        <ele>1074.5999755859</ele>
        <time>2012-10-20T09:17:21.000Z</time>
      </trkpt>
      <trkpt lat="44.01215" lon="7.19225">
        <ele>1070.4000244141</ele>
        <time>2012-10-20T09:17:27.000Z</time>
      </trkpt>
      <trkpt lat="44.01202" lon="7.19217">
        <ele>1069.5999755859</ele>
        <time>2012-10-20T09:17:30.000Z</time>
      </trkpt>
      <trkpt lat="44.01182" lon="7.19215">
        <ele>1063.8000488281</ele>
        <time>2012-10-20T09:17:35.000Z</time>
      </trkpt>
      <trkpt lat="44.0118" lon="7.19214">
        <ele>1063.5999755859</ele>
        <time>2012-10-20T09:17:36.000Z</time>
      </trkpt>
      <trkpt lat="44.01172" lon="7.19212">
        <ele>1061.5999755859</ele>
        <time>2012-10-20T09:17:38.000Z</time>
      </trkpt>
      <trkpt lat="44.01151" lon="7.19199">
        <ele>1054.8000488281</ele>
        <time>2012-10-20T09:17:43.000Z</time>
      </trkpt>
      <trkpt lat="44.01137" lon="7.19181">
        <ele>1051.5999755859</ele>
        <time>2012-10-20T09:17:48.000Z</time>
      </trkpt>
      <trkpt lat="44.01128" lon="7.19152">
        <ele>1055.1999511719</ele>
        <time>2012-10-20T09:17:54.000Z</time>
      </trkpt>
      <trkpt lat="44.01121" lon="7.19129">
        <ele>1059.1999511719</ele>
        <time>2012-10-20T09:17:58.000Z</time>
      </trkpt>
      <trkpt lat="44.01112" lon="7.19115">
        <ele>1058.8000488281</ele>
        <time>2012-10-20T09:18:03.000Z</time>
      </trkpt>
      <trkpt lat="44.01109" lon="7.19114">
        <ele>1056.8000488281</ele>
        <time>2012-10-20T09:18:04.000Z</time>
      </trkpt>
      <trkpt lat="44.01079" lon="7.19109">
        <ele>1039.8000488281</ele>
        <time>2012-10-20T09:18:11.000Z</time>
      </trkpt>
      <trkpt lat="44.01076" lon="7.19105">
        <ele>1039.1999511719</ele>
        <time>2012-10-20T09:18:12.000Z</time>
      </trkpt>
      <trkpt lat="44.01076" lon="7.19105">
        <ele>1039.1999511719</ele>
        <time>2012-10-20T09:18:12.000Z</time>
      </trkpt>
      <trkpt lat="44.01069" lon="7.19075">
        <ele>1045.5999755859</ele>
        <time>2012-10-20T09:18:16.000Z</time>
      </trkpt>
      <trkpt lat="44.01061" lon="7.19051">
        <ele>1049.4000244141</ele>
        <time>2012-10-20T09:18:20.000Z</time>
      </trkpt>
      <trkpt lat="44.01051" lon="7.1904">
        <ele>1047.4000244141</ele>
        <time>2012-10-20T09:18:23.000Z</time>
      </trkpt>
      <trkpt lat="44.01028" lon="7.1903">
        <ele>1038.1999511719</ele>
        <time>2012-10-20T09:18:29.000Z</time>
      </trkpt>
      <trkpt lat="44.01013" lon="7.19016">
        <ele>1035.4000244141</ele>
        <time>2012-10-20T09:18:34.000Z</time>
      </trkpt>
      <trkpt lat="44.01007" lon="7.19009">
        <ele>1034.5999755859</ele>
        <time>2012-10-20T09:18:36.000Z</time>
      </trkpt>
      <trkpt lat="44.00992" lon="7.18995">
        <ele>1029.5999755859</ele>
        <time>2012-10-20T09:18:41.000Z</time>
      </trkpt>
      <trkpt lat="44.0098" lon="7.18988">
        <ele>1023.200012207</ele>
        <time>2012-10-20T09:18:45.000Z</time>
      </trkpt>
      <trkpt lat="44.00961" lon="7.18978">
        <ele>1013.200012207</ele>
        <time>2012-10-20T09:18:50.000Z</time>
      </trkpt>
      <trkpt lat="44.00952" lon="7.18961">
        <ele>1009.5999755859</ele>
        <time>2012-10-20T09:18:54.000Z</time>
      </trkpt>
      <trkpt lat="44.00949" lon="7.18949">
        <ele>1009.4000244141</ele>
        <time>2012-10-20T09:18:58.000Z</time>
      </trkpt>
      <trkpt lat="44.00945" lon="7.1892">
        <ele>1010.200012207</ele>
        <time>2012-10-20T09:19:05.000Z</time>
      </trkpt>
      <trkpt lat="44.00949" lon="7.18902">
        <ele>1012.200012207</ele>
        <time>2012-10-20T09:19:09.000Z</time>
      </trkpt>
      <trkpt lat="44.00964" lon="7.18863">
        <ele>1016.4000244141</ele>
        <time>2012-10-20T09:19:16.000Z</time>
      </trkpt>
      <trkpt lat="44.0098" lon="7.18838">
        <ele>1019</ele>
        <time>2012-10-20T09:19:22.000Z</time>
      </trkpt>
      <trkpt lat="44.00987" lon="7.1883">
        <ele>1021</ele>
        <time>2012-10-20T09:19:25.000Z</time>
      </trkpt>
      <trkpt lat="44.01004" lon="7.18821">
        <ele>1027.5999755859</ele>
        <time>2012-10-20T09:19:31.000Z</time>
      </trkpt>
      <trkpt lat="44.01011" lon="7.18808">
        <ele>1031.8000488281</ele>
        <time>2012-10-20T09:19:36.000Z</time>
      </trkpt>
      <trkpt lat="44.01011" lon="7.18805">
        <ele>1032.1999511719</ele>
        <time>2012-10-20T09:19:37.000Z</time>
      </trkpt>
      <trkpt lat="44.01009" lon="7.18804">
        <ele>1031.8000488281</ele>
        <time>2012-10-20T09:19:44.000Z</time>
      </trkpt>
      <trkpt lat="44.01007" lon="7.18804">
        <ele>1031</ele>
        <time>2012-10-20T09:19:46.000Z</time>
      </trkpt>
      <trkpt lat="44.00999" lon="7.18809">
        <ele>1028</ele>
        <time>2012-10-20T09:19:52.000Z</time>
      </trkpt>
      <trkpt lat="44.00999" lon="7.18809">
        <ele>1027.8000488281</ele>
        <time>2012-10-20T09:19:57.000Z</time>
      </trkpt>
      <trkpt lat="44.00989" lon="7.18809">
        <ele>1025.1999511719</ele>
        <time>2012-10-20T09:20:05.000Z</time>
      </trkpt>
      <trkpt lat="44.00985" lon="7.1881">
        <ele>1024</ele>
        <time>2012-10-20T09:20:09.000Z</time>
      </trkpt>
      <trkpt lat="44.0098" lon="7.18811">
        <ele>1022.5999755859</ele>
        <time>2012-10-20T09:20:13.000Z</time>
      </trkpt>
      <trkpt lat="44.00976" lon="7.18809">
        <ele>1022.200012207</ele>
        <time>2012-10-20T09:20:19.000Z</time>
      </trkpt>
      <trkpt lat="44.00972" lon="7.18808">
        <ele>1021.200012207</ele>
        <time>2012-10-20T09:20:24.000Z</time>
      </trkpt>
      <trkpt lat="44.00964" lon="7.18806">
        <ele>1019.5999755859</ele>
        <time>2012-10-20T09:20:31.000Z</time>
      </trkpt>
      <trkpt lat="44.00963" lon="7.18803">
        <ele>1020</ele>
        <time>2012-10-20T09:20:33.000Z</time>
      </trkpt>
      <trkpt lat="44.0096" lon="7.18801">
        <ele>1019.799987793</ele>
        <time>2012-10-20T09:20:37.000Z</time>
      </trkpt>
      <trkpt lat="44.00956" lon="7.18798">
        <ele>1019.4000244141</ele>
        <time>2012-10-20T09:20:43.000Z</time>
      </trkpt>
      <trkpt lat="44.0095" lon="7.18791">
        <ele>1019.5999755859</ele>
        <time>2012-10-20T09:20:51.000Z</time>
      </trkpt>
      <trkpt lat="44.00949" lon="7.18788">
        <ele>1020.200012207</ele>
        <time>2012-10-20T09:20:57.000Z</time>
      </trkpt>
      <trkpt lat="44.00939" lon="7.18787">
        <ele>1018.200012207</ele>
        <time>2012-10-20T09:21:02.000Z</time>
      </trkpt>
      <trkpt lat="44.00925" lon="7.18787">
        <ele>1015</ele>
        <time>2012-10-20T09:21:08.000Z</time>
      </trkpt>
      <trkpt lat="44.00921" lon="7.18788">
        <ele>1014.200012207</ele>
        <time>2012-10-20T09:21:10.000Z</time>
      </trkpt>
      <trkpt lat="44.0091" lon="7.1879">
        <ele>1011.4000244141</ele>
        <time>2012-10-20T09:21:16.000Z</time>
      </trkpt>
      <trkpt lat="44.009" lon="7.18787">
        <ele>1010.4000244141</ele>
        <time>2012-10-20T09:21:21.000Z</time>
      </trkpt>
      <trkpt lat="44.00896" lon="7.1878">
        <ele>1011.4000244141</ele>
        <time>2012-10-20T09:21:26.000Z</time>
      </trkpt>
      <trkpt lat="44.00901" lon="7.1877">
        <ele>1015</ele>
        <time>2012-10-20T09:21:37.000Z</time>
      </trkpt>
      <trkpt lat="44.00899" lon="7.18766">
        <ele>1015.5999755859</ele>
        <time>2012-10-20T09:21:43.000Z</time>
      </trkpt>
      <trkpt lat="44.00897" lon="7.18758">
        <ele>1017.200012207</ele>
        <time>2012-10-20T09:21:50.000Z</time>
      </trkpt>
      <trkpt lat="44.00896" lon="7.18752">
        <ele>1018.4000244141</ele>
        <time>2012-10-20T09:21:55.000Z</time>
      </trkpt>
      <trkpt lat="44.00896" lon="7.18747">
        <ele>1019.4000244141</ele>
        <time>2012-10-20T09:22:01.000Z</time>
      </trkpt>
      <trkpt lat="44.00896" lon="7.18744">
        <ele>1019.799987793</ele>
        <time>2012-10-20T09:22:05.000Z</time>
      </trkpt>
      <trkpt lat="44.009" lon="7.18728">
        <ele>1022.5999755859</ele>
        <time>2012-10-20T09:22:11.000Z</time>
      </trkpt>
      <trkpt lat="44.00907" lon="7.18707">
        <ele>1027.4000244141</ele>
        <time>2012-10-20T09:22:16.000Z</time>
      </trkpt>
      <trkpt lat="44.0091" lon="7.18699">
        <ele>1029.4000244141</ele>
        <time>2012-10-20T09:22:18.000Z</time>
      </trkpt>
      <trkpt lat="44.00908" lon="7.18676">
        <ele>1032</ele>
        <time>2012-10-20T09:22:24.000Z</time>
      </trkpt>
      <trkpt lat="44.00899" lon="7.18663">
        <ele>1031.1999511719</ele>
        <time>2012-10-20T09:22:28.000Z</time>
      </trkpt>
      <trkpt lat="44.00882" lon="7.18658">
        <ele>1026.5999755859</ele>
        <time>2012-10-20T09:22:33.000Z</time>
      </trkpt>
      <trkpt lat="44.00864" lon="7.18653">
        <ele>1022</ele>
        <time>2012-10-20T09:22:39.000Z</time>
      </trkpt>
      <trkpt lat="44.00848" lon="7.18644">
        <ele>1019.200012207</ele>
        <time>2012-10-20T09:22:44.000Z</time>
      </trkpt>
      <trkpt lat="44.00824" lon="7.18631">
        <ele>1013.200012207</ele>
        <time>2012-10-20T09:22:50.000Z</time>
      </trkpt>
      <trkpt lat="44.00816" lon="7.18625">
        <ele>1011</ele>
        <time>2012-10-20T09:22:52.000Z</time>
      </trkpt>
      <trkpt lat="44.00798" lon="7.18601">
        <ele>1008.4000244141</ele>
        <time>2012-10-20T09:22:58.000Z</time>
      </trkpt>
      <trkpt lat="44.00793" lon="7.18578">
        <ele>1011.200012207</ele>
        <time>2012-10-20T09:23:03.000Z</time>
      </trkpt>
      <trkpt lat="44.00794" lon="7.18571">
        <ele>1011.799987793</ele>
        <time>2012-10-20T09:23:04.000Z</time>
      </trkpt>
      <trkpt lat="44.00795" lon="7.1855">
        <ele>1014</ele>
        <time>2012-10-20T09:23:07.000Z</time>
      </trkpt>
      <trkpt lat="44.00799" lon="7.1851">
        <ele>1018.200012207</ele>
        <time>2012-10-20T09:23:13.000Z</time>
      </trkpt>
      <trkpt lat="44.00795" lon="7.185">
        <ele>1016.799987793</ele>
        <time>2012-10-20T09:23:15.000Z</time>
      </trkpt>
      <trkpt lat="44.00793" lon="7.18472">
        <ele>1019</ele>
        <time>2012-10-20T09:23:21.000Z</time>
      </trkpt>
      <trkpt lat="44.00793" lon="7.18467">
        <ele>1019.5999755859</ele>
        <time>2012-10-20T09:23:22.000Z</time>
      </trkpt>
      <trkpt lat="44.008" lon="7.18441">
        <ele>1025.8000488281</ele>
        <time>2012-10-20T09:23:28.000Z</time>
      </trkpt>
      <trkpt lat="44.00805" lon="7.18425">
        <ele>1030.1999511719</ele>
        <time>2012-10-20T09:23:33.000Z</time>
      </trkpt>
      <trkpt lat="44.0081" lon="7.18412">
        <ele>1034.4000244141</ele>
        <time>2012-10-20T09:23:37.000Z</time>
      </trkpt>
      <trkpt lat="44.00809" lon="7.18413">
        <ele>1034</ele>
        <time>2012-10-20T09:23:42.000Z</time>
      </trkpt>
      <trkpt lat="44.00809" lon="7.18408">
        <ele>1035.1999511719</ele>
        <time>2012-10-20T09:24:51.000Z</time>
      </trkpt>
      <trkpt lat="44.00816" lon="7.18394">
        <ele>1041.8000488281</ele>
        <time>2012-10-20T09:24:57.000Z</time>
      </trkpt>
      <trkpt lat="44.00818" lon="7.18391">
        <ele>1043.1999511719</ele>
        <time>2012-10-20T09:24:58.000Z</time>
      </trkpt>
      <trkpt lat="44.00815" lon="7.18391">
        <ele>1041.8000488281</ele>
        <time>2012-10-20T09:25:02.000Z</time>
      </trkpt>
      <trkpt lat="44.00807" lon="7.18396">
        <ele>1037</ele>
        <time>2012-10-20T09:25:05.000Z</time>
      </trkpt>
      <trkpt lat="44.00791" lon="7.18405">
        <ele>1027.1999511719</ele>
        <time>2012-10-20T09:25:10.000Z</time>
      </trkpt>
      <trkpt lat="44.0077" lon="7.18404">
        <ele>1017.200012207</ele>
        <time>2012-10-20T09:25:14.000Z</time>
      </trkpt>
      <trkpt lat="44.00744" lon="7.18398">
        <ele>1006.5999755859</ele>
        <time>2012-10-20T09:25:19.000Z</time>
      </trkpt>
      <trkpt lat="44.00731" lon="7.18387">
        <ele>1004.799987793</ele>
        <time>2012-10-20T09:25:22.000Z</time>
      </trkpt>
      <trkpt lat="44.00727" lon="7.18365">
        <ele>1010.200012207</ele>
        <time>2012-10-20T09:25:25.000Z</time>
      </trkpt>
      <trkpt lat="44.00726" lon="7.1836">
        <ele>1011.4000244141</ele>
        <time>2012-10-20T09:25:26.000Z</time>
      </trkpt>
      <trkpt lat="44.00726" lon="7.1836">
        <ele>1011.4000244141</ele>
        <time>2012-10-20T09:25:26.000Z</time>
      </trkpt>
      <trkpt lat="44.00717" lon="7.18348">
        <ele>1012.799987793</ele>
        <time>2012-10-20T09:25:30.000Z</time>
      </trkpt>
      <trkpt lat="44.00712" lon="7.18347">
        <ele>1011.4000244141</ele>
        <time>2012-10-20T09:25:32.000Z</time>
      </trkpt>
      <trkpt lat="44.00695" lon="7.1835">
        <ele>1004.5999755859</ele>
        <time>2012-10-20T09:25:38.000Z</time>
      </trkpt>
      <trkpt lat="44.00676" lon="7.18356">
        <ele>995.59997558594</ele>
        <time>2012-10-20T09:25:44.000Z</time>
      </trkpt>
      <trkpt lat="44.00663" lon="7.18357">
        <ele>989.40002441406</ele>
        <time>2012-10-20T09:25:48.000Z</time>
      </trkpt>
      <trkpt lat="44.00648" lon="7.18347">
        <ele>985.59997558594</ele>
        <time>2012-10-20T09:25:52.000Z</time>
      </trkpt>
      <trkpt lat="44.00625" lon="7.18319">
        <ele>982.79998779297</ele>
        <time>2012-10-20T09:25:57.000Z</time>
      </trkpt>
      <trkpt lat="44.00617" lon="7.18308">
        <ele>980.79998779297</ele>
        <time>2012-10-20T09:25:59.000Z</time>
      </trkpt>
      <trkpt lat="44.00608" lon="7.18293">
        <ele>979.40002441406</ele>
        <time>2012-10-20T09:26:02.000Z</time>
      </trkpt>
      <trkpt lat="44.006" lon="7.18265">
        <ele>981.59997558594</ele>
        <time>2012-10-20T09:26:06.000Z</time>
      </trkpt>
      <trkpt lat="44.00593" lon="7.18249">
        <ele>980.40002441406</ele>
        <time>2012-10-20T09:26:09.000Z</time>
      </trkpt>
      <trkpt lat="44.00588" lon="7.18236">
        <ele>976</ele>
        <time>2012-10-20T09:26:12.000Z</time>
      </trkpt>
      <trkpt lat="44.00586" lon="7.18213">
        <ele>973.40002441406</ele>
        <time>2012-10-20T09:26:17.000Z</time>
      </trkpt>
      <trkpt lat="44.00587" lon="7.1821">
        <ele>973.79998779297</ele>
        <time>2012-10-20T09:26:18.000Z</time>
      </trkpt>
      <trkpt lat="44.00592" lon="7.18188">
        <ele>976.20001220703</ele>
        <time>2012-10-20T09:26:24.000Z</time>
      </trkpt>
      <trkpt lat="44.00598" lon="7.18165">
        <ele>978.59997558594</ele>
        <time>2012-10-20T09:26:28.000Z</time>
      </trkpt>
      <trkpt lat="44.00604" lon="7.18138">
        <ele>983</ele>
        <time>2012-10-20T09:26:33.000Z</time>
      </trkpt>
      <trkpt lat="44.00604" lon="7.18134">
        <ele>983.20001220703</ele>
        <time>2012-10-20T09:26:34.000Z</time>
      </trkpt>
      <trkpt lat="44.00608" lon="7.18102">
        <ele>986.20001220703</ele>
        <time>2012-10-20T09:26:40.000Z</time>
      </trkpt>
      <trkpt lat="44.00606" lon="7.18093">
        <ele>985.20001220703</ele>
        <time>2012-10-20T09:26:44.000Z</time>
      </trkpt>
      <trkpt lat="44.00605" lon="7.18086">
        <ele>984.79998779297</ele>
        <time>2012-10-20T09:26:50.000Z</time>
      </trkpt>
      <trkpt lat="44.00604" lon="7.18082">
        <ele>985</ele>
        <time>2012-10-20T09:26:55.000Z</time>
      </trkpt>
      <trkpt lat="44.00603" lon="7.18078">
        <ele>985</ele>
        <time>2012-10-20T09:27:04.000Z</time>
      </trkpt>
      <trkpt lat="44.00593" lon="7.18076">
        <ele>979.59997558594</ele>
        <time>2012-10-20T09:27:08.000Z</time>
      </trkpt>
      <trkpt lat="44.00573" lon="7.18067">
        <ele>972.20001220703</ele>
        <time>2012-10-20T09:27:14.000Z</time>
      </trkpt>
      <trkpt lat="44.00559" lon="7.18057">
        <ele>967.59997558594</ele>
        <time>2012-10-20T09:27:18.000Z</time>
      </trkpt>
      <trkpt lat="44.0055" lon="7.18056">
        <ele>963.79998779297</ele>
        <time>2012-10-20T09:27:20.000Z</time>
      </trkpt>
      <trkpt lat="44.00533" lon="7.1804">
        <ele>958.59997558594</ele>
        <time>2012-10-20T09:27:25.000Z</time>
      </trkpt>
      <trkpt lat="44.00535" lon="7.18021">
        <ele>962.59997558594</ele>
        <time>2012-10-20T09:27:28.000Z</time>
      </trkpt>
      <trkpt lat="44.00548" lon="7.17995">
        <ele>973.79998779297</ele>
        <time>2012-10-20T09:27:32.000Z</time>
      </trkpt>
      <trkpt lat="44.00551" lon="7.17987">
        <ele>977.20001220703</ele>
        <time>2012-10-20T09:27:34.000Z</time>
      </trkpt>
      <trkpt lat="44.00551" lon="7.17983">
        <ele>977.40002441406</ele>
        <time>2012-10-20T09:27:40.000Z</time>
      </trkpt>
      <trkpt lat="44.00549" lon="7.17978">
        <ele>977.20001220703</ele>
        <time>2012-10-20T09:27:45.000Z</time>
      </trkpt>
      <trkpt lat="44.00537" lon="7.17965">
        <ele>973</ele>
        <time>2012-10-20T09:27:51.000Z</time>
      </trkpt>
      <trkpt lat="44.00528" lon="7.17945">
        <ele>971.40002441406</ele>
        <time>2012-10-20T09:27:56.000Z</time>
      </trkpt>
      <trkpt lat="44.00517" lon="7.17915">
        <ele>969.59997558594</ele>
        <time>2012-10-20T09:28:01.000Z</time>
      </trkpt>
      <trkpt lat="44.00509" lon="7.17902">
        <ele>967</ele>
        <time>2012-10-20T09:28:05.000Z</time>
      </trkpt>
      <trkpt lat="44.005" lon="7.1789">
        <ele>963.79998779297</ele>
        <time>2012-10-20T09:28:09.000Z</time>
      </trkpt>
      <trkpt lat="44.00498" lon="7.17868">
        <ele>966.59997558594</ele>
        <time>2012-10-20T09:28:13.000Z</time>
      </trkpt>
      <trkpt lat="44.00506" lon="7.17849">
        <ele>974.79998779297</ele>
        <time>2012-10-20T09:28:16.000Z</time>
      </trkpt>
      <trkpt lat="44.00508" lon="7.17838">
        <ele>978</ele>
        <time>2012-10-20T09:28:20.000Z</time>
      </trkpt>
      <trkpt lat="44.00506" lon="7.17837">
        <ele>977</ele>
        <time>2012-10-20T09:28:21.000Z</time>
      </trkpt>
      <trkpt lat="44.00502" lon="7.17835">
        <ele>974.79998779297</ele>
        <time>2012-10-20T09:28:23.000Z</time>
      </trkpt>
      <trkpt lat="44.00481" lon="7.17832">
        <ele>962.79998779297</ele>
        <time>2012-10-20T09:28:29.000Z</time>
      </trkpt>
      <trkpt lat="44.00466" lon="7.17816">
        <ele>954.20001220703</ele>
        <time>2012-10-20T09:28:35.000Z</time>
      </trkpt>
      <trkpt lat="44.00466" lon="7.17811">
        <ele>954.20001220703</ele>
        <time>2012-10-20T09:28:36.000Z</time>
      </trkpt>
      <trkpt lat="44.00464" lon="7.17773">
        <ele>954</ele>
        <time>2012-10-20T09:28:42.000Z</time>
      </trkpt>
      <trkpt lat="44.0047" lon="7.17752">
        <ele>959.20001220703</ele>
        <time>2012-10-20T09:28:46.000Z</time>
      </trkpt>
      <trkpt lat="44.00476" lon="7.1774">
        <ele>963</ele>
        <time>2012-10-20T09:28:48.000Z</time>
      </trkpt>
      <trkpt lat="44.00477" lon="7.17711">
        <ele>963.59997558594</ele>
        <time>2012-10-20T09:28:53.000Z</time>
      </trkpt>
      <trkpt lat="44.00478" lon="7.17705">
        <ele>963.59997558594</ele>
        <time>2012-10-20T09:28:54.000Z</time>
      </trkpt>
      <trkpt lat="44.0048" lon="7.17677">
        <ele>964.59997558594</ele>
        <time>2012-10-20T09:28:59.000Z</time>
      </trkpt>
      <trkpt lat="44.00477" lon="7.17659">
        <ele>964</ele>
        <time>2012-10-20T09:29:02.000Z</time>
      </trkpt>
      <trkpt lat="44.00473" lon="7.17649">
        <ele>962.59997558594</ele>
        <time>2012-10-20T09:29:04.000Z</time>
      </trkpt>
      <trkpt lat="44.00475" lon="7.17622">
        <ele>967.59997558594</ele>
        <time>2012-10-20T09:29:09.000Z</time>
      </trkpt>
      <trkpt lat="44.00478" lon="7.17604">
        <ele>971.59997558594</ele>
        <time>2012-10-20T09:29:13.000Z</time>
      </trkpt>
      <trkpt lat="44.00478" lon="7.17594">
        <ele>973</ele>
        <time>2012-10-20T09:29:15.000Z</time>
      </trkpt>
      <trkpt lat="44.00482" lon="7.17584">
        <ele>975.59997558594</ele>
        <time>2012-10-20T09:29:21.000Z</time>
      </trkpt>
      <trkpt lat="44.00481" lon="7.17584">
        <ele>975.59997558594</ele>
        <time>2012-10-20T09:29:23.000Z</time>
      </trkpt>
      <trkpt lat="44.00467" lon="7.17589">
        <ele>969.59997558594</ele>
        <time>2012-10-20T09:29:28.000Z</time>
      </trkpt>
      <trkpt lat="44.00446" lon="7.17598">
        <ele>959.59997558594</ele>
        <time>2012-10-20T09:29:34.000Z</time>
      </trkpt>
      <trkpt lat="44.00432" lon="7.17602">
        <ele>952.59997558594</ele>
        <time>2012-10-20T09:29:39.000Z</time>
      </trkpt>
      <trkpt lat="44.00412" lon="7.17605">
        <ele>943.59997558594</ele>
        <time>2012-10-20T09:29:44.000Z</time>
      </trkpt>
      <trkpt lat="44.00394" lon="7.17602">
        <ele>938.59997558594</ele>
        <time>2012-10-20T09:29:48.000Z</time>
      </trkpt>
      <trkpt lat="44.0038" lon="7.17589">
        <ele>938.40002441406</ele>
        <time>2012-10-20T09:29:53.000Z</time>
      </trkpt>
      <trkpt lat="44.00377" lon="7.17587">
        <ele>938.40002441406</ele>
        <time>2012-10-20T09:29:54.000Z</time>
      </trkpt>
      <trkpt lat="44.00365" lon="7.17576">
        <ele>937</ele>
        <time>2012-10-20T09:29:58.000Z</time>
      </trkpt>
      <trkpt lat="44.00342" lon="7.17568">
        <ele>929.79998779297</ele>
        <time>2012-10-20T09:30:03.000Z</time>
      </trkpt>
      <trkpt lat="44.00331" lon="7.1755">
        <ele>926.79998779297</ele>
        <time>2012-10-20T09:30:07.000Z</time>
      </trkpt>
      <trkpt lat="44.00333" lon="7.17526">
        <ele>930.59997558594</ele>
        <time>2012-10-20T09:30:10.000Z</time>
      </trkpt>
      <trkpt lat="44.00338" lon="7.17501">
        <ele>935.40002441406</ele>
        <time>2012-10-20T09:30:13.000Z</time>
      </trkpt>
      <trkpt lat="44.00334" lon="7.17473">
        <ele>935.20001220703</ele>
        <time>2012-10-20T09:30:17.000Z</time>
      </trkpt>
      <trkpt lat="44.00331" lon="7.17463">
        <ele>934.20001220703</ele>
        <time>2012-10-20T09:30:19.000Z</time>
      </trkpt>
      <trkpt lat="44.00336" lon="7.17445">
        <ele>938</ele>
        <time>2012-10-20T09:30:23.000Z</time>
      </trkpt>
      <trkpt lat="44.00346" lon="7.17427">
        <ele>944.20001220703</ele>
        <time>2012-10-20T09:30:27.000Z</time>
      </trkpt>
      <trkpt lat="44.00346" lon="7.17416">
        <ele>944.79998779297</ele>
        <time>2012-10-20T09:30:29.000Z</time>
      </trkpt>
      <trkpt lat="44.00343" lon="7.17405">
        <ele>946.79998779297</ele>
        <time>2012-10-20T09:30:31.000Z</time>
      </trkpt>
      <trkpt lat="44.00345" lon="7.17393">
        <ele>951.20001220703</ele>
        <time>2012-10-20T09:30:33.000Z</time>
      </trkpt>
      <trkpt lat="44.00344" lon="7.1738">
        <ele>954.79998779297</ele>
        <time>2012-10-20T09:30:38.000Z</time>
      </trkpt>
      <trkpt lat="44.00342" lon="7.17382">
        <ele>953</ele>
        <time>2012-10-20T09:30:39.000Z</time>
      </trkpt>
      <trkpt lat="44.00324" lon="7.1737">
        <ele>949</ele>
        <time>2012-10-20T09:30:45.000Z</time>
      </trkpt>
      <trkpt lat="44.00316" lon="7.17366">
        <ele>947.59997558594</ele>
        <time>2012-10-20T09:30:47.000Z</time>
      </trkpt>
      <trkpt lat="44.00299" lon="7.17373">
        <ele>940.20001220703</ele>
        <time>2012-10-20T09:30:51.000Z</time>
      </trkpt>
      <trkpt lat="44.00275" lon="7.1739">
        <ele>927.20001220703</ele>
        <time>2012-10-20T09:30:56.000Z</time>
      </trkpt>
      <trkpt lat="44.0026" lon="7.17394">
        <ele>921.40002441406</ele>
        <time>2012-10-20T09:30:59.000Z</time>
      </trkpt>
      <trkpt lat="44.00241" lon="7.17394">
        <ele>914.40002441406</ele>
        <time>2012-10-20T09:31:04.000Z</time>
      </trkpt>
      <trkpt lat="44.00225" lon="7.17395">
        <ele>908</ele>
        <time>2012-10-20T09:31:08.000Z</time>
      </trkpt>
      <trkpt lat="44.00214" lon="7.17388">
        <ele>905</ele>
        <time>2012-10-20T09:31:12.000Z</time>
      </trkpt>
      <trkpt lat="44.00209" lon="7.17365">
        <ele>907.40002441406</ele>
        <time>2012-10-20T09:31:16.000Z</time>
      </trkpt>
      <trkpt lat="44.00207" lon="7.17345">
        <ele>910.40002441406</ele>
        <time>2012-10-20T09:31:19.000Z</time>
      </trkpt>
      <trkpt lat="44.00203" lon="7.17318">
        <ele>911</ele>
        <time>2012-10-20T09:31:23.000Z</time>
      </trkpt>
      <trkpt lat="44.00194" lon="7.17296">
        <ele>906.59997558594</ele>
        <time>2012-10-20T09:31:27.000Z</time>
      </trkpt>
      <trkpt lat="44.0019" lon="7.17273">
        <ele>904.79998779297</ele>
        <time>2012-10-20T09:31:31.000Z</time>
      </trkpt>
      <trkpt lat="44.00192" lon="7.17259">
        <ele>906.59997558594</ele>
        <time>2012-10-20T09:31:33.000Z</time>
      </trkpt>
      <trkpt lat="44.00196" lon="7.1722">
        <ele>910.79998779297</ele>
        <time>2012-10-20T09:31:39.000Z</time>
      </trkpt>
      <trkpt lat="44.00198" lon="7.17215">
        <ele>912.20001220703</ele>
        <time>2012-10-20T09:31:40.000Z</time>
      </trkpt>
      <trkpt lat="44.00209" lon="7.1719">
        <ele>919.40002441406</ele>
        <time>2012-10-20T09:31:47.000Z</time>
      </trkpt>
      <trkpt lat="44.00214" lon="7.17175">
        <ele>922.20001220703</ele>
        <time>2012-10-20T09:31:51.000Z</time>
      </trkpt>
      <trkpt lat="44.00219" lon="7.17157">
        <ele>927.40002441406</ele>
        <time>2012-10-20T09:31:55.000Z</time>
      </trkpt>
      <trkpt lat="44.00218" lon="7.17154">
        <ele>928.20001220703</ele>
        <time>2012-10-20T09:31:56.000Z</time>
      </trkpt>
      <trkpt lat="44.00203" lon="7.1714">
        <ele>924.79998779297</ele>
        <time>2012-10-20T09:32:02.000Z</time>
      </trkpt>
      <trkpt lat="44.00185" lon="7.17129">
        <ele>920.40002441406</ele>
        <time>2012-10-20T09:32:07.000Z</time>
      </trkpt>
      <trkpt lat="44.00169" lon="7.17125">
        <ele>915</ele>
        <time>2012-10-20T09:32:12.000Z</time>
      </trkpt>
      <trkpt lat="44.00155" lon="7.17123">
        <ele>909.79998779297</ele>
        <time>2012-10-20T09:32:17.000Z</time>
      </trkpt>
      <trkpt lat="44.0014" lon="7.17127">
        <ele>902.40002441406</ele>
        <time>2012-10-20T09:32:21.000Z</time>
      </trkpt>
      <trkpt lat="44.00118" lon="7.17135">
        <ele>890.59997558594</ele>
        <time>2012-10-20T09:32:26.000Z</time>
      </trkpt>
      <trkpt lat="44.00108" lon="7.17137">
        <ele>886.40002441406</ele>
        <time>2012-10-20T09:32:28.000Z</time>
      </trkpt>
      <trkpt lat="44.00085" lon="7.17131">
        <ele>878.79998779297</ele>
        <time>2012-10-20T09:32:33.000Z</time>
      </trkpt>
      <trkpt lat="44.00073" lon="7.17122">
        <ele>876.20001220703</ele>
        <time>2012-10-20T09:32:37.000Z</time>
      </trkpt>
      <trkpt lat="44.00074" lon="7.17107">
        <ele>881.59997558594</ele>
        <time>2012-10-20T09:32:41.000Z</time>
      </trkpt>
      <trkpt lat="44.00085" lon="7.17086">
        <ele>895</ele>
        <time>2012-10-20T09:32:47.000Z</time>
      </trkpt>
      <trkpt lat="44.0009" lon="7.1706">
        <ele>891.79998779297</ele>
        <time>2012-10-20T09:32:52.000Z</time>
      </trkpt>
      <trkpt lat="44.00084" lon="7.17029">
        <ele>880.40002441406</ele>
        <time>2012-10-20T09:32:58.000Z</time>
      </trkpt>
      <trkpt lat="44.00084" lon="7.17024">
        <ele>878.79998779297</ele>
        <time>2012-10-20T09:32:59.000Z</time>
      </trkpt>
      <trkpt lat="44.00095" lon="7.17007">
        <ele>881.79998779297</ele>
        <time>2012-10-20T09:33:03.000Z</time>
      </trkpt>
      <trkpt lat="44.00104" lon="7.1698">
        <ele>883.79998779297</ele>
        <time>2012-10-20T09:33:08.000Z</time>
      </trkpt>
      <trkpt lat="44.00106" lon="7.16978">
        <ele>885.20001220703</ele>
        <time>2012-10-20T09:33:09.000Z</time>
      </trkpt>
      <trkpt lat="44.0012" lon="7.16962">
        <ele>892.40002441406</ele>
        <time>2012-10-20T09:33:15.000Z</time>
      </trkpt>
      <trkpt lat="44.00128" lon="7.16945">
        <ele>895.40002441406</ele>
        <time>2012-10-20T09:33:19.000Z</time>
      </trkpt>
      <trkpt lat="44.00132" lon="7.16936">
        <ele>897.20001220703</ele>
        <time>2012-10-20T09:33:21.000Z</time>
      </trkpt>
      <trkpt lat="44.00149" lon="7.16913">
        <ele>906.40002441406</ele>
        <time>2012-10-20T09:33:27.000Z</time>
      </trkpt>
      <trkpt lat="44.00152" lon="7.16907">
        <ele>909.79998779297</ele>
        <time>2012-10-20T09:33:28.000Z</time>
      </trkpt>
      <trkpt lat="44.00159" lon="7.16892">
        <ele>917.79998779297</ele>
        <time>2012-10-20T09:33:31.000Z</time>
      </trkpt>
      <trkpt lat="44.00146" lon="7.16882">
        <ele>913</ele>
        <time>2012-10-20T09:33:35.000Z</time>
      </trkpt>
      <trkpt lat="44.00137" lon="7.16877">
        <ele>908.59997558594</ele>
        <time>2012-10-20T09:33:37.000Z</time>
      </trkpt>
      <trkpt lat="44.00122" lon="7.16869">
        <ele>902.79998779297</ele>
        <time>2012-10-20T09:33:40.000Z</time>
      </trkpt>
      <trkpt lat="44.00113" lon="7.16865">
        <ele>899</ele>
        <time>2012-10-20T09:33:42.000Z</time>
      </trkpt>
      <trkpt lat="44.00079" lon="7.16847">
        <ele>887.20001220703</ele>
        <time>2012-10-20T09:33:49.000Z</time>
      </trkpt>
      <trkpt lat="44.00073" lon="7.16843">
        <ele>885.59997558594</ele>
        <time>2012-10-20T09:33:50.000Z</time>
      </trkpt>
      <trkpt lat="44.00059" lon="7.16838">
        <ele>880</ele>
        <time>2012-10-20T09:33:53.000Z</time>
      </trkpt>
      <trkpt lat="44.00045" lon="7.1683">
        <ele>874.59997558594</ele>
        <time>2012-10-20T09:33:57.000Z</time>
      </trkpt>
      <trkpt lat="44.00039" lon="7.16811">
        <ele>876</ele>
        <time>2012-10-20T09:34:02.000Z</time>
      </trkpt>
      <trkpt lat="44.00039" lon="7.16806">
        <ele>877.20001220703</ele>
        <time>2012-10-20T09:34:03.000Z</time>
      </trkpt>
      <trkpt lat="44.00042" lon="7.16777">
        <ele>886.20001220703</ele>
        <time>2012-10-20T09:34:09.000Z</time>
      </trkpt>
      <trkpt lat="44.00039" lon="7.16761">
        <ele>889</ele>
        <time>2012-10-20T09:34:12.000Z</time>
      </trkpt>
      <trkpt lat="44.00024" lon="7.16753">
        <ele>883</ele>
        <time>2012-10-20T09:34:17.000Z</time>
      </trkpt>
      <trkpt lat="44.00018" lon="7.16747">
        <ele>879.79998779297</ele>
        <time>2012-10-20T09:34:20.000Z</time>
      </trkpt>
      <trkpt lat="44.00009" lon="7.16721">
        <ele>870</ele>
        <time>2012-10-20T09:34:26.000Z</time>
      </trkpt>
      <trkpt lat="44.00012" lon="7.16701">
        <ele>867.40002441406</ele>
        <time>2012-10-20T09:34:30.000Z</time>
      </trkpt>
      <trkpt lat="44.00024" lon="7.16684">
        <ele>871.20001220703</ele>
        <time>2012-10-20T09:34:34.000Z</time>
      </trkpt>
      <trkpt lat="44.00031" lon="7.16674">
        <ele>873.40002441406</ele>
        <time>2012-10-20T09:34:36.000Z</time>
      </trkpt>
      <trkpt lat="44.00041" lon="7.16657">
        <ele>872.20001220703</ele>
        <time>2012-10-20T09:34:40.000Z</time>
      </trkpt>
      <trkpt lat="44.00051" lon="7.16637">
        <ele>867.40002441406</ele>
        <time>2012-10-20T09:34:45.000Z</time>
      </trkpt>
      <trkpt lat="44.00053" lon="7.16627">
        <ele>863.59997558594</ele>
        <time>2012-10-20T09:34:47.000Z</time>
      </trkpt>
      <trkpt lat="44.00066" lon="7.16601">
        <ele>856.20001220703</ele>
        <time>2012-10-20T09:34:53.000Z</time>
      </trkpt>
      <trkpt lat="44.00075" lon="7.1658">
        <ele>851.20001220703</ele>
        <time>2012-10-20T09:34:58.000Z</time>
      </trkpt>
      <trkpt lat="44.00092" lon="7.16557">
        <ele>856.79998779297</ele>
        <time>2012-10-20T09:35:04.000Z</time>
      </trkpt>
      <trkpt lat="44.00104" lon="7.16536">
        <ele>860.40002441406</ele>
        <time>2012-10-20T09:35:09.000Z</time>
      </trkpt>
      <trkpt lat="44.00109" lon="7.16518">
        <ele>860.20001220703</ele>
        <time>2012-10-20T09:35:13.000Z</time>
      </trkpt>
      <trkpt lat="44.00102" lon="7.16506">
        <ele>853.59997558594</ele>
        <time>2012-10-20T09:35:17.000Z</time>
      </trkpt>
      <trkpt lat="44.00104" lon="7.16488">
        <ele>859</ele>
        <time>2012-10-20T09:35:21.000Z</time>
      </trkpt>
      <trkpt lat="44.00117" lon="7.16478">
        <ele>871.59997558594</ele>
        <time>2012-10-20T09:35:25.000Z</time>
      </trkpt>
      <trkpt lat="44.00114" lon="7.16472">
        <ele>872</ele>
        <time>2012-10-20T09:35:29.000Z</time>
      </trkpt>
      <trkpt lat="44.00106" lon="7.16464">
        <ele>870.79998779297</ele>
        <time>2012-10-20T09:35:34.000Z</time>
      </trkpt>
      <trkpt lat="44.00092" lon="7.16461">
        <ele>863</ele>
        <time>2012-10-20T09:35:38.000Z</time>
      </trkpt>
      <trkpt lat="44.00071" lon="7.16462">
        <ele>851.59997558594</ele>
        <time>2012-10-20T09:35:42.000Z</time>
      </trkpt>
      <trkpt lat="44.00066" lon="7.16463">
        <ele>849.20001220703</ele>
        <time>2012-10-20T09:35:43.000Z</time>
      </trkpt>
      <trkpt lat="44.00055" lon="7.16451">
        <ele>850</ele>
        <time>2012-10-20T09:35:47.000Z</time>
      </trkpt>
      <trkpt lat="44.00051" lon="7.16439">
        <ele>853.79998779297</ele>
        <time>2012-10-20T09:35:49.000Z</time>
      </trkpt>
      <trkpt lat="44.00048" lon="7.16428">
        <ele>857.59997558594</ele>
        <time>2012-10-20T09:35:51.000Z</time>
      </trkpt>
      <trkpt lat="44.00047" lon="7.16423">
        <ele>860</ele>
        <time>2012-10-20T09:35:56.000Z</time>
      </trkpt>
      <trkpt lat="44.00046" lon="7.16419">
        <ele>861</ele>
        <time>2012-10-20T09:36:01.000Z</time>
      </trkpt>
      <trkpt lat="44.00045" lon="7.16413">
        <ele>863.59997558594</ele>
        <time>2012-10-20T09:36:10.000Z</time>
      </trkpt>
      <trkpt lat="44.00041" lon="7.1641">
        <ele>864</ele>
        <time>2012-10-20T09:36:16.000Z</time>
      </trkpt>
      <trkpt lat="44.00036" lon="7.16409">
        <ele>862.59997558594</ele>
        <time>2012-10-20T09:36:20.000Z</time>
      </trkpt>
      <trkpt lat="44.00019" lon="7.16407">
        <ele>856.79998779297</ele>
        <time>2012-10-20T09:36:26.000Z</time>
      </trkpt>
      <trkpt lat="43.99999" lon="7.16404">
        <ele>851.59997558594</ele>
        <time>2012-10-20T09:36:30.000Z</time>
      </trkpt>
      <trkpt lat="43.99994" lon="7.16401">
        <ele>853.40002441406</ele>
        <time>2012-10-20T09:36:31.000Z</time>
      </trkpt>
      <trkpt lat="43.99975" lon="7.16389">
        <ele>860.59997558594</ele>
        <time>2012-10-20T09:36:36.000Z</time>
      </trkpt>
      <trkpt lat="43.9996" lon="7.16386">
        <ele>862</ele>
        <time>2012-10-20T09:36:41.000Z</time>
      </trkpt>
      <trkpt lat="43.9994" lon="7.16396">
        <ele>844.20001220703</ele>
        <time>2012-10-20T09:36:45.000Z</time>
      </trkpt>
      <trkpt lat="43.99918" lon="7.16396">
        <ele>841.59997558594</ele>
        <time>2012-10-20T09:36:49.000Z</time>
      </trkpt>
      <trkpt lat="43.99902" lon="7.16397">
        <ele>838.40002441406</ele>
        <time>2012-10-20T09:36:52.000Z</time>
      </trkpt>
      <trkpt lat="43.99893" lon="7.16396">
        <ele>837.20001220703</ele>
        <time>2012-10-20T09:36:54.000Z</time>
      </trkpt>
      <trkpt lat="43.99872" lon="7.16398">
        <ele>833</ele>
        <time>2012-10-20T09:36:59.000Z</time>
      </trkpt>
      <trkpt lat="43.99864" lon="7.16399">
        <ele>831</ele>
        <time>2012-10-20T09:37:01.000Z</time>
      </trkpt>
      <trkpt lat="43.9985" lon="7.16399">
        <ele>828.79998779297</ele>
        <time>2012-10-20T09:37:04.000Z</time>
      </trkpt>
      <trkpt lat="43.99826" lon="7.16392">
        <ele>824.79998779297</ele>
        <time>2012-10-20T09:37:09.000Z</time>
      </trkpt>
      <trkpt lat="43.99818" lon="7.16385">
        <ele>823.20001220703</ele>
        <time>2012-10-20T09:37:11.000Z</time>
      </trkpt>
      <trkpt lat="43.99804" lon="7.16378">
        <ele>819</ele>
        <time>2012-10-20T09:37:14.000Z</time>
      </trkpt>
      <trkpt lat="43.99786" lon="7.16362">
        <ele>814.40002441406</ele>
        <time>2012-10-20T09:37:19.000Z</time>
      </trkpt>
      <trkpt lat="43.99784" lon="7.16357">
        <ele>814.40002441406</ele>
        <time>2012-10-20T09:37:20.000Z</time>
      </trkpt>
      <trkpt lat="43.99783" lon="7.16329">
        <ele>818</ele>
        <time>2012-10-20T09:37:26.000Z</time>
      </trkpt>
      <trkpt lat="43.9979" lon="7.16308">
        <ele>819.79998779297</ele>
        <time>2012-10-20T09:37:30.000Z</time>
      </trkpt>
      <trkpt lat="43.99801" lon="7.16288">
        <ele>824</ele>
        <time>2012-10-20T09:37:34.000Z</time>
      </trkpt>
      <trkpt lat="43.99806" lon="7.16261">
        <ele>825</ele>
        <time>2012-10-20T09:37:39.000Z</time>
      </trkpt>
      <trkpt lat="43.99803" lon="7.16251">
        <ele>822.59997558594</ele>
        <time>2012-10-20T09:37:41.000Z</time>
      </trkpt>
      <trkpt lat="43.99798" lon="7.16241">
        <ele>819.40002441406</ele>
        <time>2012-10-20T09:37:43.000Z</time>
      </trkpt>
      <trkpt lat="43.99781" lon="7.16218">
        <ele>810.20001220703</ele>
        <time>2012-10-20T09:37:48.000Z</time>
      </trkpt>
      <trkpt lat="43.99777" lon="7.16214">
        <ele>808.40002441406</ele>
        <time>2012-10-20T09:37:49.000Z</time>
      </trkpt>
      <trkpt lat="43.99774" lon="7.16211">
        <ele>806.79998779297</ele>
        <time>2012-10-20T09:37:50.000Z</time>
      </trkpt>
      <trkpt lat="43.99774" lon="7.16211">
        <ele>806.79998779297</ele>
        <time>2012-10-20T09:37:50.000Z</time>
      </trkpt>
      <trkpt lat="43.99764" lon="7.16195">
        <ele>802.40002441406</ele>
        <time>2012-10-20T09:37:54.000Z</time>
      </trkpt>
      <trkpt lat="43.99752" lon="7.16179">
        <ele>797.40002441406</ele>
        <time>2012-10-20T09:37:59.000Z</time>
      </trkpt>
      <trkpt lat="43.99745" lon="7.16167">
        <ele>795.20001220703</ele>
        <time>2012-10-20T09:38:02.000Z</time>
      </trkpt>
      <trkpt lat="43.99743" lon="7.16159">
        <ele>792.20001220703</ele>
        <time>2012-10-20T09:38:04.000Z</time>
      </trkpt>
      <trkpt lat="43.99745" lon="7.16151">
        <ele>790.40002441406</ele>
        <time>2012-10-20T09:38:09.000Z</time>
      </trkpt>
      <trkpt lat="43.99752" lon="7.16142">
        <ele>790.20001220703</ele>
        <time>2012-10-20T09:38:48.000Z</time>
      </trkpt>
      <trkpt lat="43.99762" lon="7.16136">
        <ele>791.59997558594</ele>
        <time>2012-10-20T09:38:53.000Z</time>
      </trkpt>
      <trkpt lat="43.99762" lon="7.16134">
        <ele>791.20001220703</ele>
        <time>2012-10-20T09:38:57.000Z</time>
      </trkpt>
      <trkpt lat="43.99761" lon="7.16135">
        <ele>791</ele>
        <time>2012-10-20T09:38:58.000Z</time>
      </trkpt>
      <trkpt lat="43.99744" lon="7.16139">
        <ele>786.59997558594</ele>
        <time>2012-10-20T09:39:05.000Z</time>
      </trkpt>
      <trkpt lat="43.99731" lon="7.16144">
        <ele>783.79998779297</ele>
        <time>2012-10-20T09:39:10.000Z</time>
      </trkpt>
      <trkpt lat="43.9973" lon="7.16136">
        <ele>781.79998779297</ele>
        <time>2012-10-20T09:39:14.000Z</time>
      </trkpt>
      <trkpt lat="43.99738" lon="7.16131">
        <ele>782.59997558594</ele>
        <time>2012-10-20T09:39:18.000Z</time>
      </trkpt>
      <trkpt lat="43.99737" lon="7.1613">
        <ele>782</ele>
        <time>2012-10-20T09:39:21.000Z</time>
      </trkpt>
      <trkpt lat="43.9972" lon="7.16131">
        <ele>777.59997558594</ele>
        <time>2012-10-20T09:39:27.000Z</time>
      </trkpt>
      <trkpt lat="43.99707" lon="7.16134">
        <ele>774.59997558594</ele>
        <time>2012-10-20T09:39:33.000Z</time>
      </trkpt>
      <trkpt lat="43.99706" lon="7.16134">
        <ele>774.40002441406</ele>
        <time>2012-10-20T09:39:34.000Z</time>
      </trkpt>
      <trkpt lat="43.99705" lon="7.1613">
        <ele>773.40002441406</ele>
        <time>2012-10-20T09:39:40.000Z</time>
      </trkpt>
      <trkpt lat="43.99706" lon="7.16128">
        <ele>773.20001220703</ele>
        <time>2012-10-20T09:39:43.000Z</time>
      </trkpt>
      <trkpt lat="43.99717" lon="7.16118">
        <ele>773.79998779297</ele>
        <time>2012-10-20T09:39:49.000Z</time>
      </trkpt>
      <trkpt lat="43.99721" lon="7.16113">
        <ele>773.79998779297</ele>
        <time>2012-10-20T09:39:51.000Z</time>
      </trkpt>
      <trkpt lat="43.99738" lon="7.161">
        <ele>774.20001220703</ele>
        <time>2012-10-20T09:39:57.000Z</time>
      </trkpt>
      <trkpt lat="43.99758" lon="7.1609">
        <ele>775.59997558594</ele>
        <time>2012-10-20T09:40:03.000Z</time>
      </trkpt>
      <trkpt lat="43.9977" lon="7.16079">
        <ele>776</ele>
        <time>2012-10-20T09:40:08.000Z</time>
      </trkpt>
      <trkpt lat="43.99782" lon="7.16069">
        <ele>777.20001220703</ele>
        <time>2012-10-20T09:40:13.000Z</time>
      </trkpt>
      <trkpt lat="43.99786" lon="7.16064">
        <ele>777.40002441406</ele>
        <time>2012-10-20T09:40:18.000Z</time>
      </trkpt>
      <trkpt lat="43.99786" lon="7.16062">
        <ele>777</ele>
        <time>2012-10-20T09:40:20.000Z</time>
      </trkpt>
      <trkpt lat="43.99788" lon="7.16058">
        <ele>776.40002441406</ele>
        <time>2012-10-20T09:40:23.000Z</time>
      </trkpt>
      <trkpt lat="43.99798" lon="7.16051">
        <ele>778.40002441406</ele>
        <time>2012-10-20T09:40:28.000Z</time>
      </trkpt>
      <trkpt lat="43.99817" lon="7.16034">
        <ele>781.20001220703</ele>
        <time>2012-10-20T09:40:34.000Z</time>
      </trkpt>
      <trkpt lat="43.99832" lon="7.16016">
        <ele>783.59997558594</ele>
        <time>2012-10-20T09:40:39.000Z</time>
      </trkpt>
      <trkpt lat="43.99838" lon="7.16007">
        <ele>783.79998779297</ele>
        <time>2012-10-20T09:40:42.000Z</time>
      </trkpt>
      <trkpt lat="43.9983" lon="7.16002">
        <ele>780.20001220703</ele>
        <time>2012-10-20T09:40:46.000Z</time>
      </trkpt>
      <trkpt lat="43.99806" lon="7.16004">
        <ele>771</ele>
        <time>2012-10-20T09:40:53.000Z</time>
      </trkpt>
      <trkpt lat="43.99784" lon="7.15995">
        <ele>763.20001220703</ele>
        <time>2012-10-20T09:40:59.000Z</time>
      </trkpt>
      <trkpt lat="43.99776" lon="7.15985">
        <ele>763</ele>
        <time>2012-10-20T09:41:03.000Z</time>
      </trkpt>
      <trkpt lat="43.99766" lon="7.15975">
        <ele>762</ele>
        <time>2012-10-20T09:41:08.000Z</time>
      </trkpt>
      <trkpt lat="43.99752" lon="7.15963">
        <ele>759.20001220703</ele>
        <time>2012-10-20T09:41:12.000Z</time>
      </trkpt>
      <trkpt lat="43.99726" lon="7.15941">
        <ele>751.79998779297</ele>
        <time>2012-10-20T09:41:17.000Z</time>
      </trkpt>
      <trkpt lat="43.99699" lon="7.15918">
        <ele>738.79998779297</ele>
        <time>2012-10-20T09:41:23.000Z</time>
      </trkpt>
      <trkpt lat="43.99693" lon="7.15915">
        <ele>736.20001220703</ele>
        <time>2012-10-20T09:41:25.000Z</time>
      </trkpt>
      <trkpt lat="43.99686" lon="7.15909">
        <ele>732.40002441406</ele>
        <time>2012-10-20T09:41:28.000Z</time>
      </trkpt>
      <trkpt lat="43.99674" lon="7.15872">
        <ele>732.20001220703</ele>
        <time>2012-10-20T09:41:34.000Z</time>
      </trkpt>
      <trkpt lat="43.99656" lon="7.15822">
        <ele>727.20001220703</ele>
        <time>2012-10-20T09:41:40.000Z</time>
      </trkpt>
      <trkpt lat="43.99645" lon="7.15798">
        <ele>721.40002441406</ele>
        <time>2012-10-20T09:41:43.000Z</time>
      </trkpt>
      <trkpt lat="43.99639" lon="7.15752">
        <ele>720.40002441406</ele>
        <time>2012-10-20T09:41:48.000Z</time>
      </trkpt>
      <trkpt lat="43.99651" lon="7.15681">
        <ele>717.20001220703</ele>
        <time>2012-10-20T09:41:55.000Z</time>
      </trkpt>
      <trkpt lat="43.99665" lon="7.15627">
        <ele>724.59997558594</ele>
        <time>2012-10-20T09:42:00.000Z</time>
      </trkpt>
      <trkpt lat="43.99667" lon="7.15616">
        <ele>726.20001220703</ele>
        <time>2012-10-20T09:42:01.000Z</time>
      </trkpt>
      <trkpt lat="43.9966" lon="7.15582">
        <ele>722.59997558594</ele>
        <time>2012-10-20T09:42:06.000Z</time>
      </trkpt>
      <trkpt lat="43.99638" lon="7.15568">
        <ele>711.40002441406</ele>
        <time>2012-10-20T09:42:09.000Z</time>
      </trkpt>
      <trkpt lat="43.9963" lon="7.15554">
        <ele>708.40002441406</ele>
        <time>2012-10-20T09:42:11.000Z</time>
      </trkpt>
      <trkpt lat="43.99625" lon="7.15529">
        <ele>708.59997558594</ele>
        <time>2012-10-20T09:42:15.000Z</time>
      </trkpt>
      <trkpt lat="43.99619" lon="7.15515">
        <ele>707.59997558594</ele>
        <time>2012-10-20T09:42:17.000Z</time>
      </trkpt>
      <trkpt lat="43.9961" lon="7.15486">
        <ele>705.59997558594</ele>
        <time>2012-10-20T09:42:20.000Z</time>
      </trkpt>
      <trkpt lat="43.99589" lon="7.15451">
        <ele>696.20001220703</ele>
        <time>2012-10-20T09:42:25.000Z</time>
      </trkpt>
      <trkpt lat="43.99584" lon="7.15438">
        <ele>694.40002441406</ele>
        <time>2012-10-20T09:42:27.000Z</time>
      </trkpt>
      <trkpt lat="43.99579" lon="7.15424">
        <ele>693.40002441406</ele>
        <time>2012-10-20T09:42:29.000Z</time>
      </trkpt>
      <trkpt lat="43.99577" lon="7.15417">
        <ele>692.59997558594</ele>
        <time>2012-10-20T09:42:30.000Z</time>
      </trkpt>
      <trkpt lat="43.99577" lon="7.15417">
        <ele>692.59997558594</ele>
        <time>2012-10-20T09:42:30.000Z</time>
      </trkpt>
      <trkpt lat="43.99574" lon="7.15394">
        <ele>689</ele>
        <time>2012-10-20T09:42:34.000Z</time>
      </trkpt>
      <trkpt lat="43.99583" lon="7.15352">
        <ele>690.79998779297</ele>
        <time>2012-10-20T09:42:40.000Z</time>
      </trkpt>
      <trkpt lat="43.99602" lon="7.15303">
        <ele>693.40002441406</ele>
        <time>2012-10-20T09:42:46.000Z</time>
      </trkpt>
      <trkpt lat="43.99625" lon="7.15242">
        <ele>692</ele>
        <time>2012-10-20T09:42:53.000Z</time>
      </trkpt>
      <trkpt lat="43.99636" lon="7.15185">
        <ele>687.79998779297</ele>
        <time>2012-10-20T09:42:59.000Z</time>
      </trkpt>
      <trkpt lat="43.99643" lon="7.15154">
        <ele>687.20001220703</ele>
        <time>2012-10-20T09:43:03.000Z</time>
      </trkpt>
      <trkpt lat="43.99649" lon="7.15135">
        <ele>688.59997558594</ele>
        <time>2012-10-20T09:43:06.000Z</time>
      </trkpt>
      <trkpt lat="43.99661" lon="7.15098">
        <ele>689.79998779297</ele>
        <time>2012-10-20T09:43:13.000Z</time>
      </trkpt>
      <trkpt lat="43.99664" lon="7.15089">
        <ele>690</ele>
        <time>2012-10-20T09:43:15.000Z</time>
      </trkpt>
      <trkpt lat="43.99667" lon="7.15073">
        <ele>689.40002441406</ele>
        <time>2012-10-20T09:43:20.000Z</time>
      </trkpt>
      <trkpt lat="43.99663" lon="7.15064">
        <ele>688.20001220703</ele>
        <time>2012-10-20T09:43:22.000Z</time>
      </trkpt>
      <trkpt lat="43.99647" lon="7.15029">
        <ele>684.59997558594</ele>
        <time>2012-10-20T09:43:30.000Z</time>
      </trkpt>
      <trkpt lat="43.9964" lon="7.1501">
        <ele>684</ele>
        <time>2012-10-20T09:43:34.000Z</time>
      </trkpt>
      <trkpt lat="43.99639" lon="7.14982">
        <ele>683.59997558594</ele>
        <time>2012-10-20T09:43:40.000Z</time>
      </trkpt>
      <trkpt lat="43.99642" lon="7.14962">
        <ele>683.40002441406</ele>
        <time>2012-10-20T09:43:45.000Z</time>
      </trkpt>
      <trkpt lat="43.99642" lon="7.14947">
        <ele>683</ele>
        <time>2012-10-20T09:43:49.000Z</time>
      </trkpt>
      <trkpt lat="43.99649" lon="7.14944">
        <ele>683</ele>
        <time>2012-10-20T09:43:53.000Z</time>
      </trkpt>
      <trkpt lat="43.99655" lon="7.14963">
        <ele>683.79998779297</ele>
        <time>2012-10-20T09:43:58.000Z</time>
      </trkpt>
      <trkpt lat="43.99663" lon="7.14994">
        <ele>685.40002441406</ele>
        <time>2012-10-20T09:44:05.000Z</time>
      </trkpt>
      <trkpt lat="43.99663" lon="7.14998">
        <ele>685.59997558594</ele>
        <time>2012-10-20T09:44:06.000Z</time>
      </trkpt>
      <trkpt lat="43.99678" lon="7.15007">
        <ele>684.40002441406</ele>
        <time>2012-10-20T09:44:11.000Z</time>
      </trkpt>
      <trkpt lat="43.99687" lon="7.14996">
        <ele>682</ele>
        <time>2012-10-20T09:44:15.000Z</time>
      </trkpt>
      <trkpt lat="43.99686" lon="7.14988">
        <ele>681.59997558594</ele>
        <time>2012-10-20T09:44:18.000Z</time>
      </trkpt>
      <trkpt lat="43.99685" lon="7.14984">
        <ele>681.40002441406</ele>
        <time>2012-10-20T09:44:24.000Z</time>
      </trkpt>
      <trkpt lat="43.99683" lon="7.14983">
        <ele>681.79998779297</ele>
        <time>2012-10-20T09:44:31.000Z</time>
      </trkpt>
      <trkpt lat="43.99681" lon="7.14982">
        <ele>682</ele>
        <time>2012-10-20T09:44:46.000Z</time>
      </trkpt>
      <trkpt lat="43.99682" lon="7.14979">
        <ele>681.79998779297</ele>
        <time>2012-10-20T09:44:57.000Z</time>
      </trkpt>
      <trkpt lat="43.99681" lon="7.14977">
        <ele>681.79998779297</ele>
        <time>2012-10-20T09:45:08.000Z</time>
      </trkpt>
      <trkpt lat="43.99681" lon="7.14979">
        <ele>681.79998779297</ele>
        <time>2012-10-20T09:45:19.000Z</time>
      </trkpt>
      <trkpt lat="43.99683" lon="7.1498">
        <ele>681.59997558594</ele>
        <time>2012-10-20T09:45:28.000Z</time>
      </trkpt>
      <trkpt lat="43.99683" lon="7.1498">
        <ele>681.59997558594</ele>
        <time>2012-10-20T09:45:29.000Z</time>
      </trkpt>
    </trkseg>
  </trk>
</gpx>